<?xml version="1.0" encoding="UTF-8" standalone="no" ?>
<gpx xmlns="http://www.topografix.com/GPX/1/1" xmlns:xsi="http://www.w3.org/2001/XMLSchema-instance" xsi:schemaLocation="http://www.topografix.com/GPX/1/1 http://www.topografix.com/GPX/1/1/gpx.xsd" version="1.1" creator="VisuGPX - https://www.visugpx.com">
  <metadata>
    <name>Joyeux Randonneurs à Villetoureix</name>
    <desc><![CDATA[Randonnée accessible à tous. Il existe pratiquement toujours des possibilités  pour raccourcir le circuit à environ  6km. ]]></desc>
  </metadata>
  <trk>
    <name><![CDATA[Tracé 6 oct. 2015 14:04:58]]></name>
    <trkseg>
      <trkpt lat="45.261" lon="0.35923">
        <ele>63</ele>
        <time>2015-10-06T12:04:58Z</time>
      </trkpt>
      <trkpt lat="45.261" lon="0.35923">
        <ele>63</ele>
        <time>2015-10-06T12:05:12Z</time>
      </trkpt>
      <trkpt lat="45.261" lon="0.35923">
        <ele>63</ele>
        <time>2015-10-06T12:05:13Z</time>
      </trkpt>
      <trkpt lat="45.26098" lon="0.3592">
        <ele>64</ele>
        <time>2015-10-06T12:05:16Z</time>
      </trkpt>
      <trkpt lat="45.26094" lon="0.35919">
        <ele>63</ele>
        <time>2015-10-06T12:06:17Z</time>
      </trkpt>
      <trkpt lat="45.26091" lon="0.35912">
        <ele>63</ele>
        <time>2015-10-06T12:06:21Z</time>
      </trkpt>
      <trkpt lat="45.26088" lon="0.35906">
        <ele>64</ele>
        <time>2015-10-06T12:06:25Z</time>
      </trkpt>
      <trkpt lat="45.26086" lon="0.35899">
        <ele>63</ele>
        <time>2015-10-06T12:06:30Z</time>
      </trkpt>
      <trkpt lat="45.26085" lon="0.35894">
        <ele>63</ele>
        <time>2015-10-06T12:06:36Z</time>
      </trkpt>
      <trkpt lat="45.26088" lon="0.35893">
        <ele>64</ele>
        <time>2015-10-06T12:06:43Z</time>
      </trkpt>
      <trkpt lat="45.26092" lon="0.35896">
        <ele>64</ele>
        <time>2015-10-06T12:06:48Z</time>
      </trkpt>
      <trkpt lat="45.26095" lon="0.35899">
        <ele>65</ele>
        <time>2015-10-06T12:06:53Z</time>
      </trkpt>
      <trkpt lat="45.26099" lon="0.35901">
        <ele>65</ele>
        <time>2015-10-06T12:06:57Z</time>
      </trkpt>
      <trkpt lat="45.26103" lon="0.35905">
        <ele>64</ele>
        <time>2015-10-06T12:07:02Z</time>
      </trkpt>
      <trkpt lat="45.26106" lon="0.35907">
        <ele>65</ele>
        <time>2015-10-06T12:07:06Z</time>
      </trkpt>
      <trkpt lat="45.26109" lon="0.35911">
        <ele>64</ele>
        <time>2015-10-06T12:07:10Z</time>
      </trkpt>
      <trkpt lat="45.26112" lon="0.35914">
        <ele>65</ele>
        <time>2015-10-06T12:07:15Z</time>
      </trkpt>
      <trkpt lat="45.26116" lon="0.35918">
        <ele>63</ele>
        <time>2015-10-06T12:07:19Z</time>
      </trkpt>
      <trkpt lat="45.26118" lon="0.35922">
        <ele>65</ele>
        <time>2015-10-06T12:07:23Z</time>
      </trkpt>
      <trkpt lat="45.26121" lon="0.35927">
        <ele>65</ele>
        <time>2015-10-06T12:07:27Z</time>
      </trkpt>
      <trkpt lat="45.26124" lon="0.35931">
        <ele>64</ele>
        <time>2015-10-06T12:07:31Z</time>
      </trkpt>
      <trkpt lat="45.26128" lon="0.35939">
        <ele>64</ele>
        <time>2015-10-06T12:07:36Z</time>
      </trkpt>
      <trkpt lat="45.26131" lon="0.35945">
        <ele>64</ele>
        <time>2015-10-06T12:07:40Z</time>
      </trkpt>
      <trkpt lat="45.26136" lon="0.35949">
        <ele>63</ele>
        <time>2015-10-06T12:07:45Z</time>
      </trkpt>
      <trkpt lat="45.26139" lon="0.35956">
        <ele>63</ele>
        <time>2015-10-06T12:07:50Z</time>
      </trkpt>
      <trkpt lat="45.26142" lon="0.35961">
        <ele>63</ele>
        <time>2015-10-06T12:07:54Z</time>
      </trkpt>
      <trkpt lat="45.26146" lon="0.35968">
        <ele>63</ele>
        <time>2015-10-06T12:07:59Z</time>
      </trkpt>
      <trkpt lat="45.2615" lon="0.35974">
        <ele>62</ele>
        <time>2015-10-06T12:08:03Z</time>
      </trkpt>
      <trkpt lat="45.26152" lon="0.35979">
        <ele>62</ele>
        <time>2015-10-06T12:08:07Z</time>
      </trkpt>
      <trkpt lat="45.26155" lon="0.35985">
        <ele>63</ele>
        <time>2015-10-06T12:08:12Z</time>
      </trkpt>
      <trkpt lat="45.26158" lon="0.3599">
        <ele>64</ele>
        <time>2015-10-06T12:08:16Z</time>
      </trkpt>
      <trkpt lat="45.26161" lon="0.35993">
        <ele>64</ele>
        <time>2015-10-06T12:08:20Z</time>
      </trkpt>
      <trkpt lat="45.26164" lon="0.36001">
        <ele>65</ele>
        <time>2015-10-06T12:08:25Z</time>
      </trkpt>
      <trkpt lat="45.26167" lon="0.36006">
        <ele>65</ele>
        <time>2015-10-06T12:08:29Z</time>
      </trkpt>
      <trkpt lat="45.2617" lon="0.3601">
        <ele>67</ele>
        <time>2015-10-06T12:08:33Z</time>
      </trkpt>
      <trkpt lat="45.26174" lon="0.36017">
        <ele>67</ele>
        <time>2015-10-06T12:08:38Z</time>
      </trkpt>
      <trkpt lat="45.26179" lon="0.3602">
        <ele>66</ele>
        <time>2015-10-06T12:08:43Z</time>
      </trkpt>
      <trkpt lat="45.26184" lon="0.36025">
        <ele>68</ele>
        <time>2015-10-06T12:08:48Z</time>
      </trkpt>
      <trkpt lat="45.26187" lon="0.36028">
        <ele>69</ele>
        <time>2015-10-06T12:08:52Z</time>
      </trkpt>
      <trkpt lat="45.26191" lon="0.3603">
        <ele>70</ele>
        <time>2015-10-06T12:08:57Z</time>
      </trkpt>
      <trkpt lat="45.26194" lon="0.36033">
        <ele>69</ele>
        <time>2015-10-06T12:09:06Z</time>
      </trkpt>
      <trkpt lat="45.26199" lon="0.36037">
        <ele>67</ele>
        <time>2015-10-06T12:09:11Z</time>
      </trkpt>
      <trkpt lat="45.26203" lon="0.36041">
        <ele>67</ele>
        <time>2015-10-06T12:09:15Z</time>
      </trkpt>
      <trkpt lat="45.26206" lon="0.36045">
        <ele>66</ele>
        <time>2015-10-06T12:09:19Z</time>
      </trkpt>
      <trkpt lat="45.26207" lon="0.36051">
        <ele>66</ele>
        <time>2015-10-06T12:09:24Z</time>
      </trkpt>
      <trkpt lat="45.26208" lon="0.36057">
        <ele>67</ele>
        <time>2015-10-06T12:09:29Z</time>
      </trkpt>
      <trkpt lat="45.26208" lon="0.36063">
        <ele>71</ele>
        <time>2015-10-06T12:09:35Z</time>
      </trkpt>
      <trkpt lat="45.26209" lon="0.36069">
        <ele>72</ele>
        <time>2015-10-06T12:09:40Z</time>
      </trkpt>
      <trkpt lat="45.26212" lon="0.36075">
        <ele>71</ele>
        <time>2015-10-06T12:09:44Z</time>
      </trkpt>
      <trkpt lat="45.26218" lon="0.36081">
        <ele>69</ele>
        <time>2015-10-06T12:09:49Z</time>
      </trkpt>
      <trkpt lat="45.26224" lon="0.36085">
        <ele>68</ele>
        <time>2015-10-06T12:09:53Z</time>
      </trkpt>
      <trkpt lat="45.26229" lon="0.36088">
        <ele>67</ele>
        <time>2015-10-06T12:09:57Z</time>
      </trkpt>
      <trkpt lat="45.26233" lon="0.36092">
        <ele>67</ele>
        <time>2015-10-06T12:10:01Z</time>
      </trkpt>
      <trkpt lat="45.26238" lon="0.36094">
        <ele>68</ele>
        <time>2015-10-06T12:10:05Z</time>
      </trkpt>
      <trkpt lat="45.26241" lon="0.36096">
        <ele>67</ele>
        <time>2015-10-06T12:10:09Z</time>
      </trkpt>
      <trkpt lat="45.26247" lon="0.36098">
        <ele>67</ele>
        <time>2015-10-06T12:10:13Z</time>
      </trkpt>
      <trkpt lat="45.26253" lon="0.36099">
        <ele>68</ele>
        <time>2015-10-06T12:10:18Z</time>
      </trkpt>
      <trkpt lat="45.26257" lon="0.36098">
        <ele>69</ele>
        <time>2015-10-06T12:10:22Z</time>
      </trkpt>
      <trkpt lat="45.26262" lon="0.36098">
        <ele>69</ele>
        <time>2015-10-06T12:10:27Z</time>
      </trkpt>
      <trkpt lat="45.26267" lon="0.361">
        <ele>71</ele>
        <time>2015-10-06T12:10:31Z</time>
      </trkpt>
      <trkpt lat="45.26273" lon="0.36099">
        <ele>72</ele>
        <time>2015-10-06T12:10:36Z</time>
      </trkpt>
      <trkpt lat="45.26277" lon="0.36099">
        <ele>73</ele>
        <time>2015-10-06T12:10:40Z</time>
      </trkpt>
      <trkpt lat="45.26282" lon="0.36097">
        <ele>72</ele>
        <time>2015-10-06T12:10:44Z</time>
      </trkpt>
      <trkpt lat="45.26286" lon="0.36096">
        <ele>73</ele>
        <time>2015-10-06T12:10:48Z</time>
      </trkpt>
      <trkpt lat="45.26291" lon="0.36093">
        <ele>73</ele>
        <time>2015-10-06T12:10:52Z</time>
      </trkpt>
      <trkpt lat="45.26296" lon="0.36091">
        <ele>74</ele>
        <time>2015-10-06T12:10:56Z</time>
      </trkpt>
      <trkpt lat="45.26301" lon="0.36088">
        <ele>74</ele>
        <time>2015-10-06T12:11:01Z</time>
      </trkpt>
      <trkpt lat="45.26306" lon="0.36087">
        <ele>75</ele>
        <time>2015-10-06T12:11:05Z</time>
      </trkpt>
      <trkpt lat="45.2631" lon="0.36084">
        <ele>75</ele>
        <time>2015-10-06T12:11:09Z</time>
      </trkpt>
      <trkpt lat="45.26314" lon="0.36082">
        <ele>75</ele>
        <time>2015-10-06T12:11:13Z</time>
      </trkpt>
      <trkpt lat="45.26318" lon="0.36078">
        <ele>76</ele>
        <time>2015-10-06T12:11:18Z</time>
      </trkpt>
      <trkpt lat="45.26322" lon="0.36075">
        <ele>76</ele>
        <time>2015-10-06T12:11:22Z</time>
      </trkpt>
      <trkpt lat="45.26325" lon="0.36067">
        <ele>76</ele>
        <time>2015-10-06T12:11:27Z</time>
      </trkpt>
      <trkpt lat="45.26327" lon="0.36059">
        <ele>75</ele>
        <time>2015-10-06T12:11:31Z</time>
      </trkpt>
      <trkpt lat="45.26329" lon="0.36052">
        <ele>75</ele>
        <time>2015-10-06T12:11:36Z</time>
      </trkpt>
      <trkpt lat="45.26332" lon="0.36047">
        <ele>76</ele>
        <time>2015-10-06T12:11:40Z</time>
      </trkpt>
      <trkpt lat="45.26334" lon="0.3604">
        <ele>75</ele>
        <time>2015-10-06T12:11:45Z</time>
      </trkpt>
      <trkpt lat="45.26337" lon="0.36036">
        <ele>77</ele>
        <time>2015-10-06T12:11:54Z</time>
      </trkpt>
      <trkpt lat="45.2634" lon="0.36037">
        <ele>75</ele>
        <time>2015-10-06T12:12:08Z</time>
      </trkpt>
      <trkpt lat="45.26342" lon="0.36043">
        <ele>75</ele>
        <time>2015-10-06T12:12:13Z</time>
      </trkpt>
      <trkpt lat="45.26343" lon="0.36048">
        <ele>74</ele>
        <time>2015-10-06T12:12:18Z</time>
      </trkpt>
      <trkpt lat="45.26344" lon="0.36054">
        <ele>74</ele>
        <time>2015-10-06T12:12:22Z</time>
      </trkpt>
      <trkpt lat="45.26346" lon="0.36061">
        <ele>75</ele>
        <time>2015-10-06T12:12:27Z</time>
      </trkpt>
      <trkpt lat="45.26348" lon="0.36067">
        <ele>74</ele>
        <time>2015-10-06T12:12:31Z</time>
      </trkpt>
      <trkpt lat="45.26349" lon="0.36073">
        <ele>74</ele>
        <time>2015-10-06T12:12:35Z</time>
      </trkpt>
      <trkpt lat="45.26351" lon="0.36078">
        <ele>73</ele>
        <time>2015-10-06T12:12:39Z</time>
      </trkpt>
      <trkpt lat="45.26353" lon="0.36083">
        <ele>73</ele>
        <time>2015-10-06T12:12:45Z</time>
      </trkpt>
      <trkpt lat="45.26356" lon="0.36088">
        <ele>72</ele>
        <time>2015-10-06T12:12:50Z</time>
      </trkpt>
      <trkpt lat="45.26358" lon="0.36093">
        <ele>71</ele>
        <time>2015-10-06T12:12:56Z</time>
      </trkpt>
      <trkpt lat="45.26358" lon="0.36099">
        <ele>72</ele>
        <time>2015-10-06T12:13:04Z</time>
      </trkpt>
      <trkpt lat="45.26357" lon="0.36105">
        <ele>71</ele>
        <time>2015-10-06T12:13:13Z</time>
      </trkpt>
      <trkpt lat="45.26358" lon="0.36112">
        <ele>70</ele>
        <time>2015-10-06T12:13:18Z</time>
      </trkpt>
      <trkpt lat="45.26355" lon="0.36116">
        <ele>70</ele>
        <time>2015-10-06T12:13:25Z</time>
      </trkpt>
      <trkpt lat="45.26352" lon="0.3612">
        <ele>70</ele>
        <time>2015-10-06T12:13:29Z</time>
      </trkpt>
      <trkpt lat="45.26352" lon="0.36126">
        <ele>70</ele>
        <time>2015-10-06T12:13:33Z</time>
      </trkpt>
      <trkpt lat="45.26351" lon="0.3613">
        <ele>71</ele>
        <time>2015-10-06T12:13:37Z</time>
      </trkpt>
      <trkpt lat="45.26349" lon="0.36137">
        <ele>71</ele>
        <time>2015-10-06T12:13:42Z</time>
      </trkpt>
      <trkpt lat="45.26348" lon="0.36142">
        <ele>72</ele>
        <time>2015-10-06T12:13:46Z</time>
      </trkpt>
      <trkpt lat="45.26348" lon="0.36149">
        <ele>70</ele>
        <time>2015-10-06T12:13:51Z</time>
      </trkpt>
      <trkpt lat="45.26346" lon="0.36153">
        <ele>71</ele>
        <time>2015-10-06T12:13:56Z</time>
      </trkpt>
      <trkpt lat="45.26345" lon="0.36158">
        <ele>71</ele>
        <time>2015-10-06T12:14:00Z</time>
      </trkpt>
      <trkpt lat="45.26345" lon="0.36163">
        <ele>73</ele>
        <time>2015-10-06T12:14:05Z</time>
      </trkpt>
      <trkpt lat="45.26347" lon="0.36169">
        <ele>73</ele>
        <time>2015-10-06T12:14:09Z</time>
      </trkpt>
      <trkpt lat="45.26349" lon="0.36176">
        <ele>76</ele>
        <time>2015-10-06T12:14:14Z</time>
      </trkpt>
      <trkpt lat="45.2635" lon="0.36182">
        <ele>77</ele>
        <time>2015-10-06T12:14:19Z</time>
      </trkpt>
      <trkpt lat="45.26351" lon="0.36188">
        <ele>76</ele>
        <time>2015-10-06T12:14:23Z</time>
      </trkpt>
      <trkpt lat="45.26352" lon="0.36194">
        <ele>77</ele>
        <time>2015-10-06T12:14:28Z</time>
      </trkpt>
      <trkpt lat="45.26353" lon="0.36199">
        <ele>79</ele>
        <time>2015-10-06T12:14:36Z</time>
      </trkpt>
      <trkpt lat="45.26356" lon="0.36203">
        <ele>77</ele>
        <time>2015-10-06T12:14:39Z</time>
      </trkpt>
      <trkpt lat="45.26358" lon="0.36208">
        <ele>77</ele>
        <time>2015-10-06T12:14:44Z</time>
      </trkpt>
      <trkpt lat="45.26359" lon="0.36214">
        <ele>78</ele>
        <time>2015-10-06T12:14:50Z</time>
      </trkpt>
      <trkpt lat="45.26361" lon="0.36219">
        <ele>79</ele>
        <time>2015-10-06T12:14:56Z</time>
      </trkpt>
      <trkpt lat="45.26364" lon="0.36223">
        <ele>80</ele>
        <time>2015-10-06T12:15:19Z</time>
      </trkpt>
      <trkpt lat="45.26368" lon="0.36221">
        <ele>83</ele>
        <time>2015-10-06T12:15:23Z</time>
      </trkpt>
      <trkpt lat="45.26372" lon="0.36219">
        <ele>83</ele>
        <time>2015-10-06T12:15:30Z</time>
      </trkpt>
      <trkpt lat="45.26377" lon="0.36216">
        <ele>81</ele>
        <time>2015-10-06T12:15:35Z</time>
      </trkpt>
      <trkpt lat="45.26381" lon="0.36216">
        <ele>85</ele>
        <time>2015-10-06T12:15:42Z</time>
      </trkpt>
      <trkpt lat="45.26385" lon="0.36214">
        <ele>87</ele>
        <time>2015-10-06T12:15:47Z</time>
      </trkpt>
      <trkpt lat="45.26389" lon="0.36211">
        <ele>86</ele>
        <time>2015-10-06T12:15:53Z</time>
      </trkpt>
      <trkpt lat="45.26392" lon="0.36209">
        <ele>88</ele>
        <time>2015-10-06T12:15:57Z</time>
      </trkpt>
      <trkpt lat="45.26396" lon="0.36208">
        <ele>88</ele>
        <time>2015-10-06T12:16:03Z</time>
      </trkpt>
      <trkpt lat="45.264" lon="0.36204">
        <ele>87</ele>
        <time>2015-10-06T12:16:07Z</time>
      </trkpt>
      <trkpt lat="45.26404" lon="0.36202">
        <ele>87</ele>
        <time>2015-10-06T12:16:11Z</time>
      </trkpt>
      <trkpt lat="45.26408" lon="0.36203">
        <ele>85</ele>
        <time>2015-10-06T12:16:15Z</time>
      </trkpt>
      <trkpt lat="45.26416" lon="0.36195">
        <ele>82</ele>
        <time>2015-10-06T12:16:20Z</time>
      </trkpt>
      <trkpt lat="45.26419" lon="0.36192">
        <ele>82</ele>
        <time>2015-10-06T12:16:25Z</time>
      </trkpt>
      <trkpt lat="45.26426" lon="0.36189">
        <ele>78</ele>
        <time>2015-10-06T12:16:29Z</time>
      </trkpt>
      <trkpt lat="45.26431" lon="0.36189">
        <ele>77</ele>
        <time>2015-10-06T12:16:34Z</time>
      </trkpt>
      <trkpt lat="45.26434" lon="0.36185">
        <ele>78</ele>
        <time>2015-10-06T12:16:38Z</time>
      </trkpt>
      <trkpt lat="45.26439" lon="0.36182">
        <ele>79</ele>
        <time>2015-10-06T12:16:42Z</time>
      </trkpt>
      <trkpt lat="45.26443" lon="0.3618">
        <ele>77</ele>
        <time>2015-10-06T12:16:46Z</time>
      </trkpt>
      <trkpt lat="45.26448" lon="0.36178">
        <ele>77</ele>
        <time>2015-10-06T12:16:51Z</time>
      </trkpt>
      <trkpt lat="45.26452" lon="0.36176">
        <ele>77</ele>
        <time>2015-10-06T12:16:55Z</time>
      </trkpt>
      <trkpt lat="45.26456" lon="0.36175">
        <ele>79</ele>
        <time>2015-10-06T12:17:01Z</time>
      </trkpt>
      <trkpt lat="45.26462" lon="0.36173">
        <ele>79</ele>
        <time>2015-10-06T12:17:06Z</time>
      </trkpt>
      <trkpt lat="45.26466" lon="0.36169">
        <ele>80</ele>
        <time>2015-10-06T12:17:10Z</time>
      </trkpt>
      <trkpt lat="45.2647" lon="0.36167">
        <ele>79</ele>
        <time>2015-10-06T12:17:15Z</time>
      </trkpt>
      <trkpt lat="45.26477" lon="0.36164">
        <ele>78</ele>
        <time>2015-10-06T12:17:20Z</time>
      </trkpt>
      <trkpt lat="45.26482" lon="0.3616">
        <ele>79</ele>
        <time>2015-10-06T12:17:24Z</time>
      </trkpt>
      <trkpt lat="45.26486" lon="0.36157">
        <ele>78</ele>
        <time>2015-10-06T12:17:28Z</time>
      </trkpt>
      <trkpt lat="45.2649" lon="0.36152">
        <ele>79</ele>
        <time>2015-10-06T12:17:32Z</time>
      </trkpt>
      <trkpt lat="45.26496" lon="0.36147">
        <ele>79</ele>
        <time>2015-10-06T12:17:37Z</time>
      </trkpt>
      <trkpt lat="45.26497" lon="0.36147">
        <ele>79</ele>
        <time>2015-10-06T12:17:38Z</time>
      </trkpt>
      <trkpt lat="45.26507" lon="0.36139">
        <ele>78</ele>
        <time>2015-10-06T12:17:48Z</time>
      </trkpt>
      <trkpt lat="45.26512" lon="0.36135">
        <ele>79</ele>
        <time>2015-10-06T12:17:52Z</time>
      </trkpt>
      <trkpt lat="45.26516" lon="0.3613">
        <ele>77</ele>
        <time>2015-10-06T12:17:56Z</time>
      </trkpt>
      <trkpt lat="45.2652" lon="0.36126">
        <ele>79</ele>
        <time>2015-10-06T12:18:01Z</time>
      </trkpt>
      <trkpt lat="45.26521" lon="0.36119">
        <ele>79</ele>
        <time>2015-10-06T12:18:05Z</time>
      </trkpt>
      <trkpt lat="45.2652" lon="0.36113">
        <ele>78</ele>
        <time>2015-10-06T12:18:09Z</time>
      </trkpt>
      <trkpt lat="45.26519" lon="0.36108">
        <ele>74</ele>
        <time>2015-10-06T12:18:15Z</time>
      </trkpt>
      <trkpt lat="45.26519" lon="0.36098">
        <ele>78</ele>
        <time>2015-10-06T12:18:20Z</time>
      </trkpt>
      <trkpt lat="45.26515" lon="0.36092">
        <ele>76</ele>
        <time>2015-10-06T12:18:24Z</time>
      </trkpt>
      <trkpt lat="45.26513" lon="0.36085">
        <ele>76</ele>
        <time>2015-10-06T12:18:28Z</time>
      </trkpt>
      <trkpt lat="45.2651" lon="0.3608">
        <ele>76</ele>
        <time>2015-10-06T12:18:32Z</time>
      </trkpt>
      <trkpt lat="45.26509" lon="0.36074">
        <ele>74</ele>
        <time>2015-10-06T12:18:36Z</time>
      </trkpt>
      <trkpt lat="45.26507" lon="0.36072">
        <ele>73</ele>
        <time>2015-10-06T12:18:38Z</time>
      </trkpt>
      <trkpt lat="45.26505" lon="0.36057">
        <ele>70</ele>
        <time>2015-10-06T12:18:48Z</time>
      </trkpt>
      <trkpt lat="45.26503" lon="0.36051">
        <ele>72</ele>
        <time>2015-10-06T12:18:52Z</time>
      </trkpt>
      <trkpt lat="45.26503" lon="0.36045">
        <ele>73</ele>
        <time>2015-10-06T12:18:56Z</time>
      </trkpt>
      <trkpt lat="45.26501" lon="0.36036">
        <ele>72</ele>
        <time>2015-10-06T12:19:00Z</time>
      </trkpt>
      <trkpt lat="45.26498" lon="0.3603">
        <ele>72</ele>
        <time>2015-10-06T12:19:04Z</time>
      </trkpt>
      <trkpt lat="45.26497" lon="0.36022">
        <ele>72</ele>
        <time>2015-10-06T12:19:09Z</time>
      </trkpt>
      <trkpt lat="45.26496" lon="0.36015">
        <ele>72</ele>
        <time>2015-10-06T12:19:14Z</time>
      </trkpt>
      <trkpt lat="45.26492" lon="0.36012">
        <ele>72</ele>
        <time>2015-10-06T12:19:19Z</time>
      </trkpt>
      <trkpt lat="45.26491" lon="0.36006">
        <ele>76</ele>
        <time>2015-10-06T12:19:25Z</time>
      </trkpt>
      <trkpt lat="45.26492" lon="0.36">
        <ele>75</ele>
        <time>2015-10-06T12:19:30Z</time>
      </trkpt>
      <trkpt lat="45.2649" lon="0.35995">
        <ele>75</ele>
        <time>2015-10-06T12:19:38Z</time>
      </trkpt>
      <trkpt lat="45.26488" lon="0.35989">
        <ele>79</ele>
        <time>2015-10-06T12:19:43Z</time>
      </trkpt>
      <trkpt lat="45.26489" lon="0.35982">
        <ele>83</ele>
        <time>2015-10-06T12:19:48Z</time>
      </trkpt>
      <trkpt lat="45.26486" lon="0.35974">
        <ele>83</ele>
        <time>2015-10-06T12:19:53Z</time>
      </trkpt>
      <trkpt lat="45.26486" lon="0.35968">
        <ele>83</ele>
        <time>2015-10-06T12:19:59Z</time>
      </trkpt>
      <trkpt lat="45.26485" lon="0.35959">
        <ele>83</ele>
        <time>2015-10-06T12:20:03Z</time>
      </trkpt>
      <trkpt lat="45.26481" lon="0.35955">
        <ele>82</ele>
        <time>2015-10-06T12:20:07Z</time>
      </trkpt>
      <trkpt lat="45.2648" lon="0.3595">
        <ele>84</ele>
        <time>2015-10-06T12:20:12Z</time>
      </trkpt>
      <trkpt lat="45.26479" lon="0.35944">
        <ele>83</ele>
        <time>2015-10-06T12:20:16Z</time>
      </trkpt>
      <trkpt lat="45.26479" lon="0.35938">
        <ele>85</ele>
        <time>2015-10-06T12:20:21Z</time>
      </trkpt>
      <trkpt lat="45.26479" lon="0.3593">
        <ele>85</ele>
        <time>2015-10-06T12:20:26Z</time>
      </trkpt>
      <trkpt lat="45.26478" lon="0.35923">
        <ele>86</ele>
        <time>2015-10-06T12:20:30Z</time>
      </trkpt>
      <trkpt lat="45.26475" lon="0.35916">
        <ele>84</ele>
        <time>2015-10-06T12:20:35Z</time>
      </trkpt>
      <trkpt lat="45.26473" lon="0.35911">
        <ele>85</ele>
        <time>2015-10-06T12:20:40Z</time>
      </trkpt>
      <trkpt lat="45.26472" lon="0.35906">
        <ele>85</ele>
        <time>2015-10-06T12:20:45Z</time>
      </trkpt>
      <trkpt lat="45.26471" lon="0.35897">
        <ele>84</ele>
        <time>2015-10-06T12:20:50Z</time>
      </trkpt>
      <trkpt lat="45.26472" lon="0.35894">
        <ele>86</ele>
        <time>2015-10-06T12:20:55Z</time>
      </trkpt>
      <trkpt lat="45.2647" lon="0.35883">
        <ele>84</ele>
        <time>2015-10-06T12:20:59Z</time>
      </trkpt>
      <trkpt lat="45.26467" lon="0.35874">
        <ele>81</ele>
        <time>2015-10-06T12:21:04Z</time>
      </trkpt>
      <trkpt lat="45.26466" lon="0.35866">
        <ele>79</ele>
        <time>2015-10-06T12:21:09Z</time>
      </trkpt>
      <trkpt lat="45.26468" lon="0.3586">
        <ele>79</ele>
        <time>2015-10-06T12:21:14Z</time>
      </trkpt>
      <trkpt lat="45.26472" lon="0.35856">
        <ele>80</ele>
        <time>2015-10-06T12:21:19Z</time>
      </trkpt>
      <trkpt lat="45.26476" lon="0.35855">
        <ele>80</ele>
        <time>2015-10-06T12:21:24Z</time>
      </trkpt>
      <trkpt lat="45.26479" lon="0.35854">
        <ele>80</ele>
        <time>2015-10-06T12:21:30Z</time>
      </trkpt>
      <trkpt lat="45.26484" lon="0.35854">
        <ele>79</ele>
        <time>2015-10-06T12:21:35Z</time>
      </trkpt>
      <trkpt lat="45.26488" lon="0.35854">
        <ele>79</ele>
        <time>2015-10-06T12:21:43Z</time>
      </trkpt>
      <trkpt lat="45.26496" lon="0.35851">
        <ele>77</ele>
        <time>2015-10-06T12:21:48Z</time>
      </trkpt>
      <trkpt lat="45.265" lon="0.35849">
        <ele>79</ele>
        <time>2015-10-06T12:21:57Z</time>
      </trkpt>
      <trkpt lat="45.26503" lon="0.35836">
        <ele>78</ele>
        <time>2015-10-06T12:22:01Z</time>
      </trkpt>
      <trkpt lat="45.26503" lon="0.35828">
        <ele>76</ele>
        <time>2015-10-06T12:22:06Z</time>
      </trkpt>
      <trkpt lat="45.26504" lon="0.3582">
        <ele>78</ele>
        <time>2015-10-06T12:22:11Z</time>
      </trkpt>
      <trkpt lat="45.26506" lon="0.35815">
        <ele>80</ele>
        <time>2015-10-06T12:22:15Z</time>
      </trkpt>
      <trkpt lat="45.26508" lon="0.3581">
        <ele>82</ele>
        <time>2015-10-06T12:22:23Z</time>
      </trkpt>
      <trkpt lat="45.26508" lon="0.35803">
        <ele>83</ele>
        <time>2015-10-06T12:22:29Z</time>
      </trkpt>
      <trkpt lat="45.26509" lon="0.35799">
        <ele>85</ele>
        <time>2015-10-06T12:22:34Z</time>
      </trkpt>
      <trkpt lat="45.26509" lon="0.35794">
        <ele>86</ele>
        <time>2015-10-06T12:22:38Z</time>
      </trkpt>
      <trkpt lat="45.26508" lon="0.35784">
        <ele>87</ele>
        <time>2015-10-06T12:22:42Z</time>
      </trkpt>
      <trkpt lat="45.26507" lon="0.35777">
        <ele>87</ele>
        <time>2015-10-06T12:22:47Z</time>
      </trkpt>
      <trkpt lat="45.26508" lon="0.35767">
        <ele>86</ele>
        <time>2015-10-06T12:22:52Z</time>
      </trkpt>
      <trkpt lat="45.26507" lon="0.35761">
        <ele>87</ele>
        <time>2015-10-06T12:22:58Z</time>
      </trkpt>
      <trkpt lat="45.26506" lon="0.35755">
        <ele>88</ele>
        <time>2015-10-06T12:23:05Z</time>
      </trkpt>
      <trkpt lat="45.26506" lon="0.35744">
        <ele>87</ele>
        <time>2015-10-06T12:23:10Z</time>
      </trkpt>
      <trkpt lat="45.26507" lon="0.35739">
        <ele>89</ele>
        <time>2015-10-06T12:23:14Z</time>
      </trkpt>
      <trkpt lat="45.26508" lon="0.35732">
        <ele>90</ele>
        <time>2015-10-06T12:23:19Z</time>
      </trkpt>
      <trkpt lat="45.26508" lon="0.35728">
        <ele>90</ele>
        <time>2015-10-06T12:23:26Z</time>
      </trkpt>
      <trkpt lat="45.2651" lon="0.35718">
        <ele>91</ele>
        <time>2015-10-06T12:23:30Z</time>
      </trkpt>
      <trkpt lat="45.2651" lon="0.35712">
        <ele>92</ele>
        <time>2015-10-06T12:23:36Z</time>
      </trkpt>
      <trkpt lat="45.26509" lon="0.35706">
        <ele>91</ele>
        <time>2015-10-06T12:23:40Z</time>
      </trkpt>
      <trkpt lat="45.26508" lon="0.35697">
        <ele>92</ele>
        <time>2015-10-06T12:23:44Z</time>
      </trkpt>
      <trkpt lat="45.26508" lon="0.3569">
        <ele>92</ele>
        <time>2015-10-06T12:23:49Z</time>
      </trkpt>
      <trkpt lat="45.26509" lon="0.35684">
        <ele>95</ele>
        <time>2015-10-06T12:23:54Z</time>
      </trkpt>
      <trkpt lat="45.2651" lon="0.3568">
        <ele>95</ele>
        <time>2015-10-06T12:23:59Z</time>
      </trkpt>
      <trkpt lat="45.26513" lon="0.35665">
        <ele>95</ele>
        <time>2015-10-06T12:24:04Z</time>
      </trkpt>
      <trkpt lat="45.26514" lon="0.35656">
        <ele>96</ele>
        <time>2015-10-06T12:24:09Z</time>
      </trkpt>
      <trkpt lat="45.26515" lon="0.35649">
        <ele>95</ele>
        <time>2015-10-06T12:24:13Z</time>
      </trkpt>
      <trkpt lat="45.26515" lon="0.35644">
        <ele>96</ele>
        <time>2015-10-06T12:24:18Z</time>
      </trkpt>
      <trkpt lat="45.26515" lon="0.35636">
        <ele>95</ele>
        <time>2015-10-06T12:24:22Z</time>
      </trkpt>
      <trkpt lat="45.26515" lon="0.35627">
        <ele>96</ele>
        <time>2015-10-06T12:24:27Z</time>
      </trkpt>
      <trkpt lat="45.26515" lon="0.35621">
        <ele>96</ele>
        <time>2015-10-06T12:24:31Z</time>
      </trkpt>
      <trkpt lat="45.26515" lon="0.35615">
        <ele>97</ele>
        <time>2015-10-06T12:24:35Z</time>
      </trkpt>
      <trkpt lat="45.26514" lon="0.35608">
        <ele>97</ele>
        <time>2015-10-06T12:24:40Z</time>
      </trkpt>
      <trkpt lat="45.26513" lon="0.35603">
        <ele>98</ele>
        <time>2015-10-06T12:24:46Z</time>
      </trkpt>
      <trkpt lat="45.26514" lon="0.35595">
        <ele>100</ele>
        <time>2015-10-06T12:24:51Z</time>
      </trkpt>
      <trkpt lat="45.26512" lon="0.3559">
        <ele>101</ele>
        <time>2015-10-06T12:24:55Z</time>
      </trkpt>
      <trkpt lat="45.26511" lon="0.35584">
        <ele>101</ele>
        <time>2015-10-06T12:24:59Z</time>
      </trkpt>
      <trkpt lat="45.2651" lon="0.35576">
        <ele>101</ele>
        <time>2015-10-06T12:25:04Z</time>
      </trkpt>
      <trkpt lat="45.26509" lon="0.35567">
        <ele>103</ele>
        <time>2015-10-06T12:25:09Z</time>
      </trkpt>
      <trkpt lat="45.26508" lon="0.3556">
        <ele>102</ele>
        <time>2015-10-06T12:25:13Z</time>
      </trkpt>
      <trkpt lat="45.26507" lon="0.35554">
        <ele>102</ele>
        <time>2015-10-06T12:25:17Z</time>
      </trkpt>
      <trkpt lat="45.26505" lon="0.35549">
        <ele>101</ele>
        <time>2015-10-06T12:25:24Z</time>
      </trkpt>
      <trkpt lat="45.26504" lon="0.35543">
        <ele>99</ele>
        <time>2015-10-06T12:26:00Z</time>
      </trkpt>
      <trkpt lat="45.26507" lon="0.35538">
        <ele>100</ele>
        <time>2015-10-06T12:26:08Z</time>
      </trkpt>
      <trkpt lat="45.26511" lon="0.35539">
        <ele>101</ele>
        <time>2015-10-06T12:26:13Z</time>
      </trkpt>
      <trkpt lat="45.26516" lon="0.35539">
        <ele>101</ele>
        <time>2015-10-06T12:26:18Z</time>
      </trkpt>
      <trkpt lat="45.2652" lon="0.35539">
        <ele>101</ele>
        <time>2015-10-06T12:26:23Z</time>
      </trkpt>
      <trkpt lat="45.26524" lon="0.35537">
        <ele>102</ele>
        <time>2015-10-06T12:26:28Z</time>
      </trkpt>
      <trkpt lat="45.26528" lon="0.35538">
        <ele>102</ele>
        <time>2015-10-06T12:26:33Z</time>
      </trkpt>
      <trkpt lat="45.26532" lon="0.35537">
        <ele>102</ele>
        <time>2015-10-06T12:26:37Z</time>
      </trkpt>
      <trkpt lat="45.26536" lon="0.35535">
        <ele>103</ele>
        <time>2015-10-06T12:26:42Z</time>
      </trkpt>
      <trkpt lat="45.26541" lon="0.35532">
        <ele>105</ele>
        <time>2015-10-06T12:26:47Z</time>
      </trkpt>
      <trkpt lat="45.26545" lon="0.35531">
        <ele>105</ele>
        <time>2015-10-06T12:26:52Z</time>
      </trkpt>
      <trkpt lat="45.26548" lon="0.35528">
        <ele>105</ele>
        <time>2015-10-06T12:26:57Z</time>
      </trkpt>
      <trkpt lat="45.26552" lon="0.35526">
        <ele>105</ele>
        <time>2015-10-06T12:27:01Z</time>
      </trkpt>
      <trkpt lat="45.26555" lon="0.35524">
        <ele>105</ele>
        <time>2015-10-06T12:27:05Z</time>
      </trkpt>
      <trkpt lat="45.26559" lon="0.35521">
        <ele>105</ele>
        <time>2015-10-06T12:27:10Z</time>
      </trkpt>
      <trkpt lat="45.26564" lon="0.35519">
        <ele>106</ele>
        <time>2015-10-06T12:27:14Z</time>
      </trkpt>
      <trkpt lat="45.26569" lon="0.35513">
        <ele>106</ele>
        <time>2015-10-06T12:27:19Z</time>
      </trkpt>
      <trkpt lat="45.26572" lon="0.35513">
        <ele>106</ele>
        <time>2015-10-06T12:27:23Z</time>
      </trkpt>
      <trkpt lat="45.26576" lon="0.3551">
        <ele>105</ele>
        <time>2015-10-06T12:27:27Z</time>
      </trkpt>
      <trkpt lat="45.26581" lon="0.35508">
        <ele>105</ele>
        <time>2015-10-06T12:27:32Z</time>
      </trkpt>
      <trkpt lat="45.26585" lon="0.35503">
        <ele>106</ele>
        <time>2015-10-06T12:27:36Z</time>
      </trkpt>
      <trkpt lat="45.2659" lon="0.35498">
        <ele>108</ele>
        <time>2015-10-06T12:27:41Z</time>
      </trkpt>
      <trkpt lat="45.26593" lon="0.35494">
        <ele>110</ele>
        <time>2015-10-06T12:27:45Z</time>
      </trkpt>
      <trkpt lat="45.26596" lon="0.35491">
        <ele>112</ele>
        <time>2015-10-06T12:27:49Z</time>
      </trkpt>
      <trkpt lat="45.26599" lon="0.35486">
        <ele>112</ele>
        <time>2015-10-06T12:27:53Z</time>
      </trkpt>
      <trkpt lat="45.26602" lon="0.35482">
        <ele>112</ele>
        <time>2015-10-06T12:27:58Z</time>
      </trkpt>
      <trkpt lat="45.26605" lon="0.35477">
        <ele>110</ele>
        <time>2015-10-06T12:28:06Z</time>
      </trkpt>
      <trkpt lat="45.26608" lon="0.35474">
        <ele>110</ele>
        <time>2015-10-06T12:28:11Z</time>
      </trkpt>
      <trkpt lat="45.26612" lon="0.35471">
        <ele>110</ele>
        <time>2015-10-06T12:28:17Z</time>
      </trkpt>
      <trkpt lat="45.26616" lon="0.35468">
        <ele>110</ele>
        <time>2015-10-06T12:28:22Z</time>
      </trkpt>
      <trkpt lat="45.26622" lon="0.35462">
        <ele>110</ele>
        <time>2015-10-06T12:28:27Z</time>
      </trkpt>
      <trkpt lat="45.26627" lon="0.35456">
        <ele>111</ele>
        <time>2015-10-06T12:28:31Z</time>
      </trkpt>
      <trkpt lat="45.26631" lon="0.3545">
        <ele>111</ele>
        <time>2015-10-06T12:28:36Z</time>
      </trkpt>
      <trkpt lat="45.26635" lon="0.35446">
        <ele>112</ele>
        <time>2015-10-06T12:28:40Z</time>
      </trkpt>
      <trkpt lat="45.26637" lon="0.35441">
        <ele>113</ele>
        <time>2015-10-06T12:28:44Z</time>
      </trkpt>
      <trkpt lat="45.26641" lon="0.35437">
        <ele>114</ele>
        <time>2015-10-06T12:28:49Z</time>
      </trkpt>
      <trkpt lat="45.26646" lon="0.35433">
        <ele>113</ele>
        <time>2015-10-06T12:28:54Z</time>
      </trkpt>
      <trkpt lat="45.2665" lon="0.35431">
        <ele>112</ele>
        <time>2015-10-06T12:28:59Z</time>
      </trkpt>
      <trkpt lat="45.26654" lon="0.35428">
        <ele>112</ele>
        <time>2015-10-06T12:29:03Z</time>
      </trkpt>
      <trkpt lat="45.26657" lon="0.35425">
        <ele>112</ele>
        <time>2015-10-06T12:29:07Z</time>
      </trkpt>
      <trkpt lat="45.2666" lon="0.35421">
        <ele>113</ele>
        <time>2015-10-06T12:29:11Z</time>
      </trkpt>
      <trkpt lat="45.26665" lon="0.35416">
        <ele>115</ele>
        <time>2015-10-06T12:29:16Z</time>
      </trkpt>
      <trkpt lat="45.26668" lon="0.35413">
        <ele>115</ele>
        <time>2015-10-06T12:29:20Z</time>
      </trkpt>
      <trkpt lat="45.26672" lon="0.35407">
        <ele>115</ele>
        <time>2015-10-06T12:29:24Z</time>
      </trkpt>
      <trkpt lat="45.26676" lon="0.35404">
        <ele>116</ele>
        <time>2015-10-06T12:29:29Z</time>
      </trkpt>
      <trkpt lat="45.26679" lon="0.35402">
        <ele>115</ele>
        <time>2015-10-06T12:29:33Z</time>
      </trkpt>
      <trkpt lat="45.26683" lon="0.35398">
        <ele>115</ele>
        <time>2015-10-06T12:29:37Z</time>
      </trkpt>
      <trkpt lat="45.26687" lon="0.35397">
        <ele>115</ele>
        <time>2015-10-06T12:29:42Z</time>
      </trkpt>
      <trkpt lat="45.26694" lon="0.35395">
        <ele>115</ele>
        <time>2015-10-06T12:29:47Z</time>
      </trkpt>
      <trkpt lat="45.26699" lon="0.35396">
        <ele>115</ele>
        <time>2015-10-06T12:29:52Z</time>
      </trkpt>
      <trkpt lat="45.26704" lon="0.35395">
        <ele>115</ele>
        <time>2015-10-06T12:29:57Z</time>
      </trkpt>
      <trkpt lat="45.26708" lon="0.35395">
        <ele>116</ele>
        <time>2015-10-06T12:30:03Z</time>
      </trkpt>
      <trkpt lat="45.26716" lon="0.35393">
        <ele>114</ele>
        <time>2015-10-06T12:30:08Z</time>
      </trkpt>
      <trkpt lat="45.2672" lon="0.35394">
        <ele>115</ele>
        <time>2015-10-06T12:30:13Z</time>
      </trkpt>
      <trkpt lat="45.26726" lon="0.35393">
        <ele>116</ele>
        <time>2015-10-06T12:30:17Z</time>
      </trkpt>
      <trkpt lat="45.2673" lon="0.35393">
        <ele>116</ele>
        <time>2015-10-06T12:30:20Z</time>
      </trkpt>
      <trkpt lat="45.26735" lon="0.3539">
        <ele>115</ele>
        <time>2015-10-06T12:30:24Z</time>
      </trkpt>
      <trkpt lat="45.26739" lon="0.3539">
        <ele>115</ele>
        <time>2015-10-06T12:30:30Z</time>
      </trkpt>
      <trkpt lat="45.26746" lon="0.35392">
        <ele>113</ele>
        <time>2015-10-06T12:30:35Z</time>
      </trkpt>
      <trkpt lat="45.2675" lon="0.35391">
        <ele>113</ele>
        <time>2015-10-06T12:30:40Z</time>
      </trkpt>
      <trkpt lat="45.26755" lon="0.3539">
        <ele>113</ele>
        <time>2015-10-06T12:30:45Z</time>
      </trkpt>
      <trkpt lat="45.26758" lon="0.35391">
        <ele>114</ele>
        <time>2015-10-06T12:30:50Z</time>
      </trkpt>
      <trkpt lat="45.26764" lon="0.35393">
        <ele>111</ele>
        <time>2015-10-06T12:30:53Z</time>
      </trkpt>
      <trkpt lat="45.26769" lon="0.35391">
        <ele>110</ele>
        <time>2015-10-06T12:30:58Z</time>
      </trkpt>
      <trkpt lat="45.26774" lon="0.35384">
        <ele>110</ele>
        <time>2015-10-06T12:31:03Z</time>
      </trkpt>
      <trkpt lat="45.26778" lon="0.35379">
        <ele>110</ele>
        <time>2015-10-06T12:31:08Z</time>
      </trkpt>
      <trkpt lat="45.26781" lon="0.35377">
        <ele>112</ele>
        <time>2015-10-06T12:31:13Z</time>
      </trkpt>
      <trkpt lat="45.26787" lon="0.35371">
        <ele>112</ele>
        <time>2015-10-06T12:31:18Z</time>
      </trkpt>
      <trkpt lat="45.2679" lon="0.35367">
        <ele>111</ele>
        <time>2015-10-06T12:31:24Z</time>
      </trkpt>
      <trkpt lat="45.26792" lon="0.35361">
        <ele>113</ele>
        <time>2015-10-06T12:31:28Z</time>
      </trkpt>
      <trkpt lat="45.26797" lon="0.35351">
        <ele>113</ele>
        <time>2015-10-06T12:31:33Z</time>
      </trkpt>
      <trkpt lat="45.26801" lon="0.35345">
        <ele>112</ele>
        <time>2015-10-06T12:31:38Z</time>
      </trkpt>
      <trkpt lat="45.26804" lon="0.35341">
        <ele>113</ele>
        <time>2015-10-06T12:31:42Z</time>
      </trkpt>
      <trkpt lat="45.26808" lon="0.35335">
        <ele>114</ele>
        <time>2015-10-06T12:31:46Z</time>
      </trkpt>
      <trkpt lat="45.26811" lon="0.35327">
        <ele>117</ele>
        <time>2015-10-06T12:31:51Z</time>
      </trkpt>
      <trkpt lat="45.26814" lon="0.35322">
        <ele>117</ele>
        <time>2015-10-06T12:31:56Z</time>
      </trkpt>
      <trkpt lat="45.26816" lon="0.35319">
        <ele>115</ele>
        <time>2015-10-06T12:32:04Z</time>
      </trkpt>
      <trkpt lat="45.26818" lon="0.35312">
        <ele>115</ele>
        <time>2015-10-06T12:32:09Z</time>
      </trkpt>
      <trkpt lat="45.2682" lon="0.35306">
        <ele>114</ele>
        <time>2015-10-06T12:32:13Z</time>
      </trkpt>
      <trkpt lat="45.26822" lon="0.35302">
        <ele>114</ele>
        <time>2015-10-06T12:32:18Z</time>
      </trkpt>
      <trkpt lat="45.26824" lon="0.35296">
        <ele>115</ele>
        <time>2015-10-06T12:32:22Z</time>
      </trkpt>
      <trkpt lat="45.26829" lon="0.35288">
        <ele>117</ele>
        <time>2015-10-06T12:32:27Z</time>
      </trkpt>
      <trkpt lat="45.26831" lon="0.35283">
        <ele>115</ele>
        <time>2015-10-06T12:32:31Z</time>
      </trkpt>
      <trkpt lat="45.26833" lon="0.35278">
        <ele>117</ele>
        <time>2015-10-06T12:32:36Z</time>
      </trkpt>
      <trkpt lat="45.26835" lon="0.35274">
        <ele>118</ele>
        <time>2015-10-06T12:32:41Z</time>
      </trkpt>
      <trkpt lat="45.26839" lon="0.35268">
        <ele>118</ele>
        <time>2015-10-06T12:32:45Z</time>
      </trkpt>
      <trkpt lat="45.26841" lon="0.35259">
        <ele>114</ele>
        <time>2015-10-06T12:32:50Z</time>
      </trkpt>
      <trkpt lat="45.26844" lon="0.35254">
        <ele>116</ele>
        <time>2015-10-06T12:32:55Z</time>
      </trkpt>
      <trkpt lat="45.26849" lon="0.35241">
        <ele>119</ele>
        <time>2015-10-06T12:33:00Z</time>
      </trkpt>
      <trkpt lat="45.26852" lon="0.35236">
        <ele>118</ele>
        <time>2015-10-06T12:33:04Z</time>
      </trkpt>
      <trkpt lat="45.26855" lon="0.3523">
        <ele>118</ele>
        <time>2015-10-06T12:33:09Z</time>
      </trkpt>
      <trkpt lat="45.26858" lon="0.35225">
        <ele>118</ele>
        <time>2015-10-06T12:33:13Z</time>
      </trkpt>
      <trkpt lat="45.2686" lon="0.35218">
        <ele>118</ele>
        <time>2015-10-06T12:33:18Z</time>
      </trkpt>
      <trkpt lat="45.26863" lon="0.35214">
        <ele>117</ele>
        <time>2015-10-06T12:33:22Z</time>
      </trkpt>
      <trkpt lat="45.26866" lon="0.35209">
        <ele>116</ele>
        <time>2015-10-06T12:33:27Z</time>
      </trkpt>
      <trkpt lat="45.26868" lon="0.35205">
        <ele>115</ele>
        <time>2015-10-06T12:33:32Z</time>
      </trkpt>
      <trkpt lat="45.26873" lon="0.35197">
        <ele>116</ele>
        <time>2015-10-06T12:33:37Z</time>
      </trkpt>
      <trkpt lat="45.26876" lon="0.35194">
        <ele>115</ele>
        <time>2015-10-06T12:33:43Z</time>
      </trkpt>
      <trkpt lat="45.26881" lon="0.35189">
        <ele>116</ele>
        <time>2015-10-06T12:33:47Z</time>
      </trkpt>
      <trkpt lat="45.26884" lon="0.35186">
        <ele>118</ele>
        <time>2015-10-06T12:33:53Z</time>
      </trkpt>
      <trkpt lat="45.26888" lon="0.35183">
        <ele>120</ele>
        <time>2015-10-06T12:33:59Z</time>
      </trkpt>
      <trkpt lat="45.26892" lon="0.35179">
        <ele>122</ele>
        <time>2015-10-06T12:34:06Z</time>
      </trkpt>
      <trkpt lat="45.26895" lon="0.35177">
        <ele>124</ele>
        <time>2015-10-06T12:34:13Z</time>
      </trkpt>
      <trkpt lat="45.26899" lon="0.35176">
        <ele>125</ele>
        <time>2015-10-06T12:34:17Z</time>
      </trkpt>
      <trkpt lat="45.26903" lon="0.35172">
        <ele>127</ele>
        <time>2015-10-06T12:34:22Z</time>
      </trkpt>
      <trkpt lat="45.26904" lon="0.35166">
        <ele>123</ele>
        <time>2015-10-06T12:34:26Z</time>
      </trkpt>
      <trkpt lat="45.26905" lon="0.35159">
        <ele>119</ele>
        <time>2015-10-06T12:34:34Z</time>
      </trkpt>
      <trkpt lat="45.26909" lon="0.35156">
        <ele>119</ele>
        <time>2015-10-06T12:34:38Z</time>
      </trkpt>
      <trkpt lat="45.26914" lon="0.35152">
        <ele>120</ele>
        <time>2015-10-06T12:34:42Z</time>
      </trkpt>
      <trkpt lat="45.26919" lon="0.35149">
        <ele>123</ele>
        <time>2015-10-06T12:34:47Z</time>
      </trkpt>
      <trkpt lat="45.26923" lon="0.35146">
        <ele>125</ele>
        <time>2015-10-06T12:34:52Z</time>
      </trkpt>
      <trkpt lat="45.26927" lon="0.35143">
        <ele>126</ele>
        <time>2015-10-06T12:34:56Z</time>
      </trkpt>
      <trkpt lat="45.2693" lon="0.3514">
        <ele>128</ele>
        <time>2015-10-06T12:35:02Z</time>
      </trkpt>
      <trkpt lat="45.26934" lon="0.35137">
        <ele>128</ele>
        <time>2015-10-06T12:35:07Z</time>
      </trkpt>
      <trkpt lat="45.26938" lon="0.35135">
        <ele>128</ele>
        <time>2015-10-06T12:35:11Z</time>
      </trkpt>
      <trkpt lat="45.26941" lon="0.35133">
        <ele>128</ele>
        <time>2015-10-06T12:35:15Z</time>
      </trkpt>
      <trkpt lat="45.26944" lon="0.3513">
        <ele>129</ele>
        <time>2015-10-06T12:35:19Z</time>
      </trkpt>
      <trkpt lat="45.26947" lon="0.35128">
        <ele>129</ele>
        <time>2015-10-06T12:35:25Z</time>
      </trkpt>
      <trkpt lat="45.26952" lon="0.35121">
        <ele>130</ele>
        <time>2015-10-06T12:35:30Z</time>
      </trkpt>
      <trkpt lat="45.26957" lon="0.35118">
        <ele>131</ele>
        <time>2015-10-06T12:35:34Z</time>
      </trkpt>
      <trkpt lat="45.26961" lon="0.35109">
        <ele>131</ele>
        <time>2015-10-06T12:35:39Z</time>
      </trkpt>
      <trkpt lat="45.26963" lon="0.35105">
        <ele>131</ele>
        <time>2015-10-06T12:35:43Z</time>
      </trkpt>
      <trkpt lat="45.26966" lon="0.351">
        <ele>131</ele>
        <time>2015-10-06T12:35:46Z</time>
      </trkpt>
      <trkpt lat="45.26969" lon="0.35097">
        <ele>130</ele>
        <time>2015-10-06T12:35:50Z</time>
      </trkpt>
      <trkpt lat="45.26973" lon="0.35096">
        <ele>131</ele>
        <time>2015-10-06T12:35:55Z</time>
      </trkpt>
      <trkpt lat="45.26976" lon="0.35092">
        <ele>133</ele>
        <time>2015-10-06T12:35:59Z</time>
      </trkpt>
      <trkpt lat="45.26981" lon="0.35088">
        <ele>130</ele>
        <time>2015-10-06T12:36:04Z</time>
      </trkpt>
      <trkpt lat="45.26985" lon="0.35084">
        <ele>130</ele>
        <time>2015-10-06T12:36:08Z</time>
      </trkpt>
      <trkpt lat="45.26989" lon="0.35083">
        <ele>132</ele>
        <time>2015-10-06T12:36:13Z</time>
      </trkpt>
      <trkpt lat="45.26994" lon="0.35078">
        <ele>132</ele>
        <time>2015-10-06T12:36:18Z</time>
      </trkpt>
      <trkpt lat="45.26997" lon="0.35077">
        <ele>134</ele>
        <time>2015-10-06T12:36:23Z</time>
      </trkpt>
      <trkpt lat="45.27001" lon="0.35075">
        <ele>134</ele>
        <time>2015-10-06T12:36:27Z</time>
      </trkpt>
      <trkpt lat="45.27006" lon="0.3507">
        <ele>135</ele>
        <time>2015-10-06T12:36:32Z</time>
      </trkpt>
      <trkpt lat="45.2701" lon="0.35066">
        <ele>134</ele>
        <time>2015-10-06T12:36:36Z</time>
      </trkpt>
      <trkpt lat="45.27016" lon="0.35062">
        <ele>134</ele>
        <time>2015-10-06T12:36:41Z</time>
      </trkpt>
      <trkpt lat="45.2702" lon="0.35057">
        <ele>134</ele>
        <time>2015-10-06T12:36:45Z</time>
      </trkpt>
      <trkpt lat="45.27024" lon="0.35055">
        <ele>134</ele>
        <time>2015-10-06T12:36:49Z</time>
      </trkpt>
      <trkpt lat="45.27028" lon="0.35053">
        <ele>134</ele>
        <time>2015-10-06T12:36:53Z</time>
      </trkpt>
      <trkpt lat="45.27035" lon="0.35051">
        <ele>134</ele>
        <time>2015-10-06T12:36:58Z</time>
      </trkpt>
      <trkpt lat="45.27039" lon="0.35049">
        <ele>134</ele>
        <time>2015-10-06T12:37:02Z</time>
      </trkpt>
      <trkpt lat="45.27043" lon="0.35048">
        <ele>135</ele>
        <time>2015-10-06T12:37:06Z</time>
      </trkpt>
      <trkpt lat="45.27044" lon="0.35047">
        <ele>134</ele>
        <time>2015-10-06T12:37:12Z</time>
      </trkpt>
      <trkpt lat="45.2705" lon="0.35041">
        <ele>129</ele>
        <time>2015-10-06T12:37:17Z</time>
      </trkpt>
      <trkpt lat="45.27053" lon="0.35036">
        <ele>127</ele>
        <time>2015-10-06T12:37:56Z</time>
      </trkpt>
      <trkpt lat="45.27056" lon="0.35032">
        <ele>129</ele>
        <time>2015-10-06T12:39:37Z</time>
      </trkpt>
      <trkpt lat="45.27057" lon="0.35027">
        <ele>128</ele>
        <time>2015-10-06T12:39:42Z</time>
      </trkpt>
      <trkpt lat="45.27053" lon="0.35021">
        <ele>128</ele>
        <time>2015-10-06T12:39:47Z</time>
      </trkpt>
      <trkpt lat="45.2705" lon="0.35018">
        <ele>127</ele>
        <time>2015-10-06T12:39:51Z</time>
      </trkpt>
      <trkpt lat="45.27047" lon="0.35014">
        <ele>127</ele>
        <time>2015-10-06T12:39:56Z</time>
      </trkpt>
      <trkpt lat="45.27043" lon="0.3501">
        <ele>128</ele>
        <time>2015-10-06T12:40:01Z</time>
      </trkpt>
      <trkpt lat="45.27041" lon="0.35006">
        <ele>128</ele>
        <time>2015-10-06T12:40:06Z</time>
      </trkpt>
      <trkpt lat="45.27036" lon="0.35003">
        <ele>128</ele>
        <time>2015-10-06T12:40:11Z</time>
      </trkpt>
      <trkpt lat="45.27032" lon="0.35">
        <ele>129</ele>
        <time>2015-10-06T12:40:16Z</time>
      </trkpt>
      <trkpt lat="45.27028" lon="0.34998">
        <ele>128</ele>
        <time>2015-10-06T12:40:20Z</time>
      </trkpt>
      <trkpt lat="45.27022" lon="0.34994">
        <ele>128</ele>
        <time>2015-10-06T12:40:25Z</time>
      </trkpt>
      <trkpt lat="45.27017" lon="0.3499">
        <ele>128</ele>
        <time>2015-10-06T12:40:30Z</time>
      </trkpt>
      <trkpt lat="45.27012" lon="0.34985">
        <ele>128</ele>
        <time>2015-10-06T12:40:35Z</time>
      </trkpt>
      <trkpt lat="45.27008" lon="0.34982">
        <ele>128</ele>
        <time>2015-10-06T12:40:40Z</time>
      </trkpt>
      <trkpt lat="45.27004" lon="0.3498">
        <ele>128</ele>
        <time>2015-10-06T12:40:44Z</time>
      </trkpt>
      <trkpt lat="45.27" lon="0.34977">
        <ele>129</ele>
        <time>2015-10-06T12:40:48Z</time>
      </trkpt>
      <trkpt lat="45.26996" lon="0.34972">
        <ele>129</ele>
        <time>2015-10-06T12:40:53Z</time>
      </trkpt>
      <trkpt lat="45.26992" lon="0.34969">
        <ele>128</ele>
        <time>2015-10-06T12:40:57Z</time>
      </trkpt>
      <trkpt lat="45.26988" lon="0.34966">
        <ele>128</ele>
        <time>2015-10-06T12:41:01Z</time>
      </trkpt>
      <trkpt lat="45.26983" lon="0.34963">
        <ele>128</ele>
        <time>2015-10-06T12:41:06Z</time>
      </trkpt>
      <trkpt lat="45.26978" lon="0.3496">
        <ele>126</ele>
        <time>2015-10-06T12:41:10Z</time>
      </trkpt>
      <trkpt lat="45.26974" lon="0.34957">
        <ele>126</ele>
        <time>2015-10-06T12:41:14Z</time>
      </trkpt>
      <trkpt lat="45.26969" lon="0.34953">
        <ele>127</ele>
        <time>2015-10-06T12:41:19Z</time>
      </trkpt>
      <trkpt lat="45.26966" lon="0.3495">
        <ele>128</ele>
        <time>2015-10-06T12:41:23Z</time>
      </trkpt>
      <trkpt lat="45.26961" lon="0.34949">
        <ele>128</ele>
        <time>2015-10-06T12:41:27Z</time>
      </trkpt>
      <trkpt lat="45.26957" lon="0.34946">
        <ele>129</ele>
        <time>2015-10-06T12:41:32Z</time>
      </trkpt>
      <trkpt lat="45.26951" lon="0.34944">
        <ele>130</ele>
        <time>2015-10-06T12:41:36Z</time>
      </trkpt>
      <trkpt lat="45.26947" lon="0.34941">
        <ele>130</ele>
        <time>2015-10-06T12:41:40Z</time>
      </trkpt>
      <trkpt lat="45.26942" lon="0.34938">
        <ele>129</ele>
        <time>2015-10-06T12:41:45Z</time>
      </trkpt>
      <trkpt lat="45.26936" lon="0.34935">
        <ele>128</ele>
        <time>2015-10-06T12:41:50Z</time>
      </trkpt>
      <trkpt lat="45.26931" lon="0.34934">
        <ele>127</ele>
        <time>2015-10-06T12:41:53Z</time>
      </trkpt>
      <trkpt lat="45.26925" lon="0.34932">
        <ele>128</ele>
        <time>2015-10-06T12:41:58Z</time>
      </trkpt>
      <trkpt lat="45.2692" lon="0.34929">
        <ele>128</ele>
        <time>2015-10-06T12:42:02Z</time>
      </trkpt>
      <trkpt lat="45.26917" lon="0.34928">
        <ele>129</ele>
        <time>2015-10-06T12:42:04Z</time>
      </trkpt>
      <trkpt lat="45.26912" lon="0.34928">
        <ele>130</ele>
        <time>2015-10-06T12:42:09Z</time>
      </trkpt>
      <trkpt lat="45.26906" lon="0.34925">
        <ele>128</ele>
        <time>2015-10-06T12:42:14Z</time>
      </trkpt>
      <trkpt lat="45.26907" lon="0.34919">
        <ele>128</ele>
        <time>2015-10-06T12:42:21Z</time>
      </trkpt>
      <trkpt lat="45.26909" lon="0.34913">
        <ele>130</ele>
        <time>2015-10-06T12:42:25Z</time>
      </trkpt>
      <trkpt lat="45.2691" lon="0.34905">
        <ele>130</ele>
        <time>2015-10-06T12:42:30Z</time>
      </trkpt>
      <trkpt lat="45.26912" lon="0.349">
        <ele>130</ele>
        <time>2015-10-06T12:42:34Z</time>
      </trkpt>
      <trkpt lat="45.26914" lon="0.34894">
        <ele>131</ele>
        <time>2015-10-06T12:42:38Z</time>
      </trkpt>
      <trkpt lat="45.26915" lon="0.34887">
        <ele>131</ele>
        <time>2015-10-06T12:42:43Z</time>
      </trkpt>
      <trkpt lat="45.26915" lon="0.34881">
        <ele>131</ele>
        <time>2015-10-06T12:42:47Z</time>
      </trkpt>
      <trkpt lat="45.26916" lon="0.34875">
        <ele>131</ele>
        <time>2015-10-06T12:42:52Z</time>
      </trkpt>
      <trkpt lat="45.2692" lon="0.34871">
        <ele>132</ele>
        <time>2015-10-06T12:42:57Z</time>
      </trkpt>
      <trkpt lat="45.26924" lon="0.3487">
        <ele>131</ele>
        <time>2015-10-06T12:43:01Z</time>
      </trkpt>
      <trkpt lat="45.26928" lon="0.34869">
        <ele>130</ele>
        <time>2015-10-06T12:43:06Z</time>
      </trkpt>
      <trkpt lat="45.26934" lon="0.34871">
        <ele>130</ele>
        <time>2015-10-06T12:43:11Z</time>
      </trkpt>
      <trkpt lat="45.26938" lon="0.34871">
        <ele>130</ele>
        <time>2015-10-06T12:43:15Z</time>
      </trkpt>
      <trkpt lat="45.26943" lon="0.34873">
        <ele>130</ele>
        <time>2015-10-06T12:43:20Z</time>
      </trkpt>
      <trkpt lat="45.26948" lon="0.34872">
        <ele>128</ele>
        <time>2015-10-06T12:43:24Z</time>
      </trkpt>
      <trkpt lat="45.26954" lon="0.34872">
        <ele>126</ele>
        <time>2015-10-06T12:43:29Z</time>
      </trkpt>
      <trkpt lat="45.26959" lon="0.34869">
        <ele>124</ele>
        <time>2015-10-06T12:43:34Z</time>
      </trkpt>
      <trkpt lat="45.26964" lon="0.34867">
        <ele>126</ele>
        <time>2015-10-06T12:43:38Z</time>
      </trkpt>
      <trkpt lat="45.26968" lon="0.34861">
        <ele>123</ele>
        <time>2015-10-06T12:43:42Z</time>
      </trkpt>
      <trkpt lat="45.2697" lon="0.34854">
        <ele>120</ele>
        <time>2015-10-06T12:43:46Z</time>
      </trkpt>
      <trkpt lat="45.26973" lon="0.34848">
        <ele>120</ele>
        <time>2015-10-06T12:43:50Z</time>
      </trkpt>
      <trkpt lat="45.26975" lon="0.34843">
        <ele>117</ele>
        <time>2015-10-06T12:43:55Z</time>
      </trkpt>
      <trkpt lat="45.26978" lon="0.34837">
        <ele>118</ele>
        <time>2015-10-06T12:43:59Z</time>
      </trkpt>
      <trkpt lat="45.26981" lon="0.34831">
        <ele>118</ele>
        <time>2015-10-06T12:44:03Z</time>
      </trkpt>
      <trkpt lat="45.26985" lon="0.34825">
        <ele>120</ele>
        <time>2015-10-06T12:44:08Z</time>
      </trkpt>
      <trkpt lat="45.26987" lon="0.3482">
        <ele>121</ele>
        <time>2015-10-06T12:44:12Z</time>
      </trkpt>
      <trkpt lat="45.2699" lon="0.34812">
        <ele>122</ele>
        <time>2015-10-06T12:44:17Z</time>
      </trkpt>
      <trkpt lat="45.26993" lon="0.34806">
        <ele>122</ele>
        <time>2015-10-06T12:44:21Z</time>
      </trkpt>
      <trkpt lat="45.26996" lon="0.34801">
        <ele>124</ele>
        <time>2015-10-06T12:44:25Z</time>
      </trkpt>
      <trkpt lat="45.26999" lon="0.34795">
        <ele>123</ele>
        <time>2015-10-06T12:44:29Z</time>
      </trkpt>
      <trkpt lat="45.27" lon="0.3479">
        <ele>122</ele>
        <time>2015-10-06T12:44:33Z</time>
      </trkpt>
      <trkpt lat="45.27003" lon="0.34783">
        <ele>123</ele>
        <time>2015-10-06T12:44:37Z</time>
      </trkpt>
      <trkpt lat="45.27006" lon="0.34776">
        <ele>122</ele>
        <time>2015-10-06T12:44:42Z</time>
      </trkpt>
      <trkpt lat="45.27009" lon="0.34771">
        <ele>122</ele>
        <time>2015-10-06T12:44:46Z</time>
      </trkpt>
      <trkpt lat="45.27011" lon="0.34767">
        <ele>122</ele>
        <time>2015-10-06T12:44:51Z</time>
      </trkpt>
      <trkpt lat="45.27013" lon="0.3476">
        <ele>120</ele>
        <time>2015-10-06T12:44:56Z</time>
      </trkpt>
      <trkpt lat="45.27015" lon="0.34753">
        <ele>119</ele>
        <time>2015-10-06T12:45:01Z</time>
      </trkpt>
      <trkpt lat="45.27017" lon="0.34749">
        <ele>120</ele>
        <time>2015-10-06T12:45:15Z</time>
      </trkpt>
      <trkpt lat="45.27019" lon="0.34744">
        <ele>121</ele>
        <time>2015-10-06T12:45:21Z</time>
      </trkpt>
      <trkpt lat="45.2702" lon="0.34738">
        <ele>120</ele>
        <time>2015-10-06T12:45:34Z</time>
      </trkpt>
      <trkpt lat="45.27023" lon="0.34727">
        <ele>119</ele>
        <time>2015-10-06T12:45:38Z</time>
      </trkpt>
      <trkpt lat="45.27023" lon="0.3472">
        <ele>118</ele>
        <time>2015-10-06T12:45:42Z</time>
      </trkpt>
      <trkpt lat="45.27025" lon="0.34714">
        <ele>116</ele>
        <time>2015-10-06T12:45:47Z</time>
      </trkpt>
      <trkpt lat="45.27025" lon="0.34708">
        <ele>115</ele>
        <time>2015-10-06T12:45:53Z</time>
      </trkpt>
      <trkpt lat="45.27025" lon="0.34702">
        <ele>108</ele>
        <time>2015-10-06T12:45:58Z</time>
      </trkpt>
      <trkpt lat="45.27026" lon="0.34697">
        <ele>107</ele>
        <time>2015-10-06T12:46:02Z</time>
      </trkpt>
      <trkpt lat="45.27028" lon="0.34691">
        <ele>106</ele>
        <time>2015-10-06T12:46:07Z</time>
      </trkpt>
      <trkpt lat="45.27029" lon="0.34685">
        <ele>104</ele>
        <time>2015-10-06T12:46:19Z</time>
      </trkpt>
      <trkpt lat="45.27031" lon="0.3468">
        <ele>103</ele>
        <time>2015-10-06T12:46:26Z</time>
      </trkpt>
      <trkpt lat="45.27033" lon="0.34675">
        <ele>102</ele>
        <time>2015-10-06T12:46:32Z</time>
      </trkpt>
      <trkpt lat="45.27036" lon="0.34671">
        <ele>103</ele>
        <time>2015-10-06T12:46:37Z</time>
      </trkpt>
      <trkpt lat="45.2704" lon="0.34667">
        <ele>103</ele>
        <time>2015-10-06T12:46:43Z</time>
      </trkpt>
      <trkpt lat="45.27043" lon="0.34665">
        <ele>103</ele>
        <time>2015-10-06T12:46:47Z</time>
      </trkpt>
      <trkpt lat="45.27047" lon="0.34663">
        <ele>103</ele>
        <time>2015-10-06T12:46:52Z</time>
      </trkpt>
      <trkpt lat="45.2705" lon="0.34659">
        <ele>102</ele>
        <time>2015-10-06T12:47:04Z</time>
      </trkpt>
      <trkpt lat="45.27053" lon="0.34656">
        <ele>101</ele>
        <time>2015-10-06T12:47:08Z</time>
      </trkpt>
      <trkpt lat="45.27058" lon="0.34656">
        <ele>102</ele>
        <time>2015-10-06T12:47:13Z</time>
      </trkpt>
      <trkpt lat="45.27062" lon="0.34653">
        <ele>102</ele>
        <time>2015-10-06T12:47:17Z</time>
      </trkpt>
      <trkpt lat="45.27066" lon="0.34652">
        <ele>101</ele>
        <time>2015-10-06T12:47:22Z</time>
      </trkpt>
      <trkpt lat="45.27069" lon="0.34651">
        <ele>101</ele>
        <time>2015-10-06T12:47:26Z</time>
      </trkpt>
      <trkpt lat="45.27074" lon="0.3465">
        <ele>99</ele>
        <time>2015-10-06T12:47:31Z</time>
      </trkpt>
      <trkpt lat="45.27077" lon="0.34646">
        <ele>97</ele>
        <time>2015-10-06T12:47:38Z</time>
      </trkpt>
      <trkpt lat="45.27081" lon="0.34643">
        <ele>95</ele>
        <time>2015-10-06T12:47:43Z</time>
      </trkpt>
      <trkpt lat="45.27085" lon="0.3464">
        <ele>95</ele>
        <time>2015-10-06T12:47:48Z</time>
      </trkpt>
      <trkpt lat="45.27089" lon="0.34639">
        <ele>95</ele>
        <time>2015-10-06T12:47:54Z</time>
      </trkpt>
      <trkpt lat="45.27093" lon="0.3464">
        <ele>91</ele>
        <time>2015-10-06T12:48:00Z</time>
      </trkpt>
      <trkpt lat="45.27097" lon="0.34637">
        <ele>91</ele>
        <time>2015-10-06T12:48:07Z</time>
      </trkpt>
      <trkpt lat="45.271" lon="0.34632">
        <ele>91</ele>
        <time>2015-10-06T12:48:13Z</time>
      </trkpt>
      <trkpt lat="45.27104" lon="0.34628">
        <ele>90</ele>
        <time>2015-10-06T12:48:18Z</time>
      </trkpt>
      <trkpt lat="45.27111" lon="0.3463">
        <ele>87</ele>
        <time>2015-10-06T12:48:23Z</time>
      </trkpt>
      <trkpt lat="45.27111" lon="0.34625">
        <ele>86</ele>
        <time>2015-10-06T12:49:02Z</time>
      </trkpt>
      <trkpt lat="45.27113" lon="0.34619">
        <ele>88</ele>
        <time>2015-10-06T12:49:06Z</time>
      </trkpt>
      <trkpt lat="45.27117" lon="0.34611">
        <ele>87</ele>
        <time>2015-10-06T12:49:11Z</time>
      </trkpt>
      <trkpt lat="45.27119" lon="0.34602">
        <ele>82</ele>
        <time>2015-10-06T12:49:16Z</time>
      </trkpt>
      <trkpt lat="45.27121" lon="0.34596">
        <ele>82</ele>
        <time>2015-10-06T12:49:19Z</time>
      </trkpt>
      <trkpt lat="45.27122" lon="0.34589">
        <ele>83</ele>
        <time>2015-10-06T12:49:23Z</time>
      </trkpt>
      <trkpt lat="45.27124" lon="0.34579">
        <ele>81</ele>
        <time>2015-10-06T12:49:28Z</time>
      </trkpt>
      <trkpt lat="45.27124" lon="0.34574">
        <ele>80</ele>
        <time>2015-10-06T12:49:32Z</time>
      </trkpt>
      <trkpt lat="45.27124" lon="0.34566">
        <ele>81</ele>
        <time>2015-10-06T12:49:36Z</time>
      </trkpt>
      <trkpt lat="45.27124" lon="0.34557">
        <ele>81</ele>
        <time>2015-10-06T12:49:40Z</time>
      </trkpt>
      <trkpt lat="45.27123" lon="0.34548">
        <ele>83</ele>
        <time>2015-10-06T12:49:45Z</time>
      </trkpt>
      <trkpt lat="45.2712" lon="0.34539">
        <ele>84</ele>
        <time>2015-10-06T12:49:50Z</time>
      </trkpt>
      <trkpt lat="45.27119" lon="0.34531">
        <ele>88</ele>
        <time>2015-10-06T12:49:54Z</time>
      </trkpt>
      <trkpt lat="45.27117" lon="0.34522">
        <ele>90</ele>
        <time>2015-10-06T12:49:58Z</time>
      </trkpt>
      <trkpt lat="45.27113" lon="0.34516">
        <ele>90</ele>
        <time>2015-10-06T12:50:02Z</time>
      </trkpt>
      <trkpt lat="45.27111" lon="0.3451">
        <ele>92</ele>
        <time>2015-10-06T12:50:07Z</time>
      </trkpt>
      <trkpt lat="45.27109" lon="0.34505">
        <ele>91</ele>
        <time>2015-10-06T12:50:13Z</time>
      </trkpt>
      <trkpt lat="45.27106" lon="0.345">
        <ele>91</ele>
        <time>2015-10-06T12:50:19Z</time>
      </trkpt>
      <trkpt lat="45.27102" lon="0.34495">
        <ele>91</ele>
        <time>2015-10-06T12:50:24Z</time>
      </trkpt>
      <trkpt lat="45.27099" lon="0.34491">
        <ele>93</ele>
        <time>2015-10-06T12:50:28Z</time>
      </trkpt>
      <trkpt lat="45.27097" lon="0.34486">
        <ele>94</ele>
        <time>2015-10-06T12:50:33Z</time>
      </trkpt>
      <trkpt lat="45.27095" lon="0.34482">
        <ele>97</ele>
        <time>2015-10-06T12:50:44Z</time>
      </trkpt>
      <trkpt lat="45.27089" lon="0.34475">
        <ele>94</ele>
        <time>2015-10-06T12:50:49Z</time>
      </trkpt>
      <trkpt lat="45.27089" lon="0.34469">
        <ele>95</ele>
        <time>2015-10-06T12:50:54Z</time>
      </trkpt>
      <trkpt lat="45.27087" lon="0.34464">
        <ele>97</ele>
        <time>2015-10-06T12:50:59Z</time>
      </trkpt>
      <trkpt lat="45.27084" lon="0.34459">
        <ele>98</ele>
        <time>2015-10-06T12:51:04Z</time>
      </trkpt>
      <trkpt lat="45.27081" lon="0.34454">
        <ele>99</ele>
        <time>2015-10-06T12:51:08Z</time>
      </trkpt>
      <trkpt lat="45.2708" lon="0.34449">
        <ele>100</ele>
        <time>2015-10-06T12:51:17Z</time>
      </trkpt>
      <trkpt lat="45.27077" lon="0.34445">
        <ele>102</ele>
        <time>2015-10-06T12:51:22Z</time>
      </trkpt>
      <trkpt lat="45.27073" lon="0.34439">
        <ele>102</ele>
        <time>2015-10-06T12:51:27Z</time>
      </trkpt>
      <trkpt lat="45.27071" lon="0.34432">
        <ele>103</ele>
        <time>2015-10-06T12:51:32Z</time>
      </trkpt>
      <trkpt lat="45.27069" lon="0.34428">
        <ele>103</ele>
        <time>2015-10-06T12:51:41Z</time>
      </trkpt>
      <trkpt lat="45.27065" lon="0.34421">
        <ele>105</ele>
        <time>2015-10-06T12:51:45Z</time>
      </trkpt>
      <trkpt lat="45.27063" lon="0.34416">
        <ele>106</ele>
        <time>2015-10-06T12:51:51Z</time>
      </trkpt>
      <trkpt lat="45.27062" lon="0.34412">
        <ele>107</ele>
        <time>2015-10-06T12:51:56Z</time>
      </trkpt>
      <trkpt lat="45.27061" lon="0.34403">
        <ele>107</ele>
        <time>2015-10-06T12:52:01Z</time>
      </trkpt>
      <trkpt lat="45.27062" lon="0.34396">
        <ele>107</ele>
        <time>2015-10-06T12:52:06Z</time>
      </trkpt>
      <trkpt lat="45.27063" lon="0.34392">
        <ele>108</ele>
        <time>2015-10-06T12:52:15Z</time>
      </trkpt>
      <trkpt lat="45.27064" lon="0.34384">
        <ele>105</ele>
        <time>2015-10-06T12:52:20Z</time>
      </trkpt>
      <trkpt lat="45.27065" lon="0.34378">
        <ele>104</ele>
        <time>2015-10-06T12:52:25Z</time>
      </trkpt>
      <trkpt lat="45.27068" lon="0.34374">
        <ele>104</ele>
        <time>2015-10-06T12:52:30Z</time>
      </trkpt>
      <trkpt lat="45.27072" lon="0.34373">
        <ele>106</ele>
        <time>2015-10-06T12:52:35Z</time>
      </trkpt>
      <trkpt lat="45.27077" lon="0.34372">
        <ele>108</ele>
        <time>2015-10-06T12:52:40Z</time>
      </trkpt>
      <trkpt lat="45.27088" lon="0.34373">
        <ele>109</ele>
        <time>2015-10-06T12:52:51Z</time>
      </trkpt>
      <trkpt lat="45.27092" lon="0.34372">
        <ele>110</ele>
        <time>2015-10-06T12:52:56Z</time>
      </trkpt>
      <trkpt lat="45.27097" lon="0.34375">
        <ele>113</ele>
        <time>2015-10-06T12:53:01Z</time>
      </trkpt>
      <trkpt lat="45.27103" lon="0.34376">
        <ele>113</ele>
        <time>2015-10-06T12:53:06Z</time>
      </trkpt>
      <trkpt lat="45.27107" lon="0.34377">
        <ele>111</ele>
        <time>2015-10-06T12:53:11Z</time>
      </trkpt>
      <trkpt lat="45.27111" lon="0.34378">
        <ele>110</ele>
        <time>2015-10-06T12:53:15Z</time>
      </trkpt>
      <trkpt lat="45.27115" lon="0.34377">
        <ele>111</ele>
        <time>2015-10-06T12:53:20Z</time>
      </trkpt>
      <trkpt lat="45.27118" lon="0.34372">
        <ele>109</ele>
        <time>2015-10-06T12:53:46Z</time>
      </trkpt>
      <trkpt lat="45.2712" lon="0.34368">
        <ele>108</ele>
        <time>2015-10-06T12:54:12Z</time>
      </trkpt>
      <trkpt lat="45.27122" lon="0.34363">
        <ele>108</ele>
        <time>2015-10-06T12:54:16Z</time>
      </trkpt>
      <trkpt lat="45.27125" lon="0.34358">
        <ele>110</ele>
        <time>2015-10-06T12:54:21Z</time>
      </trkpt>
      <trkpt lat="45.27126" lon="0.34352">
        <ele>110</ele>
        <time>2015-10-06T12:54:26Z</time>
      </trkpt>
      <trkpt lat="45.27128" lon="0.34346">
        <ele>111</ele>
        <time>2015-10-06T12:54:31Z</time>
      </trkpt>
      <trkpt lat="45.27129" lon="0.34341">
        <ele>113</ele>
        <time>2015-10-06T12:54:36Z</time>
      </trkpt>
      <trkpt lat="45.27131" lon="0.34337">
        <ele>113</ele>
        <time>2015-10-06T12:54:40Z</time>
      </trkpt>
      <trkpt lat="45.27134" lon="0.34334">
        <ele>114</ele>
        <time>2015-10-06T12:55:00Z</time>
      </trkpt>
      <trkpt lat="45.27137" lon="0.34327">
        <ele>115</ele>
        <time>2015-10-06T12:55:05Z</time>
      </trkpt>
      <trkpt lat="45.27137" lon="0.34319">
        <ele>116</ele>
        <time>2015-10-06T12:55:10Z</time>
      </trkpt>
      <trkpt lat="45.27138" lon="0.34314">
        <ele>117</ele>
        <time>2015-10-06T12:55:14Z</time>
      </trkpt>
      <trkpt lat="45.2714" lon="0.34308">
        <ele>117</ele>
        <time>2015-10-06T12:55:19Z</time>
      </trkpt>
      <trkpt lat="45.27141" lon="0.34302">
        <ele>117</ele>
        <time>2015-10-06T12:55:29Z</time>
      </trkpt>
      <trkpt lat="45.27143" lon="0.34296">
        <ele>117</ele>
        <time>2015-10-06T12:55:46Z</time>
      </trkpt>
      <trkpt lat="45.27141" lon="0.34301">
        <ele>117</ele>
        <time>2015-10-06T12:58:09Z</time>
      </trkpt>
      <trkpt lat="45.27136" lon="0.34297">
        <ele>118</ele>
        <time>2015-10-06T12:58:14Z</time>
      </trkpt>
      <trkpt lat="45.27139" lon="0.34293">
        <ele>117</ele>
        <time>2015-10-06T13:00:06Z</time>
      </trkpt>
      <trkpt lat="45.27141" lon="0.34288">
        <ele>116</ele>
        <time>2015-10-06T13:00:11Z</time>
      </trkpt>
      <trkpt lat="45.27143" lon="0.34282">
        <ele>116</ele>
        <time>2015-10-06T13:00:24Z</time>
      </trkpt>
      <trkpt lat="45.27144" lon="0.34277">
        <ele>117</ele>
        <time>2015-10-06T13:00:28Z</time>
      </trkpt>
      <trkpt lat="45.27146" lon="0.34272">
        <ele>116</ele>
        <time>2015-10-06T13:00:38Z</time>
      </trkpt>
      <trkpt lat="45.27148" lon="0.34268">
        <ele>116</ele>
        <time>2015-10-06T13:00:44Z</time>
      </trkpt>
      <trkpt lat="45.27152" lon="0.34265">
        <ele>116</ele>
        <time>2015-10-06T13:01:16Z</time>
      </trkpt>
      <trkpt lat="45.27154" lon="0.34261">
        <ele>117</ele>
        <time>2015-10-06T13:01:20Z</time>
      </trkpt>
      <trkpt lat="45.27156" lon="0.34256">
        <ele>119</ele>
        <time>2015-10-06T13:01:26Z</time>
      </trkpt>
      <trkpt lat="45.27158" lon="0.34249">
        <ele>118</ele>
        <time>2015-10-06T13:01:29Z</time>
      </trkpt>
      <trkpt lat="45.27161" lon="0.34244">
        <ele>117</ele>
        <time>2015-10-06T13:01:33Z</time>
      </trkpt>
      <trkpt lat="45.27163" lon="0.34239">
        <ele>117</ele>
        <time>2015-10-06T13:01:37Z</time>
      </trkpt>
      <trkpt lat="45.27166" lon="0.34233">
        <ele>118</ele>
        <time>2015-10-06T13:01:41Z</time>
      </trkpt>
      <trkpt lat="45.27168" lon="0.34228">
        <ele>119</ele>
        <time>2015-10-06T13:01:45Z</time>
      </trkpt>
      <trkpt lat="45.27171" lon="0.34222">
        <ele>118</ele>
        <time>2015-10-06T13:01:49Z</time>
      </trkpt>
      <trkpt lat="45.27174" lon="0.34216">
        <ele>118</ele>
        <time>2015-10-06T13:01:54Z</time>
      </trkpt>
      <trkpt lat="45.27176" lon="0.34212">
        <ele>119</ele>
        <time>2015-10-06T13:01:59Z</time>
      </trkpt>
      <trkpt lat="45.27178" lon="0.34207">
        <ele>120</ele>
        <time>2015-10-06T13:02:04Z</time>
      </trkpt>
      <trkpt lat="45.27183" lon="0.34194">
        <ele>120</ele>
        <time>2015-10-06T13:02:08Z</time>
      </trkpt>
      <trkpt lat="45.27184" lon="0.3419">
        <ele>121</ele>
        <time>2015-10-06T13:02:13Z</time>
      </trkpt>
      <trkpt lat="45.27188" lon="0.34175">
        <ele>121</ele>
        <time>2015-10-06T13:02:18Z</time>
      </trkpt>
      <trkpt lat="45.2719" lon="0.34169">
        <ele>123</ele>
        <time>2015-10-06T13:02:22Z</time>
      </trkpt>
      <trkpt lat="45.2719" lon="0.34158">
        <ele>123</ele>
        <time>2015-10-06T13:02:27Z</time>
      </trkpt>
      <trkpt lat="45.2719" lon="0.34154">
        <ele>123</ele>
        <time>2015-10-06T13:02:32Z</time>
      </trkpt>
      <trkpt lat="45.27188" lon="0.34142">
        <ele>123</ele>
        <time>2015-10-06T13:02:36Z</time>
      </trkpt>
      <trkpt lat="45.27186" lon="0.34135">
        <ele>123</ele>
        <time>2015-10-06T13:02:40Z</time>
      </trkpt>
      <trkpt lat="45.27183" lon="0.34126">
        <ele>123</ele>
        <time>2015-10-06T13:02:45Z</time>
      </trkpt>
      <trkpt lat="45.27181" lon="0.3412">
        <ele>122</ele>
        <time>2015-10-06T13:02:49Z</time>
      </trkpt>
      <trkpt lat="45.27177" lon="0.34109">
        <ele>122</ele>
        <time>2015-10-06T13:02:54Z</time>
      </trkpt>
      <trkpt lat="45.27175" lon="0.34104">
        <ele>124</ele>
        <time>2015-10-06T13:02:58Z</time>
      </trkpt>
      <trkpt lat="45.27173" lon="0.34097">
        <ele>125</ele>
        <time>2015-10-06T13:03:03Z</time>
      </trkpt>
      <trkpt lat="45.2717" lon="0.34092">
        <ele>125</ele>
        <time>2015-10-06T13:03:09Z</time>
      </trkpt>
      <trkpt lat="45.27165" lon="0.34082">
        <ele>127</ele>
        <time>2015-10-06T13:03:13Z</time>
      </trkpt>
      <trkpt lat="45.27163" lon="0.34077">
        <ele>126</ele>
        <time>2015-10-06T13:03:18Z</time>
      </trkpt>
      <trkpt lat="45.27159" lon="0.34068">
        <ele>127</ele>
        <time>2015-10-06T13:03:22Z</time>
      </trkpt>
      <trkpt lat="45.27157" lon="0.3406">
        <ele>128</ele>
        <time>2015-10-06T13:03:27Z</time>
      </trkpt>
      <trkpt lat="45.27155" lon="0.34054">
        <ele>129</ele>
        <time>2015-10-06T13:03:31Z</time>
      </trkpt>
      <trkpt lat="45.27153" lon="0.34048">
        <ele>131</ele>
        <time>2015-10-06T13:03:36Z</time>
      </trkpt>
      <trkpt lat="45.27151" lon="0.34041">
        <ele>133</ele>
        <time>2015-10-06T13:03:40Z</time>
      </trkpt>
      <trkpt lat="45.27147" lon="0.34034">
        <ele>132</ele>
        <time>2015-10-06T13:03:44Z</time>
      </trkpt>
      <trkpt lat="45.27145" lon="0.34027">
        <ele>130</ele>
        <time>2015-10-06T13:03:48Z</time>
      </trkpt>
      <trkpt lat="45.27143" lon="0.34021">
        <ele>130</ele>
        <time>2015-10-06T13:03:52Z</time>
      </trkpt>
      <trkpt lat="45.2714" lon="0.34015">
        <ele>130</ele>
        <time>2015-10-06T13:03:56Z</time>
      </trkpt>
      <trkpt lat="45.27137" lon="0.34012">
        <ele>130</ele>
        <time>2015-10-06T13:04:00Z</time>
      </trkpt>
      <trkpt lat="45.27133" lon="0.34012">
        <ele>128</ele>
        <time>2015-10-06T13:04:22Z</time>
      </trkpt>
      <trkpt lat="45.27132" lon="0.34006">
        <ele>123</ele>
        <time>2015-10-06T13:05:32Z</time>
      </trkpt>
      <trkpt lat="45.27131" lon="0.34001">
        <ele>121</ele>
        <time>2015-10-06T13:06:22Z</time>
      </trkpt>
      <trkpt lat="45.27128" lon="0.33997">
        <ele>121</ele>
        <time>2015-10-06T13:06:27Z</time>
      </trkpt>
      <trkpt lat="45.27125" lon="0.33992">
        <ele>121</ele>
        <time>2015-10-06T13:06:31Z</time>
      </trkpt>
      <trkpt lat="45.27125" lon="0.33985">
        <ele>122</ele>
        <time>2015-10-06T13:06:36Z</time>
      </trkpt>
      <trkpt lat="45.27125" lon="0.33979">
        <ele>123</ele>
        <time>2015-10-06T13:06:41Z</time>
      </trkpt>
      <trkpt lat="45.27125" lon="0.33973">
        <ele>123</ele>
        <time>2015-10-06T13:06:46Z</time>
      </trkpt>
      <trkpt lat="45.27125" lon="0.33967">
        <ele>126</ele>
        <time>2015-10-06T13:06:51Z</time>
      </trkpt>
      <trkpt lat="45.27123" lon="0.33962">
        <ele>130</ele>
        <time>2015-10-06T13:06:58Z</time>
      </trkpt>
      <trkpt lat="45.27121" lon="0.33954">
        <ele>128</ele>
        <time>2015-10-06T13:07:03Z</time>
      </trkpt>
      <trkpt lat="45.27119" lon="0.33949">
        <ele>130</ele>
        <time>2015-10-06T13:07:07Z</time>
      </trkpt>
      <trkpt lat="45.27117" lon="0.3394">
        <ele>128</ele>
        <time>2015-10-06T13:07:12Z</time>
      </trkpt>
      <trkpt lat="45.27116" lon="0.33933">
        <ele>131</ele>
        <time>2015-10-06T13:07:16Z</time>
      </trkpt>
      <trkpt lat="45.27115" lon="0.33927">
        <ele>129</ele>
        <time>2015-10-06T13:07:19Z</time>
      </trkpt>
      <trkpt lat="45.27113" lon="0.33921">
        <ele>129</ele>
        <time>2015-10-06T13:07:23Z</time>
      </trkpt>
      <trkpt lat="45.27111" lon="0.33914">
        <ele>128</ele>
        <time>2015-10-06T13:07:27Z</time>
      </trkpt>
      <trkpt lat="45.27108" lon="0.33909">
        <ele>129</ele>
        <time>2015-10-06T13:07:31Z</time>
      </trkpt>
      <trkpt lat="45.27104" lon="0.33903">
        <ele>128</ele>
        <time>2015-10-06T13:07:36Z</time>
      </trkpt>
      <trkpt lat="45.27101" lon="0.33895">
        <ele>128</ele>
        <time>2015-10-06T13:07:41Z</time>
      </trkpt>
      <trkpt lat="45.27099" lon="0.3389">
        <ele>127</ele>
        <time>2015-10-06T13:07:45Z</time>
      </trkpt>
      <trkpt lat="45.27096" lon="0.33882">
        <ele>125</ele>
        <time>2015-10-06T13:07:50Z</time>
      </trkpt>
      <trkpt lat="45.27093" lon="0.33876">
        <ele>127</ele>
        <time>2015-10-06T13:07:54Z</time>
      </trkpt>
      <trkpt lat="45.2709" lon="0.3387">
        <ele>127</ele>
        <time>2015-10-06T13:07:58Z</time>
      </trkpt>
      <trkpt lat="45.27088" lon="0.33864">
        <ele>127</ele>
        <time>2015-10-06T13:08:03Z</time>
      </trkpt>
      <trkpt lat="45.27085" lon="0.33855">
        <ele>126</ele>
        <time>2015-10-06T13:08:07Z</time>
      </trkpt>
      <trkpt lat="45.27081" lon="0.33849">
        <ele>126</ele>
        <time>2015-10-06T13:08:12Z</time>
      </trkpt>
      <trkpt lat="45.27079" lon="0.33844">
        <ele>124</ele>
        <time>2015-10-06T13:08:16Z</time>
      </trkpt>
      <trkpt lat="45.27075" lon="0.33834">
        <ele>123</ele>
        <time>2015-10-06T13:08:21Z</time>
      </trkpt>
      <trkpt lat="45.27072" lon="0.33827">
        <ele>122</ele>
        <time>2015-10-06T13:08:26Z</time>
      </trkpt>
      <trkpt lat="45.2707" lon="0.3382">
        <ele>122</ele>
        <time>2015-10-06T13:08:30Z</time>
      </trkpt>
      <trkpt lat="45.27066" lon="0.33813">
        <ele>123</ele>
        <time>2015-10-06T13:08:34Z</time>
      </trkpt>
      <trkpt lat="45.27062" lon="0.3381">
        <ele>123</ele>
        <time>2015-10-06T13:08:38Z</time>
      </trkpt>
      <trkpt lat="45.2706" lon="0.33803">
        <ele>123</ele>
        <time>2015-10-06T13:08:43Z</time>
      </trkpt>
      <trkpt lat="45.27058" lon="0.33797">
        <ele>124</ele>
        <time>2015-10-06T13:08:48Z</time>
      </trkpt>
      <trkpt lat="45.27057" lon="0.33793">
        <ele>124</ele>
        <time>2015-10-06T13:08:52Z</time>
      </trkpt>
      <trkpt lat="45.27055" lon="0.33785">
        <ele>123</ele>
        <time>2015-10-06T13:08:56Z</time>
      </trkpt>
      <trkpt lat="45.27053" lon="0.33779">
        <ele>122</ele>
        <time>2015-10-06T13:09:00Z</time>
      </trkpt>
      <trkpt lat="45.27052" lon="0.33771">
        <ele>122</ele>
        <time>2015-10-06T13:09:05Z</time>
      </trkpt>
      <trkpt lat="45.2705" lon="0.33763">
        <ele>120</ele>
        <time>2015-10-06T13:09:09Z</time>
      </trkpt>
      <trkpt lat="45.27046" lon="0.33755">
        <ele>120</ele>
        <time>2015-10-06T13:09:14Z</time>
      </trkpt>
      <trkpt lat="45.27044" lon="0.33747">
        <ele>121</ele>
        <time>2015-10-06T13:09:19Z</time>
      </trkpt>
      <trkpt lat="45.27042" lon="0.33741">
        <ele>121</ele>
        <time>2015-10-06T13:09:23Z</time>
      </trkpt>
      <trkpt lat="45.27041" lon="0.33732">
        <ele>121</ele>
        <time>2015-10-06T13:09:28Z</time>
      </trkpt>
      <trkpt lat="45.27038" lon="0.33726">
        <ele>121</ele>
        <time>2015-10-06T13:09:32Z</time>
      </trkpt>
      <trkpt lat="45.27035" lon="0.33718">
        <ele>120</ele>
        <time>2015-10-06T13:09:37Z</time>
      </trkpt>
      <trkpt lat="45.27032" lon="0.33711">
        <ele>121</ele>
        <time>2015-10-06T13:09:41Z</time>
      </trkpt>
      <trkpt lat="45.2703" lon="0.33702">
        <ele>121</ele>
        <time>2015-10-06T13:09:46Z</time>
      </trkpt>
      <trkpt lat="45.27029" lon="0.33693">
        <ele>122</ele>
        <time>2015-10-06T13:09:51Z</time>
      </trkpt>
      <trkpt lat="45.27028" lon="0.33686">
        <ele>122</ele>
        <time>2015-10-06T13:09:55Z</time>
      </trkpt>
      <trkpt lat="45.27028" lon="0.33677">
        <ele>122</ele>
        <time>2015-10-06T13:10:00Z</time>
      </trkpt>
      <trkpt lat="45.27028" lon="0.33669">
        <ele>122</ele>
        <time>2015-10-06T13:10:05Z</time>
      </trkpt>
      <trkpt lat="45.2703" lon="0.33663">
        <ele>122</ele>
        <time>2015-10-06T13:10:09Z</time>
      </trkpt>
      <trkpt lat="45.27032" lon="0.33657">
        <ele>122</ele>
        <time>2015-10-06T13:10:13Z</time>
      </trkpt>
      <trkpt lat="45.27034" lon="0.33649">
        <ele>121</ele>
        <time>2015-10-06T13:10:18Z</time>
      </trkpt>
      <trkpt lat="45.27038" lon="0.33645">
        <ele>121</ele>
        <time>2015-10-06T13:10:22Z</time>
      </trkpt>
      <trkpt lat="45.27041" lon="0.33639">
        <ele>120</ele>
        <time>2015-10-06T13:10:27Z</time>
      </trkpt>
      <trkpt lat="45.27045" lon="0.33635">
        <ele>121</ele>
        <time>2015-10-06T13:10:31Z</time>
      </trkpt>
      <trkpt lat="45.27049" lon="0.33631">
        <ele>122</ele>
        <time>2015-10-06T13:10:35Z</time>
      </trkpt>
      <trkpt lat="45.27054" lon="0.33626">
        <ele>121</ele>
        <time>2015-10-06T13:10:40Z</time>
      </trkpt>
      <trkpt lat="45.27057" lon="0.33622">
        <ele>120</ele>
        <time>2015-10-06T13:10:45Z</time>
      </trkpt>
      <trkpt lat="45.27063" lon="0.33618">
        <ele>121</ele>
        <time>2015-10-06T13:10:50Z</time>
      </trkpt>
      <trkpt lat="45.27068" lon="0.33614">
        <ele>121</ele>
        <time>2015-10-06T13:10:54Z</time>
      </trkpt>
      <trkpt lat="45.27072" lon="0.33609">
        <ele>122</ele>
        <time>2015-10-06T13:10:58Z</time>
      </trkpt>
      <trkpt lat="45.27078" lon="0.33602">
        <ele>124</ele>
        <time>2015-10-06T13:11:03Z</time>
      </trkpt>
      <trkpt lat="45.27082" lon="0.33598">
        <ele>125</ele>
        <time>2015-10-06T13:11:07Z</time>
      </trkpt>
      <trkpt lat="45.27087" lon="0.33594">
        <ele>126</ele>
        <time>2015-10-06T13:11:12Z</time>
      </trkpt>
      <trkpt lat="45.27092" lon="0.33586">
        <ele>124</ele>
        <time>2015-10-06T13:11:16Z</time>
      </trkpt>
      <trkpt lat="45.27097" lon="0.3358">
        <ele>124</ele>
        <time>2015-10-06T13:11:21Z</time>
      </trkpt>
      <trkpt lat="45.27102" lon="0.33575">
        <ele>124</ele>
        <time>2015-10-06T13:11:25Z</time>
      </trkpt>
      <trkpt lat="45.27107" lon="0.33566">
        <ele>123</ele>
        <time>2015-10-06T13:11:30Z</time>
      </trkpt>
      <trkpt lat="45.27112" lon="0.33561">
        <ele>124</ele>
        <time>2015-10-06T13:11:34Z</time>
      </trkpt>
      <trkpt lat="45.27116" lon="0.33555">
        <ele>123</ele>
        <time>2015-10-06T13:11:39Z</time>
      </trkpt>
      <trkpt lat="45.2712" lon="0.33548">
        <ele>122</ele>
        <time>2015-10-06T13:11:42Z</time>
      </trkpt>
      <trkpt lat="45.27125" lon="0.3354">
        <ele>120</ele>
        <time>2015-10-06T13:11:47Z</time>
      </trkpt>
      <trkpt lat="45.27128" lon="0.33535">
        <ele>119</ele>
        <time>2015-10-06T13:11:58Z</time>
      </trkpt>
      <trkpt lat="45.27133" lon="0.33526">
        <ele>117</ele>
        <time>2015-10-06T13:12:02Z</time>
      </trkpt>
      <trkpt lat="45.2714" lon="0.33516">
        <ele>119</ele>
        <time>2015-10-06T13:12:07Z</time>
      </trkpt>
      <trkpt lat="45.27143" lon="0.33509">
        <ele>118</ele>
        <time>2015-10-06T13:12:12Z</time>
      </trkpt>
      <trkpt lat="45.27145" lon="0.33502">
        <ele>117</ele>
        <time>2015-10-06T13:12:16Z</time>
      </trkpt>
      <trkpt lat="45.27149" lon="0.33494">
        <ele>119</ele>
        <time>2015-10-06T13:12:20Z</time>
      </trkpt>
      <trkpt lat="45.27153" lon="0.33486">
        <ele>117</ele>
        <time>2015-10-06T13:12:25Z</time>
      </trkpt>
      <trkpt lat="45.27156" lon="0.33481">
        <ele>117</ele>
        <time>2015-10-06T13:12:29Z</time>
      </trkpt>
      <trkpt lat="45.27159" lon="0.33474">
        <ele>118</ele>
        <time>2015-10-06T13:12:33Z</time>
      </trkpt>
      <trkpt lat="45.27163" lon="0.33467">
        <ele>118</ele>
        <time>2015-10-06T13:12:37Z</time>
      </trkpt>
      <trkpt lat="45.27166" lon="0.3346">
        <ele>118</ele>
        <time>2015-10-06T13:12:41Z</time>
      </trkpt>
      <trkpt lat="45.27168" lon="0.33454">
        <ele>118</ele>
        <time>2015-10-06T13:12:45Z</time>
      </trkpt>
      <trkpt lat="45.27172" lon="0.33446">
        <ele>118</ele>
        <time>2015-10-06T13:12:50Z</time>
      </trkpt>
      <trkpt lat="45.27174" lon="0.33439">
        <ele>117</ele>
        <time>2015-10-06T13:12:54Z</time>
      </trkpt>
      <trkpt lat="45.27176" lon="0.33432">
        <ele>116</ele>
        <time>2015-10-06T13:12:58Z</time>
      </trkpt>
      <trkpt lat="45.27179" lon="0.33423">
        <ele>116</ele>
        <time>2015-10-06T13:13:03Z</time>
      </trkpt>
      <trkpt lat="45.27181" lon="0.33417">
        <ele>114</ele>
        <time>2015-10-06T13:13:07Z</time>
      </trkpt>
      <trkpt lat="45.27183" lon="0.33409">
        <ele>115</ele>
        <time>2015-10-06T13:13:12Z</time>
      </trkpt>
      <trkpt lat="45.27186" lon="0.33402">
        <ele>115</ele>
        <time>2015-10-06T13:13:17Z</time>
      </trkpt>
      <trkpt lat="45.27187" lon="0.33395">
        <ele>114</ele>
        <time>2015-10-06T13:13:21Z</time>
      </trkpt>
      <trkpt lat="45.27189" lon="0.33386">
        <ele>113</ele>
        <time>2015-10-06T13:13:26Z</time>
      </trkpt>
      <trkpt lat="45.27192" lon="0.3338">
        <ele>115</ele>
        <time>2015-10-06T13:13:30Z</time>
      </trkpt>
      <trkpt lat="45.27195" lon="0.33373">
        <ele>115</ele>
        <time>2015-10-06T13:13:34Z</time>
      </trkpt>
      <trkpt lat="45.27196" lon="0.33367">
        <ele>116</ele>
        <time>2015-10-06T13:13:38Z</time>
      </trkpt>
      <trkpt lat="45.27198" lon="0.33359">
        <ele>117</ele>
        <time>2015-10-06T13:13:43Z</time>
      </trkpt>
      <trkpt lat="45.272" lon="0.33353">
        <ele>116</ele>
        <time>2015-10-06T13:13:47Z</time>
      </trkpt>
      <trkpt lat="45.27203" lon="0.33344">
        <ele>116</ele>
        <time>2015-10-06T13:13:52Z</time>
      </trkpt>
      <trkpt lat="45.27205" lon="0.33338">
        <ele>115</ele>
        <time>2015-10-06T13:13:56Z</time>
      </trkpt>
      <trkpt lat="45.27208" lon="0.33331">
        <ele>117</ele>
        <time>2015-10-06T13:14:01Z</time>
      </trkpt>
      <trkpt lat="45.27211" lon="0.33324">
        <ele>117</ele>
        <time>2015-10-06T13:14:06Z</time>
      </trkpt>
      <trkpt lat="45.27215" lon="0.33316">
        <ele>117</ele>
        <time>2015-10-06T13:14:10Z</time>
      </trkpt>
      <trkpt lat="45.27216" lon="0.33306">
        <ele>118</ele>
        <time>2015-10-06T13:14:15Z</time>
      </trkpt>
      <trkpt lat="45.27218" lon="0.33297">
        <ele>119</ele>
        <time>2015-10-06T13:14:20Z</time>
      </trkpt>
      <trkpt lat="45.27218" lon="0.33289">
        <ele>119</ele>
        <time>2015-10-06T13:14:24Z</time>
      </trkpt>
      <trkpt lat="45.2722" lon="0.33279">
        <ele>117</ele>
        <time>2015-10-06T13:14:29Z</time>
      </trkpt>
      <trkpt lat="45.27221" lon="0.33273">
        <ele>117</ele>
        <time>2015-10-06T13:14:33Z</time>
      </trkpt>
      <trkpt lat="45.27222" lon="0.33267">
        <ele>118</ele>
        <time>2015-10-06T13:14:37Z</time>
      </trkpt>
      <trkpt lat="45.27224" lon="0.3326">
        <ele>119</ele>
        <time>2015-10-06T13:14:42Z</time>
      </trkpt>
      <trkpt lat="45.27225" lon="0.33254">
        <ele>119</ele>
        <time>2015-10-06T13:14:46Z</time>
      </trkpt>
      <trkpt lat="45.27226" lon="0.33245">
        <ele>118</ele>
        <time>2015-10-06T13:14:51Z</time>
      </trkpt>
      <trkpt lat="45.27228" lon="0.33238">
        <ele>115</ele>
        <time>2015-10-06T13:14:55Z</time>
      </trkpt>
      <trkpt lat="45.2723" lon="0.3323">
        <ele>114</ele>
        <time>2015-10-06T13:15:00Z</time>
      </trkpt>
      <trkpt lat="45.27233" lon="0.33224">
        <ele>113</ele>
        <time>2015-10-06T13:15:05Z</time>
      </trkpt>
      <trkpt lat="45.27236" lon="0.3322">
        <ele>113</ele>
        <time>2015-10-06T13:15:09Z</time>
      </trkpt>
      <trkpt lat="45.27241" lon="0.33218">
        <ele>115</ele>
        <time>2015-10-06T13:15:14Z</time>
      </trkpt>
      <trkpt lat="45.27246" lon="0.33215">
        <ele>115</ele>
        <time>2015-10-06T13:15:19Z</time>
      </trkpt>
      <trkpt lat="45.2725" lon="0.33212">
        <ele>116</ele>
        <time>2015-10-06T13:15:23Z</time>
      </trkpt>
      <trkpt lat="45.27254" lon="0.33207">
        <ele>115</ele>
        <time>2015-10-06T13:15:28Z</time>
      </trkpt>
      <trkpt lat="45.27258" lon="0.33204">
        <ele>115</ele>
        <time>2015-10-06T13:15:32Z</time>
      </trkpt>
      <trkpt lat="45.27261" lon="0.33202">
        <ele>115</ele>
        <time>2015-10-06T13:15:35Z</time>
      </trkpt>
      <trkpt lat="45.27266" lon="0.33198">
        <ele>113</ele>
        <time>2015-10-06T13:15:39Z</time>
      </trkpt>
      <trkpt lat="45.27272" lon="0.33194">
        <ele>112</ele>
        <time>2015-10-06T13:15:44Z</time>
      </trkpt>
      <trkpt lat="45.27276" lon="0.3319">
        <ele>113</ele>
        <time>2015-10-06T13:15:49Z</time>
      </trkpt>
      <trkpt lat="45.2728" lon="0.33188">
        <ele>113</ele>
        <time>2015-10-06T13:15:52Z</time>
      </trkpt>
      <trkpt lat="45.27285" lon="0.33184">
        <ele>113</ele>
        <time>2015-10-06T13:15:57Z</time>
      </trkpt>
      <trkpt lat="45.27289" lon="0.33181">
        <ele>113</ele>
        <time>2015-10-06T13:16:01Z</time>
      </trkpt>
      <trkpt lat="45.27294" lon="0.33178">
        <ele>112</ele>
        <time>2015-10-06T13:16:06Z</time>
      </trkpt>
      <trkpt lat="45.27297" lon="0.33176">
        <ele>112</ele>
        <time>2015-10-06T13:16:10Z</time>
      </trkpt>
      <trkpt lat="45.27302" lon="0.33172">
        <ele>111</ele>
        <time>2015-10-06T13:16:14Z</time>
      </trkpt>
      <trkpt lat="45.27307" lon="0.33168">
        <ele>111</ele>
        <time>2015-10-06T13:16:19Z</time>
      </trkpt>
      <trkpt lat="45.27312" lon="0.33164">
        <ele>110</ele>
        <time>2015-10-06T13:16:23Z</time>
      </trkpt>
      <trkpt lat="45.27317" lon="0.33159">
        <ele>108</ele>
        <time>2015-10-06T13:16:28Z</time>
      </trkpt>
      <trkpt lat="45.27322" lon="0.33155">
        <ele>107</ele>
        <time>2015-10-06T13:16:32Z</time>
      </trkpt>
      <trkpt lat="45.27326" lon="0.33152">
        <ele>107</ele>
        <time>2015-10-06T13:16:36Z</time>
      </trkpt>
      <trkpt lat="45.27331" lon="0.33148">
        <ele>108</ele>
        <time>2015-10-06T13:16:40Z</time>
      </trkpt>
      <trkpt lat="45.27335" lon="0.33146">
        <ele>108</ele>
        <time>2015-10-06T13:16:44Z</time>
      </trkpt>
      <trkpt lat="45.27341" lon="0.33142">
        <ele>107</ele>
        <time>2015-10-06T13:16:49Z</time>
      </trkpt>
      <trkpt lat="45.27345" lon="0.33139">
        <ele>107</ele>
        <time>2015-10-06T13:16:53Z</time>
      </trkpt>
      <trkpt lat="45.27351" lon="0.33135">
        <ele>105</ele>
        <time>2015-10-06T13:16:58Z</time>
      </trkpt>
      <trkpt lat="45.27354" lon="0.33134">
        <ele>106</ele>
        <time>2015-10-06T13:17:01Z</time>
      </trkpt>
      <trkpt lat="45.27362" lon="0.33129">
        <ele>106</ele>
        <time>2015-10-06T13:17:09Z</time>
      </trkpt>
      <trkpt lat="45.27367" lon="0.33127">
        <ele>106</ele>
        <time>2015-10-06T13:17:13Z</time>
      </trkpt>
      <trkpt lat="45.27371" lon="0.33125">
        <ele>105</ele>
        <time>2015-10-06T13:17:17Z</time>
      </trkpt>
      <trkpt lat="45.27377" lon="0.33124">
        <ele>106</ele>
        <time>2015-10-06T13:17:22Z</time>
      </trkpt>
      <trkpt lat="45.27382" lon="0.33121">
        <ele>105</ele>
        <time>2015-10-06T13:17:27Z</time>
      </trkpt>
      <trkpt lat="45.27386" lon="0.3312">
        <ele>104</ele>
        <time>2015-10-06T13:17:31Z</time>
      </trkpt>
      <trkpt lat="45.27391" lon="0.33119">
        <ele>104</ele>
        <time>2015-10-06T13:17:35Z</time>
      </trkpt>
      <trkpt lat="45.27393" lon="0.33117">
        <ele>103</ele>
        <time>2015-10-06T13:17:37Z</time>
      </trkpt>
      <trkpt lat="45.27399" lon="0.33114">
        <ele>102</ele>
        <time>2015-10-06T13:17:42Z</time>
      </trkpt>
      <trkpt lat="45.27404" lon="0.33111">
        <ele>100</ele>
        <time>2015-10-06T13:17:47Z</time>
      </trkpt>
      <trkpt lat="45.27408" lon="0.33111">
        <ele>100</ele>
        <time>2015-10-06T13:17:51Z</time>
      </trkpt>
      <trkpt lat="45.27414" lon="0.33108">
        <ele>101</ele>
        <time>2015-10-06T13:17:56Z</time>
      </trkpt>
      <trkpt lat="45.27419" lon="0.33105">
        <ele>100</ele>
        <time>2015-10-06T13:18:00Z</time>
      </trkpt>
      <trkpt lat="45.27421" lon="0.33104">
        <ele>99</ele>
        <time>2015-10-06T13:18:05Z</time>
      </trkpt>
      <trkpt lat="45.2743" lon="0.33098">
        <ele>100</ele>
        <time>2015-10-06T13:18:10Z</time>
      </trkpt>
      <trkpt lat="45.27435" lon="0.33096">
        <ele>100</ele>
        <time>2015-10-06T13:18:14Z</time>
      </trkpt>
      <trkpt lat="45.2744" lon="0.33093">
        <ele>101</ele>
        <time>2015-10-06T13:18:19Z</time>
      </trkpt>
      <trkpt lat="45.27445" lon="0.33088">
        <ele>99</ele>
        <time>2015-10-06T13:18:23Z</time>
      </trkpt>
      <trkpt lat="45.27451" lon="0.33086">
        <ele>100</ele>
        <time>2015-10-06T13:18:28Z</time>
      </trkpt>
      <trkpt lat="45.27455" lon="0.33084">
        <ele>99</ele>
        <time>2015-10-06T13:18:32Z</time>
      </trkpt>
      <trkpt lat="45.27461" lon="0.33082">
        <ele>100</ele>
        <time>2015-10-06T13:18:37Z</time>
      </trkpt>
      <trkpt lat="45.27466" lon="0.33081">
        <ele>100</ele>
        <time>2015-10-06T13:18:41Z</time>
      </trkpt>
      <trkpt lat="45.27471" lon="0.3308">
        <ele>100</ele>
        <time>2015-10-06T13:18:45Z</time>
      </trkpt>
      <trkpt lat="45.27476" lon="0.33078">
        <ele>100</ele>
        <time>2015-10-06T13:18:50Z</time>
      </trkpt>
      <trkpt lat="45.2748" lon="0.33077">
        <ele>99</ele>
        <time>2015-10-06T13:18:54Z</time>
      </trkpt>
      <trkpt lat="45.27486" lon="0.33075">
        <ele>99</ele>
        <time>2015-10-06T13:18:59Z</time>
      </trkpt>
      <trkpt lat="45.27492" lon="0.33072">
        <ele>96</ele>
        <time>2015-10-06T13:19:04Z</time>
      </trkpt>
      <trkpt lat="45.27497" lon="0.33071">
        <ele>97</ele>
        <time>2015-10-06T13:19:08Z</time>
      </trkpt>
      <trkpt lat="45.27503" lon="0.33069">
        <ele>96</ele>
        <time>2015-10-06T13:19:13Z</time>
      </trkpt>
      <trkpt lat="45.27507" lon="0.33067">
        <ele>96</ele>
        <time>2015-10-06T13:19:16Z</time>
      </trkpt>
      <trkpt lat="45.27511" lon="0.33064">
        <ele>96</ele>
        <time>2015-10-06T13:19:20Z</time>
      </trkpt>
      <trkpt lat="45.27517" lon="0.33061">
        <ele>94</ele>
        <time>2015-10-06T13:19:25Z</time>
      </trkpt>
      <trkpt lat="45.27523" lon="0.33059">
        <ele>94</ele>
        <time>2015-10-06T13:19:30Z</time>
      </trkpt>
      <trkpt lat="45.27528" lon="0.33057">
        <ele>93</ele>
        <time>2015-10-06T13:19:34Z</time>
      </trkpt>
      <trkpt lat="45.27534" lon="0.33054">
        <ele>91</ele>
        <time>2015-10-06T13:19:39Z</time>
      </trkpt>
      <trkpt lat="45.27538" lon="0.33052">
        <ele>91</ele>
        <time>2015-10-06T13:19:43Z</time>
      </trkpt>
      <trkpt lat="45.27544" lon="0.3305">
        <ele>89</ele>
        <time>2015-10-06T13:19:48Z</time>
      </trkpt>
      <trkpt lat="45.27548" lon="0.33049">
        <ele>88</ele>
        <time>2015-10-06T13:19:52Z</time>
      </trkpt>
      <trkpt lat="45.27554" lon="0.33046">
        <ele>88</ele>
        <time>2015-10-06T13:19:57Z</time>
      </trkpt>
      <trkpt lat="45.2756" lon="0.33044">
        <ele>87</ele>
        <time>2015-10-06T13:20:02Z</time>
      </trkpt>
      <trkpt lat="45.27565" lon="0.33042">
        <ele>87</ele>
        <time>2015-10-06T13:20:06Z</time>
      </trkpt>
      <trkpt lat="45.2757" lon="0.3304">
        <ele>85</ele>
        <time>2015-10-06T13:20:10Z</time>
      </trkpt>
      <trkpt lat="45.27575" lon="0.33036">
        <ele>84</ele>
        <time>2015-10-06T13:20:14Z</time>
      </trkpt>
      <trkpt lat="45.2758" lon="0.33035">
        <ele>83</ele>
        <time>2015-10-06T13:20:18Z</time>
      </trkpt>
      <trkpt lat="45.27586" lon="0.33033">
        <ele>84</ele>
        <time>2015-10-06T13:20:23Z</time>
      </trkpt>
      <trkpt lat="45.2759" lon="0.3303">
        <ele>82</ele>
        <time>2015-10-06T13:20:27Z</time>
      </trkpt>
      <trkpt lat="45.27594" lon="0.33027">
        <ele>82</ele>
        <time>2015-10-06T13:20:31Z</time>
      </trkpt>
      <trkpt lat="45.276" lon="0.33023">
        <ele>83</ele>
        <time>2015-10-06T13:20:36Z</time>
      </trkpt>
      <trkpt lat="45.27604" lon="0.33018">
        <ele>82</ele>
        <time>2015-10-06T13:20:40Z</time>
      </trkpt>
      <trkpt lat="45.27608" lon="0.33014">
        <ele>82</ele>
        <time>2015-10-06T13:20:44Z</time>
      </trkpt>
      <trkpt lat="45.27614" lon="0.33009">
        <ele>84</ele>
        <time>2015-10-06T13:20:49Z</time>
      </trkpt>
      <trkpt lat="45.27618" lon="0.33002">
        <ele>84</ele>
        <time>2015-10-06T13:20:54Z</time>
      </trkpt>
      <trkpt lat="45.2762" lon="0.32999">
        <ele>83</ele>
        <time>2015-10-06T13:20:57Z</time>
      </trkpt>
      <trkpt lat="45.27624" lon="0.32991">
        <ele>83</ele>
        <time>2015-10-06T13:21:02Z</time>
      </trkpt>
      <trkpt lat="45.27627" lon="0.32984">
        <ele>83</ele>
        <time>2015-10-06T13:21:06Z</time>
      </trkpt>
      <trkpt lat="45.2763" lon="0.32975">
        <ele>83</ele>
        <time>2015-10-06T13:21:11Z</time>
      </trkpt>
      <trkpt lat="45.27634" lon="0.32968">
        <ele>83</ele>
        <time>2015-10-06T13:21:16Z</time>
      </trkpt>
      <trkpt lat="45.27635" lon="0.3296">
        <ele>82</ele>
        <time>2015-10-06T13:21:21Z</time>
      </trkpt>
      <trkpt lat="45.27637" lon="0.32954">
        <ele>83</ele>
        <time>2015-10-06T13:21:25Z</time>
      </trkpt>
      <trkpt lat="45.27639" lon="0.32946">
        <ele>83</ele>
        <time>2015-10-06T13:21:30Z</time>
      </trkpt>
      <trkpt lat="45.27641" lon="0.3294">
        <ele>82</ele>
        <time>2015-10-06T13:21:33Z</time>
      </trkpt>
      <trkpt lat="45.27643" lon="0.32932">
        <ele>82</ele>
        <time>2015-10-06T13:21:38Z</time>
      </trkpt>
      <trkpt lat="45.27646" lon="0.32924">
        <ele>82</ele>
        <time>2015-10-06T13:21:43Z</time>
      </trkpt>
      <trkpt lat="45.27648" lon="0.32917">
        <ele>82</ele>
        <time>2015-10-06T13:21:47Z</time>
      </trkpt>
      <trkpt lat="45.27651" lon="0.3291">
        <ele>83</ele>
        <time>2015-10-06T13:21:51Z</time>
      </trkpt>
      <trkpt lat="45.27652" lon="0.32903">
        <ele>81</ele>
        <time>2015-10-06T13:21:55Z</time>
      </trkpt>
      <trkpt lat="45.27655" lon="0.32895">
        <ele>81</ele>
        <time>2015-10-06T13:22:00Z</time>
      </trkpt>
      <trkpt lat="45.27657" lon="0.32888">
        <ele>81</ele>
        <time>2015-10-06T13:22:04Z</time>
      </trkpt>
      <trkpt lat="45.27659" lon="0.32881">
        <ele>81</ele>
        <time>2015-10-06T13:22:08Z</time>
      </trkpt>
      <trkpt lat="45.27662" lon="0.32873">
        <ele>80</ele>
        <time>2015-10-06T13:22:13Z</time>
      </trkpt>
      <trkpt lat="45.27664" lon="0.32867">
        <ele>80</ele>
        <time>2015-10-06T13:22:17Z</time>
      </trkpt>
      <trkpt lat="45.27667" lon="0.3286">
        <ele>80</ele>
        <time>2015-10-06T13:22:21Z</time>
      </trkpt>
      <trkpt lat="45.27668" lon="0.32853">
        <ele>79</ele>
        <time>2015-10-06T13:22:25Z</time>
      </trkpt>
      <trkpt lat="45.2767" lon="0.32845">
        <ele>78</ele>
        <time>2015-10-06T13:22:30Z</time>
      </trkpt>
      <trkpt lat="45.27672" lon="0.32838">
        <ele>79</ele>
        <time>2015-10-06T13:22:34Z</time>
      </trkpt>
      <trkpt lat="45.27674" lon="0.32831">
        <ele>80</ele>
        <time>2015-10-06T13:22:38Z</time>
      </trkpt>
      <trkpt lat="45.27677" lon="0.32822">
        <ele>80</ele>
        <time>2015-10-06T13:22:43Z</time>
      </trkpt>
      <trkpt lat="45.27679" lon="0.32813">
        <ele>81</ele>
        <time>2015-10-06T13:22:48Z</time>
      </trkpt>
      <trkpt lat="45.27681" lon="0.32806">
        <ele>82</ele>
        <time>2015-10-06T13:22:52Z</time>
      </trkpt>
      <trkpt lat="45.27681" lon="0.32799">
        <ele>80</ele>
        <time>2015-10-06T13:22:56Z</time>
      </trkpt>
      <trkpt lat="45.27681" lon="0.3279">
        <ele>80</ele>
        <time>2015-10-06T13:23:01Z</time>
      </trkpt>
      <trkpt lat="45.27681" lon="0.32781">
        <ele>79</ele>
        <time>2015-10-06T13:23:05Z</time>
      </trkpt>
      <trkpt lat="45.27682" lon="0.32774">
        <ele>80</ele>
        <time>2015-10-06T13:23:09Z</time>
      </trkpt>
      <trkpt lat="45.27682" lon="0.32764">
        <ele>80</ele>
        <time>2015-10-06T13:23:14Z</time>
      </trkpt>
      <trkpt lat="45.27682" lon="0.32755">
        <ele>80</ele>
        <time>2015-10-06T13:23:19Z</time>
      </trkpt>
      <trkpt lat="45.27682" lon="0.32748">
        <ele>80</ele>
        <time>2015-10-06T13:23:23Z</time>
      </trkpt>
      <trkpt lat="45.27682" lon="0.32741">
        <ele>79</ele>
        <time>2015-10-06T13:23:27Z</time>
      </trkpt>
      <trkpt lat="45.27683" lon="0.32733">
        <ele>79</ele>
        <time>2015-10-06T13:23:31Z</time>
      </trkpt>
      <trkpt lat="45.27683" lon="0.32726">
        <ele>79</ele>
        <time>2015-10-06T13:23:35Z</time>
      </trkpt>
      <trkpt lat="45.27684" lon="0.32721">
        <ele>80</ele>
        <time>2015-10-06T13:23:39Z</time>
      </trkpt>
      <trkpt lat="45.27685" lon="0.32714">
        <ele>81</ele>
        <time>2015-10-06T13:23:43Z</time>
      </trkpt>
      <trkpt lat="45.27688" lon="0.32708">
        <ele>82</ele>
        <time>2015-10-06T13:23:48Z</time>
      </trkpt>
      <trkpt lat="45.27688" lon="0.327">
        <ele>80</ele>
        <time>2015-10-06T13:23:52Z</time>
      </trkpt>
      <trkpt lat="45.27691" lon="0.32693">
        <ele>81</ele>
        <time>2015-10-06T13:23:57Z</time>
      </trkpt>
      <trkpt lat="45.27693" lon="0.32685">
        <ele>80</ele>
        <time>2015-10-06T13:24:02Z</time>
      </trkpt>
      <trkpt lat="45.27696" lon="0.32678">
        <ele>81</ele>
        <time>2015-10-06T13:24:06Z</time>
      </trkpt>
      <trkpt lat="45.277" lon="0.32671">
        <ele>80</ele>
        <time>2015-10-06T13:24:11Z</time>
      </trkpt>
      <trkpt lat="45.27702" lon="0.32664">
        <ele>79</ele>
        <time>2015-10-06T13:24:15Z</time>
      </trkpt>
      <trkpt lat="45.27706" lon="0.32655">
        <ele>79</ele>
        <time>2015-10-06T13:24:20Z</time>
      </trkpt>
      <trkpt lat="45.27708" lon="0.32647">
        <ele>79</ele>
        <time>2015-10-06T13:24:24Z</time>
      </trkpt>
      <trkpt lat="45.27711" lon="0.32638">
        <ele>79</ele>
        <time>2015-10-06T13:24:29Z</time>
      </trkpt>
      <trkpt lat="45.27713" lon="0.32632">
        <ele>79</ele>
        <time>2015-10-06T13:24:33Z</time>
      </trkpt>
      <trkpt lat="45.27716" lon="0.32626">
        <ele>80</ele>
        <time>2015-10-06T13:24:37Z</time>
      </trkpt>
      <trkpt lat="45.27719" lon="0.3262">
        <ele>79</ele>
        <time>2015-10-06T13:24:41Z</time>
      </trkpt>
      <trkpt lat="45.27722" lon="0.32616">
        <ele>79</ele>
        <time>2015-10-06T13:24:48Z</time>
      </trkpt>
      <trkpt lat="45.27726" lon="0.32602">
        <ele>78</ele>
        <time>2015-10-06T13:24:52Z</time>
      </trkpt>
      <trkpt lat="45.27728" lon="0.32595">
        <ele>77</ele>
        <time>2015-10-06T13:24:57Z</time>
      </trkpt>
      <trkpt lat="45.27732" lon="0.32587">
        <ele>77</ele>
        <time>2015-10-06T13:25:02Z</time>
      </trkpt>
      <trkpt lat="45.27734" lon="0.3258">
        <ele>75</ele>
        <time>2015-10-06T13:25:06Z</time>
      </trkpt>
      <trkpt lat="45.27735" lon="0.32575">
        <ele>75</ele>
        <time>2015-10-06T13:25:09Z</time>
      </trkpt>
      <trkpt lat="45.27738" lon="0.32568">
        <ele>75</ele>
        <time>2015-10-06T13:25:13Z</time>
      </trkpt>
      <trkpt lat="45.27741" lon="0.3256">
        <ele>76</ele>
        <time>2015-10-06T13:25:18Z</time>
      </trkpt>
      <trkpt lat="45.27743" lon="0.32555">
        <ele>76</ele>
        <time>2015-10-06T13:25:22Z</time>
      </trkpt>
      <trkpt lat="45.27746" lon="0.32549">
        <ele>77</ele>
        <time>2015-10-06T13:25:26Z</time>
      </trkpt>
      <trkpt lat="45.27749" lon="0.32541">
        <ele>77</ele>
        <time>2015-10-06T13:25:31Z</time>
      </trkpt>
      <trkpt lat="45.27751" lon="0.32535">
        <ele>76</ele>
        <time>2015-10-06T13:25:35Z</time>
      </trkpt>
      <trkpt lat="45.27754" lon="0.3253">
        <ele>74</ele>
        <time>2015-10-06T13:25:38Z</time>
      </trkpt>
      <trkpt lat="45.27758" lon="0.32524">
        <ele>73</ele>
        <time>2015-10-06T13:25:42Z</time>
      </trkpt>
      <trkpt lat="45.27763" lon="0.32521">
        <ele>73</ele>
        <time>2015-10-06T13:25:47Z</time>
      </trkpt>
      <trkpt lat="45.27768" lon="0.32521">
        <ele>74</ele>
        <time>2015-10-06T13:25:51Z</time>
      </trkpt>
      <trkpt lat="45.27773" lon="0.32522">
        <ele>74</ele>
        <time>2015-10-06T13:25:56Z</time>
      </trkpt>
      <trkpt lat="45.27778" lon="0.32524">
        <ele>74</ele>
        <time>2015-10-06T13:26:00Z</time>
      </trkpt>
      <trkpt lat="45.27783" lon="0.32527">
        <ele>75</ele>
        <time>2015-10-06T13:26:05Z</time>
      </trkpt>
      <trkpt lat="45.27785" lon="0.32531">
        <ele>76</ele>
        <time>2015-10-06T13:26:08Z</time>
      </trkpt>
      <trkpt lat="45.27791" lon="0.32535">
        <ele>75</ele>
        <time>2015-10-06T13:26:13Z</time>
      </trkpt>
      <trkpt lat="45.27795" lon="0.32538">
        <ele>75</ele>
        <time>2015-10-06T13:26:17Z</time>
      </trkpt>
      <trkpt lat="45.27802" lon="0.3254">
        <ele>74</ele>
        <time>2015-10-06T13:26:22Z</time>
      </trkpt>
      <trkpt lat="45.27808" lon="0.32546">
        <ele>75</ele>
        <time>2015-10-06T13:26:27Z</time>
      </trkpt>
      <trkpt lat="45.27814" lon="0.32551">
        <ele>77</ele>
        <time>2015-10-06T13:26:32Z</time>
      </trkpt>
      <trkpt lat="45.27818" lon="0.32554">
        <ele>77</ele>
        <time>2015-10-06T13:26:36Z</time>
      </trkpt>
      <trkpt lat="45.27823" lon="0.32558">
        <ele>77</ele>
        <time>2015-10-06T13:26:41Z</time>
      </trkpt>
      <trkpt lat="45.27828" lon="0.32562">
        <ele>76</ele>
        <time>2015-10-06T13:26:45Z</time>
      </trkpt>
      <trkpt lat="45.27832" lon="0.32563">
        <ele>76</ele>
        <time>2015-10-06T13:26:50Z</time>
      </trkpt>
      <trkpt lat="45.27838" lon="0.32569">
        <ele>76</ele>
        <time>2015-10-06T13:26:53Z</time>
      </trkpt>
      <trkpt lat="45.27843" lon="0.32572">
        <ele>76</ele>
        <time>2015-10-06T13:26:57Z</time>
      </trkpt>
      <trkpt lat="45.27849" lon="0.32577">
        <ele>76</ele>
        <time>2015-10-06T13:27:02Z</time>
      </trkpt>
      <trkpt lat="45.27853" lon="0.32581">
        <ele>77</ele>
        <time>2015-10-06T13:27:06Z</time>
      </trkpt>
      <trkpt lat="45.27858" lon="0.32584">
        <ele>77</ele>
        <time>2015-10-06T13:27:10Z</time>
      </trkpt>
      <trkpt lat="45.27864" lon="0.32589">
        <ele>78</ele>
        <time>2015-10-06T13:27:15Z</time>
      </trkpt>
      <trkpt lat="45.27869" lon="0.32593">
        <ele>78</ele>
        <time>2015-10-06T13:27:19Z</time>
      </trkpt>
      <trkpt lat="45.27875" lon="0.32599">
        <ele>79</ele>
        <time>2015-10-06T13:27:24Z</time>
      </trkpt>
      <trkpt lat="45.27881" lon="0.32603">
        <ele>80</ele>
        <time>2015-10-06T13:27:29Z</time>
      </trkpt>
      <trkpt lat="45.27886" lon="0.32608">
        <ele>81</ele>
        <time>2015-10-06T13:27:33Z</time>
      </trkpt>
      <trkpt lat="45.27892" lon="0.32613">
        <ele>80</ele>
        <time>2015-10-06T13:27:38Z</time>
      </trkpt>
      <trkpt lat="45.27897" lon="0.32616">
        <ele>81</ele>
        <time>2015-10-06T13:27:42Z</time>
      </trkpt>
      <trkpt lat="45.279" lon="0.3262">
        <ele>81</ele>
        <time>2015-10-06T13:27:45Z</time>
      </trkpt>
      <trkpt lat="45.27901" lon="0.32621">
        <ele>82</ele>
        <time>2015-10-06T13:27:59Z</time>
      </trkpt>
      <trkpt lat="45.27923" lon="0.32636">
        <ele>81</ele>
        <time>2015-10-06T13:28:04Z</time>
      </trkpt>
      <trkpt lat="45.27928" lon="0.3264">
        <ele>82</ele>
        <time>2015-10-06T13:28:08Z</time>
      </trkpt>
      <trkpt lat="45.27934" lon="0.32646">
        <ele>82</ele>
        <time>2015-10-06T13:28:13Z</time>
      </trkpt>
      <trkpt lat="45.27938" lon="0.3265">
        <ele>83</ele>
        <time>2015-10-06T13:28:17Z</time>
      </trkpt>
      <trkpt lat="45.27944" lon="0.32654">
        <ele>84</ele>
        <time>2015-10-06T13:28:21Z</time>
      </trkpt>
      <trkpt lat="45.27948" lon="0.32658">
        <ele>84</ele>
        <time>2015-10-06T13:28:25Z</time>
      </trkpt>
      <trkpt lat="45.27954" lon="0.32664">
        <ele>85</ele>
        <time>2015-10-06T13:28:30Z</time>
      </trkpt>
      <trkpt lat="45.27959" lon="0.32666">
        <ele>85</ele>
        <time>2015-10-06T13:28:34Z</time>
      </trkpt>
      <trkpt lat="45.27964" lon="0.3267">
        <ele>86</ele>
        <time>2015-10-06T13:28:38Z</time>
      </trkpt>
      <trkpt lat="45.27969" lon="0.32675">
        <ele>86</ele>
        <time>2015-10-06T13:28:42Z</time>
      </trkpt>
      <trkpt lat="45.27973" lon="0.32678">
        <ele>86</ele>
        <time>2015-10-06T13:28:46Z</time>
      </trkpt>
      <trkpt lat="45.27979" lon="0.32682">
        <ele>85</ele>
        <time>2015-10-06T13:28:51Z</time>
      </trkpt>
      <trkpt lat="45.27985" lon="0.32687">
        <ele>86</ele>
        <time>2015-10-06T13:28:56Z</time>
      </trkpt>
      <trkpt lat="45.27991" lon="0.32691">
        <ele>86</ele>
        <time>2015-10-06T13:29:01Z</time>
      </trkpt>
      <trkpt lat="45.27996" lon="0.32695">
        <ele>85</ele>
        <time>2015-10-06T13:29:05Z</time>
      </trkpt>
      <trkpt lat="45.28" lon="0.32698">
        <ele>85</ele>
        <time>2015-10-06T13:29:09Z</time>
      </trkpt>
      <trkpt lat="45.28006" lon="0.32702">
        <ele>85</ele>
        <time>2015-10-06T13:29:14Z</time>
      </trkpt>
      <trkpt lat="45.2801" lon="0.32706">
        <ele>86</ele>
        <time>2015-10-06T13:29:18Z</time>
      </trkpt>
      <trkpt lat="45.28014" lon="0.32711">
        <ele>86</ele>
        <time>2015-10-06T13:29:22Z</time>
      </trkpt>
      <trkpt lat="45.28015" lon="0.32712">
        <ele>86</ele>
        <time>2015-10-06T13:29:24Z</time>
      </trkpt>
      <trkpt lat="45.28019" lon="0.32717">
        <ele>86</ele>
        <time>2015-10-06T13:29:28Z</time>
      </trkpt>
      <trkpt lat="45.28024" lon="0.32721">
        <ele>86</ele>
        <time>2015-10-06T13:29:32Z</time>
      </trkpt>
      <trkpt lat="45.28027" lon="0.32725">
        <ele>84</ele>
        <time>2015-10-06T13:29:36Z</time>
      </trkpt>
      <trkpt lat="45.28031" lon="0.32728">
        <ele>83</ele>
        <time>2015-10-06T13:29:40Z</time>
      </trkpt>
      <trkpt lat="45.28033" lon="0.32732">
        <ele>82</ele>
        <time>2015-10-06T13:29:43Z</time>
      </trkpt>
      <trkpt lat="45.28036" lon="0.32735">
        <ele>82</ele>
        <time>2015-10-06T13:29:46Z</time>
      </trkpt>
      <trkpt lat="45.28036" lon="0.32737">
        <ele>82</ele>
        <time>2015-10-06T13:29:51Z</time>
      </trkpt>
      <trkpt lat="45.28042" lon="0.32748">
        <ele>81</ele>
        <time>2015-10-06T13:29:55Z</time>
      </trkpt>
      <trkpt lat="45.28045" lon="0.32757">
        <ele>80</ele>
        <time>2015-10-06T13:30:00Z</time>
      </trkpt>
      <trkpt lat="45.28048" lon="0.32762">
        <ele>79</ele>
        <time>2015-10-06T13:30:03Z</time>
      </trkpt>
      <trkpt lat="45.28051" lon="0.3277">
        <ele>79</ele>
        <time>2015-10-06T13:30:08Z</time>
      </trkpt>
      <trkpt lat="45.28054" lon="0.32778">
        <ele>79</ele>
        <time>2015-10-06T13:30:13Z</time>
      </trkpt>
      <trkpt lat="45.28056" lon="0.32781">
        <ele>79</ele>
        <time>2015-10-06T13:30:16Z</time>
      </trkpt>
      <trkpt lat="45.28058" lon="0.32789">
        <ele>79</ele>
        <time>2015-10-06T13:30:21Z</time>
      </trkpt>
      <trkpt lat="45.28062" lon="0.32795">
        <ele>79</ele>
        <time>2015-10-06T13:30:26Z</time>
      </trkpt>
      <trkpt lat="45.28067" lon="0.32804">
        <ele>79</ele>
        <time>2015-10-06T13:30:31Z</time>
      </trkpt>
      <trkpt lat="45.28071" lon="0.32811">
        <ele>78</ele>
        <time>2015-10-06T13:30:35Z</time>
      </trkpt>
      <trkpt lat="45.28075" lon="0.32817">
        <ele>78</ele>
        <time>2015-10-06T13:30:39Z</time>
      </trkpt>
      <trkpt lat="45.28077" lon="0.32824">
        <ele>79</ele>
        <time>2015-10-06T13:30:44Z</time>
      </trkpt>
      <trkpt lat="45.2808" lon="0.32829">
        <ele>78</ele>
        <time>2015-10-06T13:30:48Z</time>
      </trkpt>
      <trkpt lat="45.28085" lon="0.32835">
        <ele>76</ele>
        <time>2015-10-06T13:30:53Z</time>
      </trkpt>
      <trkpt lat="45.28087" lon="0.32838">
        <ele>77</ele>
        <time>2015-10-06T13:30:56Z</time>
      </trkpt>
      <trkpt lat="45.28091" lon="0.32846">
        <ele>77</ele>
        <time>2015-10-06T13:31:01Z</time>
      </trkpt>
      <trkpt lat="45.28094" lon="0.32852">
        <ele>77</ele>
        <time>2015-10-06T13:31:06Z</time>
      </trkpt>
      <trkpt lat="45.28098" lon="0.32858">
        <ele>75</ele>
        <time>2015-10-06T13:31:10Z</time>
      </trkpt>
      <trkpt lat="45.28102" lon="0.32866">
        <ele>75</ele>
        <time>2015-10-06T13:31:15Z</time>
      </trkpt>
      <trkpt lat="45.28104" lon="0.32871">
        <ele>76</ele>
        <time>2015-10-06T13:31:18Z</time>
      </trkpt>
      <trkpt lat="45.28107" lon="0.32875">
        <ele>77</ele>
        <time>2015-10-06T13:31:22Z</time>
      </trkpt>
      <trkpt lat="45.28109" lon="0.3288">
        <ele>78</ele>
        <time>2015-10-06T13:31:26Z</time>
      </trkpt>
      <trkpt lat="45.28116" lon="0.32888">
        <ele>77</ele>
        <time>2015-10-06T13:31:31Z</time>
      </trkpt>
      <trkpt lat="45.28117" lon="0.32893">
        <ele>76</ele>
        <time>2015-10-06T13:31:41Z</time>
      </trkpt>
      <trkpt lat="45.28121" lon="0.32896">
        <ele>78</ele>
        <time>2015-10-06T13:31:53Z</time>
      </trkpt>
      <trkpt lat="45.28124" lon="0.32901">
        <ele>76</ele>
        <time>2015-10-06T13:32:47Z</time>
      </trkpt>
      <trkpt lat="45.28124" lon="0.32895">
        <ele>76</ele>
        <time>2015-10-06T13:35:29Z</time>
      </trkpt>
      <trkpt lat="45.28128" lon="0.32894">
        <ele>75</ele>
        <time>2015-10-06T13:36:11Z</time>
      </trkpt>
      <trkpt lat="45.28132" lon="0.32896">
        <ele>77</ele>
        <time>2015-10-06T13:36:16Z</time>
      </trkpt>
      <trkpt lat="45.28136" lon="0.32901">
        <ele>77</ele>
        <time>2015-10-06T13:36:21Z</time>
      </trkpt>
      <trkpt lat="45.28141" lon="0.32904">
        <ele>78</ele>
        <time>2015-10-06T13:36:26Z</time>
      </trkpt>
      <trkpt lat="45.28146" lon="0.32905">
        <ele>79</ele>
        <time>2015-10-06T13:36:30Z</time>
      </trkpt>
      <trkpt lat="45.28148" lon="0.32906">
        <ele>79</ele>
        <time>2015-10-06T13:36:34Z</time>
      </trkpt>
      <trkpt lat="45.28155" lon="0.32906">
        <ele>81</ele>
        <time>2015-10-06T13:36:38Z</time>
      </trkpt>
      <trkpt lat="45.28159" lon="0.32908">
        <ele>82</ele>
        <time>2015-10-06T13:36:42Z</time>
      </trkpt>
      <trkpt lat="45.28163" lon="0.32908">
        <ele>83</ele>
        <time>2015-10-06T13:36:46Z</time>
      </trkpt>
      <trkpt lat="45.28168" lon="0.32909">
        <ele>83</ele>
        <time>2015-10-06T13:36:50Z</time>
      </trkpt>
      <trkpt lat="45.28172" lon="0.32909">
        <ele>83</ele>
        <time>2015-10-06T13:36:54Z</time>
      </trkpt>
      <trkpt lat="45.28176" lon="0.32909">
        <ele>84</ele>
        <time>2015-10-06T13:36:58Z</time>
      </trkpt>
      <trkpt lat="45.28182" lon="0.32908">
        <ele>84</ele>
        <time>2015-10-06T13:37:03Z</time>
      </trkpt>
      <trkpt lat="45.28187" lon="0.32908">
        <ele>85</ele>
        <time>2015-10-06T13:37:08Z</time>
      </trkpt>
      <trkpt lat="45.28192" lon="0.32908">
        <ele>84</ele>
        <time>2015-10-06T13:37:12Z</time>
      </trkpt>
      <trkpt lat="45.28197" lon="0.32908">
        <ele>85</ele>
        <time>2015-10-06T13:37:17Z</time>
      </trkpt>
      <trkpt lat="45.28201" lon="0.32908">
        <ele>85</ele>
        <time>2015-10-06T13:37:21Z</time>
      </trkpt>
      <trkpt lat="45.28206" lon="0.32911">
        <ele>87</ele>
        <time>2015-10-06T13:37:26Z</time>
      </trkpt>
      <trkpt lat="45.28211" lon="0.32915">
        <ele>89</ele>
        <time>2015-10-06T13:37:31Z</time>
      </trkpt>
      <trkpt lat="45.28214" lon="0.32917">
        <ele>88</ele>
        <time>2015-10-06T13:37:36Z</time>
      </trkpt>
      <trkpt lat="45.28219" lon="0.3292">
        <ele>88</ele>
        <time>2015-10-06T13:37:40Z</time>
      </trkpt>
      <trkpt lat="45.28223" lon="0.32923">
        <ele>88</ele>
        <time>2015-10-06T13:37:45Z</time>
      </trkpt>
      <trkpt lat="45.28228" lon="0.32929">
        <ele>90</ele>
        <time>2015-10-06T13:37:50Z</time>
      </trkpt>
      <trkpt lat="45.28232" lon="0.32932">
        <ele>90</ele>
        <time>2015-10-06T13:37:54Z</time>
      </trkpt>
      <trkpt lat="45.28236" lon="0.32936">
        <ele>90</ele>
        <time>2015-10-06T13:37:59Z</time>
      </trkpt>
      <trkpt lat="45.28239" lon="0.32941">
        <ele>91</ele>
        <time>2015-10-06T13:38:03Z</time>
      </trkpt>
      <trkpt lat="45.28243" lon="0.32945">
        <ele>91</ele>
        <time>2015-10-06T13:38:07Z</time>
      </trkpt>
      <trkpt lat="45.28249" lon="0.32951">
        <ele>91</ele>
        <time>2015-10-06T13:38:12Z</time>
      </trkpt>
      <trkpt lat="45.28254" lon="0.32957">
        <ele>92</ele>
        <time>2015-10-06T13:38:17Z</time>
      </trkpt>
      <trkpt lat="45.28258" lon="0.32961">
        <ele>94</ele>
        <time>2015-10-06T13:38:21Z</time>
      </trkpt>
      <trkpt lat="45.28262" lon="0.32965">
        <ele>93</ele>
        <time>2015-10-06T13:38:25Z</time>
      </trkpt>
      <trkpt lat="45.28268" lon="0.32969">
        <ele>94</ele>
        <time>2015-10-06T13:38:30Z</time>
      </trkpt>
      <trkpt lat="45.28271" lon="0.32973">
        <ele>94</ele>
        <time>2015-10-06T13:38:33Z</time>
      </trkpt>
      <trkpt lat="45.28275" lon="0.32976">
        <ele>94</ele>
        <time>2015-10-06T13:38:37Z</time>
      </trkpt>
      <trkpt lat="45.2828" lon="0.3298">
        <ele>94</ele>
        <time>2015-10-06T13:38:41Z</time>
      </trkpt>
      <trkpt lat="45.28286" lon="0.32984">
        <ele>93</ele>
        <time>2015-10-06T13:38:46Z</time>
      </trkpt>
      <trkpt lat="45.2829" lon="0.32986">
        <ele>94</ele>
        <time>2015-10-06T13:38:50Z</time>
      </trkpt>
      <trkpt lat="45.28295" lon="0.32989">
        <ele>95</ele>
        <time>2015-10-06T13:38:54Z</time>
      </trkpt>
      <trkpt lat="45.28299" lon="0.32992">
        <ele>95</ele>
        <time>2015-10-06T13:38:58Z</time>
      </trkpt>
      <trkpt lat="45.28304" lon="0.32997">
        <ele>97</ele>
        <time>2015-10-06T13:39:03Z</time>
      </trkpt>
      <trkpt lat="45.28309" lon="0.32998">
        <ele>95</ele>
        <time>2015-10-06T13:39:07Z</time>
      </trkpt>
      <trkpt lat="45.28312" lon="0.33001">
        <ele>94</ele>
        <time>2015-10-06T13:39:12Z</time>
      </trkpt>
      <trkpt lat="45.28317" lon="0.33002">
        <ele>94</ele>
        <time>2015-10-06T13:39:17Z</time>
      </trkpt>
      <trkpt lat="45.28322" lon="0.33004">
        <ele>93</ele>
        <time>2015-10-06T13:39:21Z</time>
      </trkpt>
      <trkpt lat="45.28327" lon="0.33005">
        <ele>93</ele>
        <time>2015-10-06T13:39:25Z</time>
      </trkpt>
      <trkpt lat="45.28332" lon="0.33011">
        <ele>92</ele>
        <time>2015-10-06T13:39:30Z</time>
      </trkpt>
      <trkpt lat="45.28336" lon="0.33014">
        <ele>94</ele>
        <time>2015-10-06T13:39:33Z</time>
      </trkpt>
      <trkpt lat="45.28342" lon="0.33019">
        <ele>96</ele>
        <time>2015-10-06T13:39:38Z</time>
      </trkpt>
      <trkpt lat="45.28347" lon="0.33017">
        <ele>93</ele>
        <time>2015-10-06T13:39:43Z</time>
      </trkpt>
      <trkpt lat="45.28351" lon="0.33021">
        <ele>93</ele>
        <time>2015-10-06T13:39:48Z</time>
      </trkpt>
      <trkpt lat="45.28354" lon="0.33023">
        <ele>92</ele>
        <time>2015-10-06T13:39:53Z</time>
      </trkpt>
      <trkpt lat="45.28361" lon="0.33025">
        <ele>91</ele>
        <time>2015-10-06T13:39:58Z</time>
      </trkpt>
      <trkpt lat="45.28365" lon="0.33031">
        <ele>93</ele>
        <time>2015-10-06T13:40:02Z</time>
      </trkpt>
      <trkpt lat="45.28371" lon="0.33035">
        <ele>92</ele>
        <time>2015-10-06T13:40:07Z</time>
      </trkpt>
      <trkpt lat="45.28376" lon="0.33037">
        <ele>91</ele>
        <time>2015-10-06T13:40:11Z</time>
      </trkpt>
      <trkpt lat="45.28381" lon="0.33042">
        <ele>92</ele>
        <time>2015-10-06T13:40:16Z</time>
      </trkpt>
      <trkpt lat="45.28386" lon="0.33047">
        <ele>93</ele>
        <time>2015-10-06T13:40:20Z</time>
      </trkpt>
      <trkpt lat="45.28391" lon="0.33051">
        <ele>93</ele>
        <time>2015-10-06T13:40:24Z</time>
      </trkpt>
      <trkpt lat="45.28397" lon="0.33055">
        <ele>94</ele>
        <time>2015-10-06T13:40:29Z</time>
      </trkpt>
      <trkpt lat="45.28402" lon="0.33059">
        <ele>93</ele>
        <time>2015-10-06T13:40:33Z</time>
      </trkpt>
      <trkpt lat="45.28407" lon="0.33063">
        <ele>93</ele>
        <time>2015-10-06T13:40:37Z</time>
      </trkpt>
      <trkpt lat="45.2841" lon="0.33067">
        <ele>93</ele>
        <time>2015-10-06T13:40:41Z</time>
      </trkpt>
      <trkpt lat="45.28414" lon="0.33071">
        <ele>93</ele>
        <time>2015-10-06T13:40:45Z</time>
      </trkpt>
      <trkpt lat="45.28418" lon="0.33073">
        <ele>94</ele>
        <time>2015-10-06T13:40:48Z</time>
      </trkpt>
      <trkpt lat="45.28419" lon="0.33075">
        <ele>94</ele>
        <time>2015-10-06T13:40:54Z</time>
      </trkpt>
      <trkpt lat="45.28429" lon="0.33085">
        <ele>95</ele>
        <time>2015-10-06T13:40:59Z</time>
      </trkpt>
      <trkpt lat="45.28434" lon="0.33088">
        <ele>95</ele>
        <time>2015-10-06T13:41:04Z</time>
      </trkpt>
      <trkpt lat="45.2844" lon="0.3309">
        <ele>94</ele>
        <time>2015-10-06T13:41:08Z</time>
      </trkpt>
      <trkpt lat="45.28445" lon="0.33094">
        <ele>94</ele>
        <time>2015-10-06T13:41:12Z</time>
      </trkpt>
      <trkpt lat="45.28451" lon="0.33099">
        <ele>94</ele>
        <time>2015-10-06T13:41:17Z</time>
      </trkpt>
      <trkpt lat="45.28455" lon="0.33103">
        <ele>93</ele>
        <time>2015-10-06T13:41:21Z</time>
      </trkpt>
      <trkpt lat="45.28459" lon="0.33105">
        <ele>92</ele>
        <time>2015-10-06T13:41:25Z</time>
      </trkpt>
      <trkpt lat="45.28464" lon="0.33111">
        <ele>93</ele>
        <time>2015-10-06T13:41:30Z</time>
      </trkpt>
      <trkpt lat="45.28469" lon="0.33116">
        <ele>95</ele>
        <time>2015-10-06T13:41:35Z</time>
      </trkpt>
      <trkpt lat="45.28473" lon="0.3312">
        <ele>96</ele>
        <time>2015-10-06T13:41:39Z</time>
      </trkpt>
      <trkpt lat="45.28478" lon="0.33125">
        <ele>96</ele>
        <time>2015-10-06T13:41:44Z</time>
      </trkpt>
      <trkpt lat="45.28482" lon="0.33129">
        <ele>96</ele>
        <time>2015-10-06T13:41:48Z</time>
      </trkpt>
      <trkpt lat="45.28487" lon="0.33135">
        <ele>95</ele>
        <time>2015-10-06T13:41:53Z</time>
      </trkpt>
      <trkpt lat="45.28491" lon="0.33139">
        <ele>95</ele>
        <time>2015-10-06T13:41:58Z</time>
      </trkpt>
      <trkpt lat="45.28495" lon="0.33142">
        <ele>94</ele>
        <time>2015-10-06T13:42:02Z</time>
      </trkpt>
      <trkpt lat="45.28498" lon="0.33145">
        <ele>94</ele>
        <time>2015-10-06T13:42:06Z</time>
      </trkpt>
      <trkpt lat="45.28503" lon="0.33149">
        <ele>92</ele>
        <time>2015-10-06T13:42:11Z</time>
      </trkpt>
      <trkpt lat="45.28506" lon="0.33155">
        <ele>91</ele>
        <time>2015-10-06T13:42:16Z</time>
      </trkpt>
      <trkpt lat="45.28509" lon="0.33159">
        <ele>91</ele>
        <time>2015-10-06T13:42:19Z</time>
      </trkpt>
      <trkpt lat="45.28514" lon="0.33167">
        <ele>90</ele>
        <time>2015-10-06T13:42:24Z</time>
      </trkpt>
      <trkpt lat="45.28519" lon="0.33174">
        <ele>89</ele>
        <time>2015-10-06T13:42:29Z</time>
      </trkpt>
      <trkpt lat="45.28521" lon="0.33179">
        <ele>89</ele>
        <time>2015-10-06T13:42:33Z</time>
      </trkpt>
      <trkpt lat="45.28525" lon="0.33185">
        <ele>89</ele>
        <time>2015-10-06T13:42:38Z</time>
      </trkpt>
      <trkpt lat="45.28528" lon="0.33192">
        <ele>90</ele>
        <time>2015-10-06T13:42:42Z</time>
      </trkpt>
      <trkpt lat="45.28531" lon="0.33199">
        <ele>89</ele>
        <time>2015-10-06T13:42:47Z</time>
      </trkpt>
      <trkpt lat="45.28534" lon="0.33206">
        <ele>90</ele>
        <time>2015-10-06T13:42:52Z</time>
      </trkpt>
      <trkpt lat="45.28537" lon="0.33212">
        <ele>89</ele>
        <time>2015-10-06T13:42:57Z</time>
      </trkpt>
      <trkpt lat="45.2854" lon="0.33218">
        <ele>90</ele>
        <time>2015-10-06T13:43:01Z</time>
      </trkpt>
      <trkpt lat="45.28543" lon="0.33224">
        <ele>90</ele>
        <time>2015-10-06T13:43:05Z</time>
      </trkpt>
      <trkpt lat="45.28543" lon="0.33226">
        <ele>90</ele>
        <time>2015-10-06T13:43:10Z</time>
      </trkpt>
      <trkpt lat="45.28547" lon="0.3324">
        <ele>90</ele>
        <time>2015-10-06T13:43:15Z</time>
      </trkpt>
      <trkpt lat="45.28546" lon="0.33248">
        <ele>88</ele>
        <time>2015-10-06T13:43:20Z</time>
      </trkpt>
      <trkpt lat="45.28543" lon="0.33252">
        <ele>87</ele>
        <time>2015-10-06T13:43:25Z</time>
      </trkpt>
      <trkpt lat="45.28538" lon="0.33256">
        <ele>88</ele>
        <time>2015-10-06T13:43:30Z</time>
      </trkpt>
      <trkpt lat="45.28534" lon="0.33259">
        <ele>88</ele>
        <time>2015-10-06T13:43:34Z</time>
      </trkpt>
      <trkpt lat="45.2853" lon="0.3326">
        <ele>90</ele>
        <time>2015-10-06T13:43:39Z</time>
      </trkpt>
      <trkpt lat="45.28525" lon="0.33261">
        <ele>92</ele>
        <time>2015-10-06T13:43:44Z</time>
      </trkpt>
      <trkpt lat="45.28521" lon="0.33262">
        <ele>93</ele>
        <time>2015-10-06T13:43:48Z</time>
      </trkpt>
      <trkpt lat="45.28517" lon="0.33262">
        <ele>92</ele>
        <time>2015-10-06T13:43:52Z</time>
      </trkpt>
      <trkpt lat="45.28512" lon="0.33266">
        <ele>91</ele>
        <time>2015-10-06T13:43:56Z</time>
      </trkpt>
      <trkpt lat="45.28509" lon="0.33269">
        <ele>91</ele>
        <time>2015-10-06T13:44:01Z</time>
      </trkpt>
      <trkpt lat="45.28505" lon="0.33271">
        <ele>91</ele>
        <time>2015-10-06T13:44:05Z</time>
      </trkpt>
      <trkpt lat="45.28502" lon="0.33274">
        <ele>91</ele>
        <time>2015-10-06T13:44:09Z</time>
      </trkpt>
      <trkpt lat="45.28497" lon="0.33279">
        <ele>90</ele>
        <time>2015-10-06T13:44:14Z</time>
      </trkpt>
      <trkpt lat="45.28492" lon="0.33282">
        <ele>90</ele>
        <time>2015-10-06T13:44:18Z</time>
      </trkpt>
      <trkpt lat="45.28488" lon="0.33285">
        <ele>89</ele>
        <time>2015-10-06T13:44:22Z</time>
      </trkpt>
      <trkpt lat="45.28483" lon="0.33289">
        <ele>90</ele>
        <time>2015-10-06T13:44:27Z</time>
      </trkpt>
      <trkpt lat="45.28479" lon="0.33293">
        <ele>90</ele>
        <time>2015-10-06T13:44:31Z</time>
      </trkpt>
      <trkpt lat="45.28476" lon="0.33296">
        <ele>91</ele>
        <time>2015-10-06T13:44:36Z</time>
      </trkpt>
      <trkpt lat="45.28471" lon="0.33302">
        <ele>89</ele>
        <time>2015-10-06T13:44:40Z</time>
      </trkpt>
      <trkpt lat="45.28467" lon="0.33306">
        <ele>91</ele>
        <time>2015-10-06T13:44:44Z</time>
      </trkpt>
      <trkpt lat="45.28463" lon="0.33308">
        <ele>94</ele>
        <time>2015-10-06T13:44:49Z</time>
      </trkpt>
      <trkpt lat="45.2846" lon="0.33313">
        <ele>93</ele>
        <time>2015-10-06T13:44:53Z</time>
      </trkpt>
      <trkpt lat="45.28454" lon="0.33317">
        <ele>93</ele>
        <time>2015-10-06T13:44:58Z</time>
      </trkpt>
      <trkpt lat="45.2845" lon="0.33319">
        <ele>95</ele>
        <time>2015-10-06T13:45:02Z</time>
      </trkpt>
      <trkpt lat="45.28447" lon="0.33322">
        <ele>96</ele>
        <time>2015-10-06T13:45:08Z</time>
      </trkpt>
      <trkpt lat="45.28443" lon="0.33324">
        <ele>97</ele>
        <time>2015-10-06T13:45:12Z</time>
      </trkpt>
      <trkpt lat="45.28438" lon="0.33325">
        <ele>97</ele>
        <time>2015-10-06T13:45:17Z</time>
      </trkpt>
      <trkpt lat="45.28435" lon="0.33327">
        <ele>100</ele>
        <time>2015-10-06T13:45:23Z</time>
      </trkpt>
      <trkpt lat="45.2843" lon="0.33332">
        <ele>102</ele>
        <time>2015-10-06T13:45:28Z</time>
      </trkpt>
      <trkpt lat="45.28427" lon="0.33335">
        <ele>103</ele>
        <time>2015-10-06T13:45:33Z</time>
      </trkpt>
      <trkpt lat="45.28423" lon="0.33336">
        <ele>104</ele>
        <time>2015-10-06T13:45:38Z</time>
      </trkpt>
      <trkpt lat="45.2842" lon="0.33341">
        <ele>104</ele>
        <time>2015-10-06T13:45:42Z</time>
      </trkpt>
      <trkpt lat="45.28415" lon="0.33343">
        <ele>104</ele>
        <time>2015-10-06T13:45:47Z</time>
      </trkpt>
      <trkpt lat="45.28412" lon="0.33344">
        <ele>105</ele>
        <time>2015-10-06T13:45:52Z</time>
      </trkpt>
      <trkpt lat="45.28407" lon="0.33345">
        <ele>106</ele>
        <time>2015-10-06T13:45:57Z</time>
      </trkpt>
      <trkpt lat="45.28403" lon="0.33344">
        <ele>107</ele>
        <time>2015-10-06T13:46:01Z</time>
      </trkpt>
      <trkpt lat="45.28399" lon="0.33346">
        <ele>109</ele>
        <time>2015-10-06T13:46:06Z</time>
      </trkpt>
      <trkpt lat="45.28396" lon="0.33349">
        <ele>109</ele>
        <time>2015-10-06T13:46:12Z</time>
      </trkpt>
      <trkpt lat="45.28391" lon="0.33349">
        <ele>110</ele>
        <time>2015-10-06T13:46:17Z</time>
      </trkpt>
      <trkpt lat="45.28387" lon="0.33349">
        <ele>111</ele>
        <time>2015-10-06T13:46:21Z</time>
      </trkpt>
      <trkpt lat="45.28383" lon="0.33352">
        <ele>112</ele>
        <time>2015-10-06T13:46:25Z</time>
      </trkpt>
      <trkpt lat="45.28378" lon="0.33354">
        <ele>113</ele>
        <time>2015-10-06T13:46:29Z</time>
      </trkpt>
      <trkpt lat="45.28374" lon="0.33355">
        <ele>116</ele>
        <time>2015-10-06T13:46:33Z</time>
      </trkpt>
      <trkpt lat="45.28368" lon="0.33358">
        <ele>117</ele>
        <time>2015-10-06T13:46:38Z</time>
      </trkpt>
      <trkpt lat="45.28365" lon="0.33368">
        <ele>112</ele>
        <time>2015-10-06T13:46:42Z</time>
      </trkpt>
      <trkpt lat="45.28361" lon="0.33374">
        <ele>111</ele>
        <time>2015-10-06T13:46:47Z</time>
      </trkpt>
      <trkpt lat="45.28357" lon="0.33381">
        <ele>109</ele>
        <time>2015-10-06T13:46:51Z</time>
      </trkpt>
      <trkpt lat="45.28355" lon="0.33385">
        <ele>109</ele>
        <time>2015-10-06T13:46:55Z</time>
      </trkpt>
      <trkpt lat="45.28351" lon="0.33387">
        <ele>111</ele>
        <time>2015-10-06T13:46:59Z</time>
      </trkpt>
      <trkpt lat="45.28348" lon="0.33393">
        <ele>110</ele>
        <time>2015-10-06T13:47:03Z</time>
      </trkpt>
      <trkpt lat="45.28345" lon="0.33396">
        <ele>110</ele>
        <time>2015-10-06T13:47:06Z</time>
      </trkpt>
      <trkpt lat="45.28341" lon="0.33402">
        <ele>110</ele>
        <time>2015-10-06T13:47:11Z</time>
      </trkpt>
      <trkpt lat="45.28337" lon="0.33406">
        <ele>110</ele>
        <time>2015-10-06T13:47:15Z</time>
      </trkpt>
      <trkpt lat="45.28333" lon="0.33413">
        <ele>109</ele>
        <time>2015-10-06T13:47:20Z</time>
      </trkpt>
      <trkpt lat="45.28329" lon="0.33415">
        <ele>110</ele>
        <time>2015-10-06T13:47:24Z</time>
      </trkpt>
      <trkpt lat="45.28325" lon="0.33416">
        <ele>112</ele>
        <time>2015-10-06T13:47:28Z</time>
      </trkpt>
      <trkpt lat="45.28321" lon="0.33421">
        <ele>113</ele>
        <time>2015-10-06T13:47:32Z</time>
      </trkpt>
      <trkpt lat="45.28318" lon="0.33423">
        <ele>112</ele>
        <time>2015-10-06T13:47:36Z</time>
      </trkpt>
      <trkpt lat="45.28314" lon="0.33426">
        <ele>115</ele>
        <time>2015-10-06T13:47:41Z</time>
      </trkpt>
      <trkpt lat="45.2831" lon="0.33429">
        <ele>116</ele>
        <time>2015-10-06T13:47:45Z</time>
      </trkpt>
      <trkpt lat="45.28306" lon="0.33431">
        <ele>118</ele>
        <time>2015-10-06T13:47:49Z</time>
      </trkpt>
      <trkpt lat="45.28304" lon="0.33434">
        <ele>119</ele>
        <time>2015-10-06T13:47:52Z</time>
      </trkpt>
      <trkpt lat="45.28298" lon="0.33437">
        <ele>119</ele>
        <time>2015-10-06T13:47:56Z</time>
      </trkpt>
      <trkpt lat="45.28293" lon="0.33441">
        <ele>118</ele>
        <time>2015-10-06T13:48:00Z</time>
      </trkpt>
      <trkpt lat="45.2829" lon="0.33445">
        <ele>116</ele>
        <time>2015-10-06T13:48:03Z</time>
      </trkpt>
      <trkpt lat="45.28285" lon="0.33451">
        <ele>114</ele>
        <time>2015-10-06T13:48:08Z</time>
      </trkpt>
      <trkpt lat="45.28282" lon="0.33455">
        <ele>116</ele>
        <time>2015-10-06T13:48:13Z</time>
      </trkpt>
      <trkpt lat="45.28276" lon="0.3346">
        <ele>115</ele>
        <time>2015-10-06T13:48:18Z</time>
      </trkpt>
      <trkpt lat="45.28272" lon="0.33463">
        <ele>115</ele>
        <time>2015-10-06T13:48:23Z</time>
      </trkpt>
      <trkpt lat="45.28268" lon="0.33467">
        <ele>115</ele>
        <time>2015-10-06T13:48:28Z</time>
      </trkpt>
      <trkpt lat="45.28264" lon="0.33468">
        <ele>117</ele>
        <time>2015-10-06T13:48:34Z</time>
      </trkpt>
      <trkpt lat="45.2826" lon="0.33468">
        <ele>118</ele>
        <time>2015-10-06T13:48:39Z</time>
      </trkpt>
      <trkpt lat="45.28256" lon="0.3347">
        <ele>118</ele>
        <time>2015-10-06T13:48:44Z</time>
      </trkpt>
      <trkpt lat="45.28252" lon="0.33469">
        <ele>121</ele>
        <time>2015-10-06T13:48:49Z</time>
      </trkpt>
      <trkpt lat="45.28249" lon="0.33472">
        <ele>122</ele>
        <time>2015-10-06T13:48:58Z</time>
      </trkpt>
      <trkpt lat="45.28242" lon="0.33475">
        <ele>121</ele>
        <time>2015-10-06T13:49:02Z</time>
      </trkpt>
      <trkpt lat="45.28233" lon="0.33472">
        <ele>122</ele>
        <time>2015-10-06T13:49:06Z</time>
      </trkpt>
      <trkpt lat="45.28229" lon="0.33473">
        <ele>123</ele>
        <time>2015-10-06T13:49:14Z</time>
      </trkpt>
      <trkpt lat="45.28219" lon="0.33479">
        <ele>119</ele>
        <time>2015-10-06T13:49:19Z</time>
      </trkpt>
      <trkpt lat="45.28215" lon="0.33478">
        <ele>121</ele>
        <time>2015-10-06T13:49:24Z</time>
      </trkpt>
      <trkpt lat="45.2821" lon="0.33478">
        <ele>121</ele>
        <time>2015-10-06T13:49:29Z</time>
      </trkpt>
      <trkpt lat="45.28205" lon="0.33477">
        <ele>123</ele>
        <time>2015-10-06T13:49:33Z</time>
      </trkpt>
      <trkpt lat="45.28201" lon="0.33479">
        <ele>122</ele>
        <time>2015-10-06T13:49:37Z</time>
      </trkpt>
      <trkpt lat="45.28197" lon="0.3348">
        <ele>122</ele>
        <time>2015-10-06T13:49:41Z</time>
      </trkpt>
      <trkpt lat="45.28193" lon="0.33479">
        <ele>123</ele>
        <time>2015-10-06T13:49:45Z</time>
      </trkpt>
      <trkpt lat="45.28189" lon="0.3348">
        <ele>124</ele>
        <time>2015-10-06T13:49:49Z</time>
      </trkpt>
      <trkpt lat="45.28185" lon="0.33483">
        <ele>124</ele>
        <time>2015-10-06T13:49:53Z</time>
      </trkpt>
      <trkpt lat="45.2818" lon="0.33489">
        <ele>122</ele>
        <time>2015-10-06T13:49:58Z</time>
      </trkpt>
      <trkpt lat="45.28177" lon="0.33493">
        <ele>118</ele>
        <time>2015-10-06T13:50:08Z</time>
      </trkpt>
      <trkpt lat="45.28174" lon="0.33498">
        <ele>118</ele>
        <time>2015-10-06T13:51:33Z</time>
      </trkpt>
      <trkpt lat="45.28171" lon="0.33501">
        <ele>121</ele>
        <time>2015-10-06T13:53:12Z</time>
      </trkpt>
      <trkpt lat="45.28166" lon="0.33502">
        <ele>120</ele>
        <time>2015-10-06T13:53:20Z</time>
      </trkpt>
      <trkpt lat="45.28163" lon="0.33502">
        <ele>121</ele>
        <time>2015-10-06T13:53:24Z</time>
      </trkpt>
      <trkpt lat="45.28159" lon="0.33502">
        <ele>120</ele>
        <time>2015-10-06T13:53:28Z</time>
      </trkpt>
      <trkpt lat="45.28155" lon="0.33504">
        <ele>121</ele>
        <time>2015-10-06T13:53:32Z</time>
      </trkpt>
      <trkpt lat="45.28151" lon="0.33504">
        <ele>121</ele>
        <time>2015-10-06T13:53:36Z</time>
      </trkpt>
      <trkpt lat="45.28146" lon="0.33504">
        <ele>122</ele>
        <time>2015-10-06T13:53:40Z</time>
      </trkpt>
      <trkpt lat="45.28142" lon="0.33504">
        <ele>122</ele>
        <time>2015-10-06T13:53:46Z</time>
      </trkpt>
      <trkpt lat="45.28137" lon="0.33503">
        <ele>123</ele>
        <time>2015-10-06T13:53:50Z</time>
      </trkpt>
      <trkpt lat="45.28133" lon="0.33504">
        <ele>123</ele>
        <time>2015-10-06T13:54:00Z</time>
      </trkpt>
      <trkpt lat="45.2812" lon="0.33509">
        <ele>123</ele>
        <time>2015-10-06T13:54:05Z</time>
      </trkpt>
      <trkpt lat="45.28116" lon="0.33512">
        <ele>123</ele>
        <time>2015-10-06T13:54:09Z</time>
      </trkpt>
      <trkpt lat="45.28111" lon="0.33515">
        <ele>122</ele>
        <time>2015-10-06T13:54:14Z</time>
      </trkpt>
      <trkpt lat="45.28106" lon="0.33518">
        <ele>123</ele>
        <time>2015-10-06T13:54:19Z</time>
      </trkpt>
      <trkpt lat="45.28101" lon="0.33522">
        <ele>122</ele>
        <time>2015-10-06T13:54:23Z</time>
      </trkpt>
      <trkpt lat="45.28097" lon="0.33524">
        <ele>122</ele>
        <time>2015-10-06T13:54:27Z</time>
      </trkpt>
      <trkpt lat="45.28092" lon="0.33529">
        <ele>122</ele>
        <time>2015-10-06T13:54:32Z</time>
      </trkpt>
      <trkpt lat="45.28088" lon="0.33533">
        <ele>122</ele>
        <time>2015-10-06T13:54:36Z</time>
      </trkpt>
      <trkpt lat="45.28084" lon="0.33536">
        <ele>123</ele>
        <time>2015-10-06T13:54:40Z</time>
      </trkpt>
      <trkpt lat="45.2808" lon="0.33539">
        <ele>124</ele>
        <time>2015-10-06T13:54:44Z</time>
      </trkpt>
      <trkpt lat="45.28074" lon="0.33542">
        <ele>125</ele>
        <time>2015-10-06T13:54:49Z</time>
      </trkpt>
      <trkpt lat="45.28071" lon="0.33545">
        <ele>125</ele>
        <time>2015-10-06T13:54:53Z</time>
      </trkpt>
      <trkpt lat="45.28063" lon="0.33549">
        <ele>125</ele>
        <time>2015-10-06T13:54:58Z</time>
      </trkpt>
      <trkpt lat="45.28058" lon="0.33552">
        <ele>125</ele>
        <time>2015-10-06T13:55:03Z</time>
      </trkpt>
      <trkpt lat="45.28053" lon="0.33555">
        <ele>125</ele>
        <time>2015-10-06T13:55:08Z</time>
      </trkpt>
      <trkpt lat="45.28047" lon="0.3356">
        <ele>125</ele>
        <time>2015-10-06T13:55:13Z</time>
      </trkpt>
      <trkpt lat="45.28043" lon="0.33565">
        <ele>126</ele>
        <time>2015-10-06T13:55:18Z</time>
      </trkpt>
      <trkpt lat="45.28039" lon="0.33569">
        <ele>125</ele>
        <time>2015-10-06T13:55:22Z</time>
      </trkpt>
      <trkpt lat="45.28035" lon="0.3357">
        <ele>127</ele>
        <time>2015-10-06T13:55:27Z</time>
      </trkpt>
      <trkpt lat="45.2803" lon="0.33575">
        <ele>127</ele>
        <time>2015-10-06T13:55:32Z</time>
      </trkpt>
      <trkpt lat="45.28028" lon="0.33575">
        <ele>128</ele>
        <time>2015-10-06T13:55:36Z</time>
      </trkpt>
      <trkpt lat="45.28018" lon="0.33575">
        <ele>129</ele>
        <time>2015-10-06T13:55:41Z</time>
      </trkpt>
      <trkpt lat="45.28014" lon="0.33576">
        <ele>130</ele>
        <time>2015-10-06T13:55:45Z</time>
      </trkpt>
      <trkpt lat="45.28009" lon="0.33578">
        <ele>131</ele>
        <time>2015-10-06T13:55:49Z</time>
      </trkpt>
      <trkpt lat="45.28005" lon="0.3358">
        <ele>134</ele>
        <time>2015-10-06T13:55:54Z</time>
      </trkpt>
      <trkpt lat="45.28001" lon="0.33581">
        <ele>136</ele>
        <time>2015-10-06T13:55:59Z</time>
      </trkpt>
      <trkpt lat="45.27997" lon="0.33585">
        <ele>137</ele>
        <time>2015-10-06T13:56:04Z</time>
      </trkpt>
      <trkpt lat="45.27995" lon="0.33586">
        <ele>139</ele>
        <time>2015-10-06T13:56:07Z</time>
      </trkpt>
      <trkpt lat="45.27987" lon="0.33585">
        <ele>139</ele>
        <time>2015-10-06T13:56:11Z</time>
      </trkpt>
      <trkpt lat="45.2798" lon="0.33586">
        <ele>138</ele>
        <time>2015-10-06T13:56:16Z</time>
      </trkpt>
      <trkpt lat="45.27974" lon="0.33586">
        <ele>138</ele>
        <time>2015-10-06T13:56:21Z</time>
      </trkpt>
      <trkpt lat="45.2797" lon="0.33588">
        <ele>139</ele>
        <time>2015-10-06T13:56:25Z</time>
      </trkpt>
      <trkpt lat="45.27964" lon="0.33587">
        <ele>140</ele>
        <time>2015-10-06T13:56:29Z</time>
      </trkpt>
      <trkpt lat="45.27959" lon="0.33586">
        <ele>144</ele>
        <time>2015-10-06T13:56:34Z</time>
      </trkpt>
      <trkpt lat="45.27954" lon="0.33583">
        <ele>145</ele>
        <time>2015-10-06T13:56:38Z</time>
      </trkpt>
      <trkpt lat="45.2795" lon="0.33587">
        <ele>146</ele>
        <time>2015-10-06T13:56:43Z</time>
      </trkpt>
      <trkpt lat="45.27945" lon="0.33594">
        <ele>140</ele>
        <time>2015-10-06T13:56:48Z</time>
      </trkpt>
      <trkpt lat="45.27942" lon="0.33599">
        <ele>140</ele>
        <time>2015-10-06T13:56:55Z</time>
      </trkpt>
      <trkpt lat="45.27935" lon="0.33597">
        <ele>140</ele>
        <time>2015-10-06T13:56:59Z</time>
      </trkpt>
      <trkpt lat="45.2793" lon="0.33599">
        <ele>137</ele>
        <time>2015-10-06T13:57:02Z</time>
      </trkpt>
      <trkpt lat="45.27926" lon="0.33602">
        <ele>136</ele>
        <time>2015-10-06T13:57:07Z</time>
      </trkpt>
      <trkpt lat="45.27918" lon="0.33607">
        <ele>134</ele>
        <time>2015-10-06T13:57:11Z</time>
      </trkpt>
      <trkpt lat="45.27913" lon="0.3361">
        <ele>135</ele>
        <time>2015-10-06T13:57:15Z</time>
      </trkpt>
      <trkpt lat="45.27911" lon="0.33616">
        <ele>135</ele>
        <time>2015-10-06T13:57:19Z</time>
      </trkpt>
      <trkpt lat="45.27911" lon="0.3362">
        <ele>135</ele>
        <time>2015-10-06T13:57:23Z</time>
      </trkpt>
      <trkpt lat="45.27913" lon="0.33629">
        <ele>135</ele>
        <time>2015-10-06T13:57:28Z</time>
      </trkpt>
      <trkpt lat="45.27913" lon="0.33635">
        <ele>135</ele>
        <time>2015-10-06T13:57:32Z</time>
      </trkpt>
      <trkpt lat="45.27914" lon="0.33639">
        <ele>136</ele>
        <time>2015-10-06T13:57:38Z</time>
      </trkpt>
      <trkpt lat="45.27917" lon="0.33652">
        <ele>134</ele>
        <time>2015-10-06T13:57:42Z</time>
      </trkpt>
      <trkpt lat="45.27918" lon="0.33661">
        <ele>133</ele>
        <time>2015-10-06T13:57:47Z</time>
      </trkpt>
      <trkpt lat="45.27919" lon="0.33669">
        <ele>133</ele>
        <time>2015-10-06T13:57:52Z</time>
      </trkpt>
      <trkpt lat="45.2792" lon="0.33677">
        <ele>133</ele>
        <time>2015-10-06T13:57:57Z</time>
      </trkpt>
      <trkpt lat="45.27922" lon="0.33684">
        <ele>132</ele>
        <time>2015-10-06T13:58:01Z</time>
      </trkpt>
      <trkpt lat="45.27924" lon="0.33693">
        <ele>131</ele>
        <time>2015-10-06T13:58:06Z</time>
      </trkpt>
      <trkpt lat="45.27925" lon="0.337">
        <ele>133</ele>
        <time>2015-10-06T13:58:11Z</time>
      </trkpt>
      <trkpt lat="45.27927" lon="0.33705">
        <ele>134</ele>
        <time>2015-10-06T13:58:15Z</time>
      </trkpt>
      <trkpt lat="45.27929" lon="0.3371">
        <ele>134</ele>
        <time>2015-10-06T13:58:19Z</time>
      </trkpt>
      <trkpt lat="45.2793" lon="0.33718">
        <ele>136</ele>
        <time>2015-10-06T13:58:24Z</time>
      </trkpt>
      <trkpt lat="45.2793" lon="0.33724">
        <ele>137</ele>
        <time>2015-10-06T13:58:29Z</time>
      </trkpt>
      <trkpt lat="45.27934" lon="0.33731">
        <ele>135</ele>
        <time>2015-10-06T13:58:33Z</time>
      </trkpt>
      <trkpt lat="45.27937" lon="0.3374">
        <ele>134</ele>
        <time>2015-10-06T13:58:38Z</time>
      </trkpt>
      <trkpt lat="45.27937" lon="0.33747">
        <ele>135</ele>
        <time>2015-10-06T13:58:43Z</time>
      </trkpt>
      <trkpt lat="45.2794" lon="0.33753">
        <ele>133</ele>
        <time>2015-10-06T13:58:47Z</time>
      </trkpt>
      <trkpt lat="45.27942" lon="0.3376">
        <ele>133</ele>
        <time>2015-10-06T13:58:51Z</time>
      </trkpt>
      <trkpt lat="45.27945" lon="0.33769">
        <ele>133</ele>
        <time>2015-10-06T13:58:56Z</time>
      </trkpt>
      <trkpt lat="45.27948" lon="0.33775">
        <ele>133</ele>
        <time>2015-10-06T13:59:00Z</time>
      </trkpt>
      <trkpt lat="45.27949" lon="0.33781">
        <ele>133</ele>
        <time>2015-10-06T13:59:04Z</time>
      </trkpt>
      <trkpt lat="45.27952" lon="0.33788">
        <ele>133</ele>
        <time>2015-10-06T13:59:08Z</time>
      </trkpt>
      <trkpt lat="45.27954" lon="0.33793">
        <ele>133</ele>
        <time>2015-10-06T13:59:11Z</time>
      </trkpt>
      <trkpt lat="45.27953" lon="0.33798">
        <ele>134</ele>
        <time>2015-10-06T13:59:17Z</time>
      </trkpt>
      <trkpt lat="45.27954" lon="0.33806">
        <ele>136</ele>
        <time>2015-10-06T13:59:21Z</time>
      </trkpt>
      <trkpt lat="45.27958" lon="0.33813">
        <ele>136</ele>
        <time>2015-10-06T13:59:25Z</time>
      </trkpt>
      <trkpt lat="45.2796" lon="0.33823">
        <ele>135</ele>
        <time>2015-10-06T13:59:30Z</time>
      </trkpt>
      <trkpt lat="45.27963" lon="0.3383">
        <ele>134</ele>
        <time>2015-10-06T13:59:34Z</time>
      </trkpt>
      <trkpt lat="45.27964" lon="0.33837">
        <ele>135</ele>
        <time>2015-10-06T13:59:38Z</time>
      </trkpt>
      <trkpt lat="45.27967" lon="0.33845">
        <ele>135</ele>
        <time>2015-10-06T13:59:43Z</time>
      </trkpt>
      <trkpt lat="45.27969" lon="0.3385">
        <ele>135</ele>
        <time>2015-10-06T13:59:49Z</time>
      </trkpt>
      <trkpt lat="45.27972" lon="0.33859">
        <ele>134</ele>
        <time>2015-10-06T13:59:54Z</time>
      </trkpt>
      <trkpt lat="45.27975" lon="0.33867">
        <ele>134</ele>
        <time>2015-10-06T13:59:59Z</time>
      </trkpt>
      <trkpt lat="45.27977" lon="0.33873">
        <ele>134</ele>
        <time>2015-10-06T14:00:04Z</time>
      </trkpt>
      <trkpt lat="45.27979" lon="0.3388">
        <ele>134</ele>
        <time>2015-10-06T14:00:09Z</time>
      </trkpt>
      <trkpt lat="45.27981" lon="0.33889">
        <ele>135</ele>
        <time>2015-10-06T14:00:14Z</time>
      </trkpt>
      <trkpt lat="45.27983" lon="0.33894">
        <ele>135</ele>
        <time>2015-10-06T14:00:18Z</time>
      </trkpt>
      <trkpt lat="45.27985" lon="0.33901">
        <ele>135</ele>
        <time>2015-10-06T14:00:23Z</time>
      </trkpt>
      <trkpt lat="45.27984" lon="0.33906">
        <ele>138</ele>
        <time>2015-10-06T14:00:28Z</time>
      </trkpt>
      <trkpt lat="45.27987" lon="0.33918">
        <ele>138</ele>
        <time>2015-10-06T14:00:33Z</time>
      </trkpt>
      <trkpt lat="45.27988" lon="0.33924">
        <ele>138</ele>
        <time>2015-10-06T14:00:37Z</time>
      </trkpt>
      <trkpt lat="45.27989" lon="0.33931">
        <ele>138</ele>
        <time>2015-10-06T14:00:42Z</time>
      </trkpt>
      <trkpt lat="45.27991" lon="0.33936">
        <ele>138</ele>
        <time>2015-10-06T14:00:46Z</time>
      </trkpt>
      <trkpt lat="45.27993" lon="0.33942">
        <ele>138</ele>
        <time>2015-10-06T14:00:50Z</time>
      </trkpt>
      <trkpt lat="45.27995" lon="0.33946">
        <ele>138</ele>
        <time>2015-10-06T14:00:54Z</time>
      </trkpt>
      <trkpt lat="45.27997" lon="0.33955">
        <ele>139</ele>
        <time>2015-10-06T14:00:59Z</time>
      </trkpt>
      <trkpt lat="45.27999" lon="0.33962">
        <ele>138</ele>
        <time>2015-10-06T14:01:03Z</time>
      </trkpt>
      <trkpt lat="45.28002" lon="0.33968">
        <ele>138</ele>
        <time>2015-10-06T14:01:08Z</time>
      </trkpt>
      <trkpt lat="45.28003" lon="0.33976">
        <ele>137</ele>
        <time>2015-10-06T14:01:13Z</time>
      </trkpt>
      <trkpt lat="45.28005" lon="0.33983">
        <ele>138</ele>
        <time>2015-10-06T14:01:18Z</time>
      </trkpt>
      <trkpt lat="45.28007" lon="0.3399">
        <ele>138</ele>
        <time>2015-10-06T14:01:22Z</time>
      </trkpt>
      <trkpt lat="45.28009" lon="0.33995">
        <ele>139</ele>
        <time>2015-10-06T14:01:26Z</time>
      </trkpt>
      <trkpt lat="45.28012" lon="0.34003">
        <ele>139</ele>
        <time>2015-10-06T14:01:31Z</time>
      </trkpt>
      <trkpt lat="45.28014" lon="0.3401">
        <ele>139</ele>
        <time>2015-10-06T14:01:35Z</time>
      </trkpt>
      <trkpt lat="45.28017" lon="0.34015">
        <ele>140</ele>
        <time>2015-10-06T14:01:43Z</time>
      </trkpt>
      <trkpt lat="45.28022" lon="0.34027">
        <ele>140</ele>
        <time>2015-10-06T14:01:47Z</time>
      </trkpt>
      <trkpt lat="45.28025" lon="0.34035">
        <ele>140</ele>
        <time>2015-10-06T14:01:51Z</time>
      </trkpt>
      <trkpt lat="45.28027" lon="0.3404">
        <ele>139</ele>
        <time>2015-10-06T14:01:55Z</time>
      </trkpt>
      <trkpt lat="45.28029" lon="0.34049">
        <ele>139</ele>
        <time>2015-10-06T14:02:00Z</time>
      </trkpt>
      <trkpt lat="45.2803" lon="0.34053">
        <ele>139</ele>
        <time>2015-10-06T14:02:04Z</time>
      </trkpt>
      <trkpt lat="45.28034" lon="0.34062">
        <ele>140</ele>
        <time>2015-10-06T14:02:09Z</time>
      </trkpt>
      <trkpt lat="45.28037" lon="0.34069">
        <ele>140</ele>
        <time>2015-10-06T14:02:13Z</time>
      </trkpt>
      <trkpt lat="45.2804" lon="0.34074">
        <ele>140</ele>
        <time>2015-10-06T14:02:17Z</time>
      </trkpt>
      <trkpt lat="45.28044" lon="0.3408">
        <ele>141</ele>
        <time>2015-10-06T14:02:21Z</time>
      </trkpt>
      <trkpt lat="45.28049" lon="0.34085">
        <ele>141</ele>
        <time>2015-10-06T14:02:26Z</time>
      </trkpt>
      <trkpt lat="45.28055" lon="0.3409">
        <ele>141</ele>
        <time>2015-10-06T14:02:31Z</time>
      </trkpt>
      <trkpt lat="45.28059" lon="0.34095">
        <ele>141</ele>
        <time>2015-10-06T14:02:35Z</time>
      </trkpt>
      <trkpt lat="45.28064" lon="0.341">
        <ele>141</ele>
        <time>2015-10-06T14:02:39Z</time>
      </trkpt>
      <trkpt lat="45.28068" lon="0.34105">
        <ele>142</ele>
        <time>2015-10-06T14:02:44Z</time>
      </trkpt>
      <trkpt lat="45.28072" lon="0.34109">
        <ele>142</ele>
        <time>2015-10-06T14:02:48Z</time>
      </trkpt>
      <trkpt lat="45.28075" lon="0.34112">
        <ele>142</ele>
        <time>2015-10-06T14:02:53Z</time>
      </trkpt>
      <trkpt lat="45.28078" lon="0.34115">
        <ele>142</ele>
        <time>2015-10-06T14:02:59Z</time>
      </trkpt>
      <trkpt lat="45.28083" lon="0.3412">
        <ele>141</ele>
        <time>2015-10-06T14:03:03Z</time>
      </trkpt>
      <trkpt lat="45.28086" lon="0.34124">
        <ele>142</ele>
        <time>2015-10-06T14:03:07Z</time>
      </trkpt>
      <trkpt lat="45.28091" lon="0.34128">
        <ele>141</ele>
        <time>2015-10-06T14:03:12Z</time>
      </trkpt>
      <trkpt lat="45.28096" lon="0.34131">
        <ele>141</ele>
        <time>2015-10-06T14:03:17Z</time>
      </trkpt>
      <trkpt lat="45.28099" lon="0.34134">
        <ele>140</ele>
        <time>2015-10-06T14:03:20Z</time>
      </trkpt>
      <trkpt lat="45.28103" lon="0.34138">
        <ele>142</ele>
        <time>2015-10-06T14:03:25Z</time>
      </trkpt>
      <trkpt lat="45.28106" lon="0.34141">
        <ele>142</ele>
        <time>2015-10-06T14:03:40Z</time>
      </trkpt>
      <trkpt lat="45.28109" lon="0.34145">
        <ele>143</ele>
        <time>2015-10-06T14:03:44Z</time>
      </trkpt>
      <trkpt lat="45.28114" lon="0.34149">
        <ele>144</ele>
        <time>2015-10-06T14:03:49Z</time>
      </trkpt>
      <trkpt lat="45.28118" lon="0.34153">
        <ele>145</ele>
        <time>2015-10-06T14:03:53Z</time>
      </trkpt>
      <trkpt lat="45.28123" lon="0.34157">
        <ele>145</ele>
        <time>2015-10-06T14:03:58Z</time>
      </trkpt>
      <trkpt lat="45.28126" lon="0.3416">
        <ele>144</ele>
        <time>2015-10-06T14:04:02Z</time>
      </trkpt>
      <trkpt lat="45.2813" lon="0.34165">
        <ele>144</ele>
        <time>2015-10-06T14:04:07Z</time>
      </trkpt>
      <trkpt lat="45.28134" lon="0.34171">
        <ele>143</ele>
        <time>2015-10-06T14:04:11Z</time>
      </trkpt>
      <trkpt lat="45.2814" lon="0.34173">
        <ele>141</ele>
        <time>2015-10-06T14:04:16Z</time>
      </trkpt>
      <trkpt lat="45.28144" lon="0.34176">
        <ele>143</ele>
        <time>2015-10-06T14:04:21Z</time>
      </trkpt>
      <trkpt lat="45.28147" lon="0.34182">
        <ele>142</ele>
        <time>2015-10-06T14:04:26Z</time>
      </trkpt>
      <trkpt lat="45.28152" lon="0.34186">
        <ele>143</ele>
        <time>2015-10-06T14:04:31Z</time>
      </trkpt>
      <trkpt lat="45.28155" lon="0.3419">
        <ele>143</ele>
        <time>2015-10-06T14:04:35Z</time>
      </trkpt>
      <trkpt lat="45.2816" lon="0.34192">
        <ele>142</ele>
        <time>2015-10-06T14:04:40Z</time>
      </trkpt>
      <trkpt lat="45.28164" lon="0.34193">
        <ele>140</ele>
        <time>2015-10-06T14:05:22Z</time>
      </trkpt>
      <trkpt lat="45.28168" lon="0.34198">
        <ele>140</ele>
        <time>2015-10-06T14:05:27Z</time>
      </trkpt>
      <trkpt lat="45.28171" lon="0.34203">
        <ele>141</ele>
        <time>2015-10-06T14:05:32Z</time>
      </trkpt>
      <trkpt lat="45.28176" lon="0.34209">
        <ele>141</ele>
        <time>2015-10-06T14:05:37Z</time>
      </trkpt>
      <trkpt lat="45.28179" lon="0.34214">
        <ele>140</ele>
        <time>2015-10-06T14:05:41Z</time>
      </trkpt>
      <trkpt lat="45.28182" lon="0.34218">
        <ele>141</ele>
        <time>2015-10-06T14:05:45Z</time>
      </trkpt>
      <trkpt lat="45.28187" lon="0.34222">
        <ele>141</ele>
        <time>2015-10-06T14:05:49Z</time>
      </trkpt>
      <trkpt lat="45.2819" lon="0.34226">
        <ele>141</ele>
        <time>2015-10-06T14:05:54Z</time>
      </trkpt>
      <trkpt lat="45.28195" lon="0.34232">
        <ele>142</ele>
        <time>2015-10-06T14:05:59Z</time>
      </trkpt>
      <trkpt lat="45.28198" lon="0.34235">
        <ele>143</ele>
        <time>2015-10-06T14:06:03Z</time>
      </trkpt>
      <trkpt lat="45.28201" lon="0.34241">
        <ele>144</ele>
        <time>2015-10-06T14:06:08Z</time>
      </trkpt>
      <trkpt lat="45.28206" lon="0.34247">
        <ele>144</ele>
        <time>2015-10-06T14:06:12Z</time>
      </trkpt>
      <trkpt lat="45.2821" lon="0.3425">
        <ele>144</ele>
        <time>2015-10-06T14:06:15Z</time>
      </trkpt>
      <trkpt lat="45.28213" lon="0.34254">
        <ele>144</ele>
        <time>2015-10-06T14:06:19Z</time>
      </trkpt>
      <trkpt lat="45.28219" lon="0.3426">
        <ele>144</ele>
        <time>2015-10-06T14:06:24Z</time>
      </trkpt>
      <trkpt lat="45.28223" lon="0.34265">
        <ele>144</ele>
        <time>2015-10-06T14:06:29Z</time>
      </trkpt>
      <trkpt lat="45.28226" lon="0.34269">
        <ele>145</ele>
        <time>2015-10-06T14:06:33Z</time>
      </trkpt>
      <trkpt lat="45.2823" lon="0.34276">
        <ele>145</ele>
        <time>2015-10-06T14:06:38Z</time>
      </trkpt>
      <trkpt lat="45.28234" lon="0.34281">
        <ele>146</ele>
        <time>2015-10-06T14:06:43Z</time>
      </trkpt>
      <trkpt lat="45.28236" lon="0.34286">
        <ele>146</ele>
        <time>2015-10-06T14:06:47Z</time>
      </trkpt>
      <trkpt lat="45.28242" lon="0.34292">
        <ele>145</ele>
        <time>2015-10-06T14:06:51Z</time>
      </trkpt>
      <trkpt lat="45.28246" lon="0.343">
        <ele>146</ele>
        <time>2015-10-06T14:06:56Z</time>
      </trkpt>
      <trkpt lat="45.28248" lon="0.34305">
        <ele>145</ele>
        <time>2015-10-06T14:07:00Z</time>
      </trkpt>
      <trkpt lat="45.28251" lon="0.34311">
        <ele>145</ele>
        <time>2015-10-06T14:07:04Z</time>
      </trkpt>
      <trkpt lat="45.28253" lon="0.34319">
        <ele>145</ele>
        <time>2015-10-06T14:07:09Z</time>
      </trkpt>
      <trkpt lat="45.28256" lon="0.34326">
        <ele>145</ele>
        <time>2015-10-06T14:07:14Z</time>
      </trkpt>
      <trkpt lat="45.28259" lon="0.34333">
        <ele>145</ele>
        <time>2015-10-06T14:07:18Z</time>
      </trkpt>
      <trkpt lat="45.28262" lon="0.34341">
        <ele>146</ele>
        <time>2015-10-06T14:07:23Z</time>
      </trkpt>
      <trkpt lat="45.28264" lon="0.34348">
        <ele>146</ele>
        <time>2015-10-06T14:07:27Z</time>
      </trkpt>
      <trkpt lat="45.28266" lon="0.34356">
        <ele>145</ele>
        <time>2015-10-06T14:07:32Z</time>
      </trkpt>
      <trkpt lat="45.28268" lon="0.34362">
        <ele>145</ele>
        <time>2015-10-06T14:07:36Z</time>
      </trkpt>
      <trkpt lat="45.28272" lon="0.34371">
        <ele>145</ele>
        <time>2015-10-06T14:07:41Z</time>
      </trkpt>
      <trkpt lat="45.28274" lon="0.34377">
        <ele>145</ele>
        <time>2015-10-06T14:07:45Z</time>
      </trkpt>
      <trkpt lat="45.28276" lon="0.34383">
        <ele>146</ele>
        <time>2015-10-06T14:07:49Z</time>
      </trkpt>
      <trkpt lat="45.28278" lon="0.3439">
        <ele>146</ele>
        <time>2015-10-06T14:07:54Z</time>
      </trkpt>
      <trkpt lat="45.28281" lon="0.344">
        <ele>146</ele>
        <time>2015-10-06T14:07:59Z</time>
      </trkpt>
      <trkpt lat="45.28283" lon="0.34407">
        <ele>146</ele>
        <time>2015-10-06T14:08:03Z</time>
      </trkpt>
      <trkpt lat="45.28283" lon="0.34416">
        <ele>147</ele>
        <time>2015-10-06T14:08:08Z</time>
      </trkpt>
      <trkpt lat="45.28283" lon="0.34422">
        <ele>147</ele>
        <time>2015-10-06T14:08:12Z</time>
      </trkpt>
      <trkpt lat="45.28284" lon="0.34427">
        <ele>147</ele>
        <time>2015-10-06T14:08:17Z</time>
      </trkpt>
      <trkpt lat="45.28281" lon="0.34435">
        <ele>148</ele>
        <time>2015-10-06T14:08:21Z</time>
      </trkpt>
      <trkpt lat="45.28279" lon="0.34442">
        <ele>147</ele>
        <time>2015-10-06T14:08:25Z</time>
      </trkpt>
      <trkpt lat="45.28276" lon="0.34447">
        <ele>148</ele>
        <time>2015-10-06T14:08:29Z</time>
      </trkpt>
      <trkpt lat="45.28272" lon="0.34453">
        <ele>147</ele>
        <time>2015-10-06T14:08:33Z</time>
      </trkpt>
      <trkpt lat="45.28269" lon="0.34458">
        <ele>148</ele>
        <time>2015-10-06T14:08:37Z</time>
      </trkpt>
      <trkpt lat="45.28266" lon="0.34463">
        <ele>150</ele>
        <time>2015-10-06T14:08:42Z</time>
      </trkpt>
      <trkpt lat="45.28263" lon="0.34469">
        <ele>150</ele>
        <time>2015-10-06T14:08:46Z</time>
      </trkpt>
      <trkpt lat="45.28259" lon="0.34475">
        <ele>149</ele>
        <time>2015-10-06T14:08:50Z</time>
      </trkpt>
      <trkpt lat="45.28254" lon="0.34481">
        <ele>149</ele>
        <time>2015-10-06T14:08:55Z</time>
      </trkpt>
      <trkpt lat="45.28252" lon="0.34486">
        <ele>149</ele>
        <time>2015-10-06T14:08:58Z</time>
      </trkpt>
      <trkpt lat="45.28246" lon="0.34491">
        <ele>152</ele>
        <time>2015-10-06T14:09:03Z</time>
      </trkpt>
      <trkpt lat="45.28243" lon="0.34498">
        <ele>149</ele>
        <time>2015-10-06T14:09:07Z</time>
      </trkpt>
      <trkpt lat="45.28239" lon="0.34508">
        <ele>149</ele>
        <time>2015-10-06T14:09:12Z</time>
      </trkpt>
      <trkpt lat="45.28236" lon="0.34512">
        <ele>150</ele>
        <time>2015-10-06T14:09:17Z</time>
      </trkpt>
      <trkpt lat="45.28232" lon="0.34518">
        <ele>150</ele>
        <time>2015-10-06T14:09:21Z</time>
      </trkpt>
      <trkpt lat="45.28228" lon="0.34523">
        <ele>151</ele>
        <time>2015-10-06T14:09:25Z</time>
      </trkpt>
      <trkpt lat="45.28226" lon="0.34527">
        <ele>152</ele>
        <time>2015-10-06T14:09:28Z</time>
      </trkpt>
      <trkpt lat="45.28222" lon="0.34533">
        <ele>151</ele>
        <time>2015-10-06T14:09:32Z</time>
      </trkpt>
      <trkpt lat="45.28219" lon="0.34539">
        <ele>150</ele>
        <time>2015-10-06T14:09:37Z</time>
      </trkpt>
      <trkpt lat="45.28212" lon="0.34544">
        <ele>149</ele>
        <time>2015-10-06T14:09:42Z</time>
      </trkpt>
      <trkpt lat="45.28207" lon="0.34548">
        <ele>149</ele>
        <time>2015-10-06T14:09:46Z</time>
      </trkpt>
      <trkpt lat="45.28203" lon="0.34551">
        <ele>148</ele>
        <time>2015-10-06T14:09:50Z</time>
      </trkpt>
      <trkpt lat="45.28198" lon="0.34559">
        <ele>146</ele>
        <time>2015-10-06T14:09:55Z</time>
      </trkpt>
      <trkpt lat="45.28193" lon="0.3456">
        <ele>147</ele>
        <time>2015-10-06T14:09:59Z</time>
      </trkpt>
      <trkpt lat="45.28186" lon="0.34562">
        <ele>145</ele>
        <time>2015-10-06T14:10:04Z</time>
      </trkpt>
      <trkpt lat="45.28183" lon="0.34567">
        <ele>145</ele>
        <time>2015-10-06T14:10:08Z</time>
      </trkpt>
      <trkpt lat="45.28178" lon="0.34569">
        <ele>145</ele>
        <time>2015-10-06T14:10:12Z</time>
      </trkpt>
      <trkpt lat="45.28173" lon="0.34572">
        <ele>147</ele>
        <time>2015-10-06T14:10:16Z</time>
      </trkpt>
      <trkpt lat="45.28169" lon="0.34576">
        <ele>147</ele>
        <time>2015-10-06T14:10:20Z</time>
      </trkpt>
      <trkpt lat="45.28164" lon="0.34581">
        <ele>147</ele>
        <time>2015-10-06T14:10:25Z</time>
      </trkpt>
      <trkpt lat="45.28159" lon="0.34587">
        <ele>147</ele>
        <time>2015-10-06T14:10:29Z</time>
      </trkpt>
      <trkpt lat="45.28156" lon="0.3459">
        <ele>147</ele>
        <time>2015-10-06T14:10:32Z</time>
      </trkpt>
      <trkpt lat="45.28152" lon="0.34596">
        <ele>145</ele>
        <time>2015-10-06T14:10:37Z</time>
      </trkpt>
      <trkpt lat="45.28148" lon="0.34601">
        <ele>145</ele>
        <time>2015-10-06T14:10:42Z</time>
      </trkpt>
      <trkpt lat="45.28145" lon="0.34605">
        <ele>145</ele>
        <time>2015-10-06T14:10:45Z</time>
      </trkpt>
      <trkpt lat="45.2814" lon="0.34609">
        <ele>145</ele>
        <time>2015-10-06T14:10:49Z</time>
      </trkpt>
      <trkpt lat="45.28136" lon="0.34614">
        <ele>143</ele>
        <time>2015-10-06T14:10:53Z</time>
      </trkpt>
      <trkpt lat="45.28132" lon="0.3462">
        <ele>144</ele>
        <time>2015-10-06T14:10:58Z</time>
      </trkpt>
      <trkpt lat="45.28129" lon="0.34625">
        <ele>145</ele>
        <time>2015-10-06T14:11:02Z</time>
      </trkpt>
      <trkpt lat="45.28125" lon="0.3463">
        <ele>146</ele>
        <time>2015-10-06T14:11:07Z</time>
      </trkpt>
      <trkpt lat="45.2812" lon="0.34636">
        <ele>145</ele>
        <time>2015-10-06T14:11:12Z</time>
      </trkpt>
      <trkpt lat="45.28117" lon="0.3464">
        <ele>145</ele>
        <time>2015-10-06T14:11:17Z</time>
      </trkpt>
      <trkpt lat="45.28111" lon="0.34648">
        <ele>146</ele>
        <time>2015-10-06T14:11:22Z</time>
      </trkpt>
      <trkpt lat="45.28107" lon="0.34653">
        <ele>146</ele>
        <time>2015-10-06T14:11:26Z</time>
      </trkpt>
      <trkpt lat="45.28103" lon="0.34658">
        <ele>146</ele>
        <time>2015-10-06T14:11:30Z</time>
      </trkpt>
      <trkpt lat="45.281" lon="0.34662">
        <ele>145</ele>
        <time>2015-10-06T14:11:36Z</time>
      </trkpt>
      <trkpt lat="45.28094" lon="0.34672">
        <ele>144</ele>
        <time>2015-10-06T14:11:41Z</time>
      </trkpt>
      <trkpt lat="45.2809" lon="0.34677">
        <ele>144</ele>
        <time>2015-10-06T14:11:45Z</time>
      </trkpt>
      <trkpt lat="45.28086" lon="0.34682">
        <ele>144</ele>
        <time>2015-10-06T14:11:49Z</time>
      </trkpt>
      <trkpt lat="45.28082" lon="0.34685">
        <ele>145</ele>
        <time>2015-10-06T14:11:52Z</time>
      </trkpt>
      <trkpt lat="45.28078" lon="0.3469">
        <ele>144</ele>
        <time>2015-10-06T14:11:56Z</time>
      </trkpt>
      <trkpt lat="45.28074" lon="0.34694">
        <ele>143</ele>
        <time>2015-10-06T14:12:00Z</time>
      </trkpt>
      <trkpt lat="45.2807" lon="0.34698">
        <ele>145</ele>
        <time>2015-10-06T14:12:04Z</time>
      </trkpt>
      <trkpt lat="45.28066" lon="0.34705">
        <ele>144</ele>
        <time>2015-10-06T14:12:09Z</time>
      </trkpt>
      <trkpt lat="45.28062" lon="0.3471">
        <ele>145</ele>
        <time>2015-10-06T14:12:13Z</time>
      </trkpt>
      <trkpt lat="45.28057" lon="0.34717">
        <ele>144</ele>
        <time>2015-10-06T14:12:18Z</time>
      </trkpt>
      <trkpt lat="45.28054" lon="0.34723">
        <ele>144</ele>
        <time>2015-10-06T14:12:22Z</time>
      </trkpt>
      <trkpt lat="45.28052" lon="0.34726">
        <ele>145</ele>
        <time>2015-10-06T14:12:27Z</time>
      </trkpt>
      <trkpt lat="45.28045" lon="0.34734">
        <ele>146</ele>
        <time>2015-10-06T14:12:32Z</time>
      </trkpt>
      <trkpt lat="45.28042" lon="0.3474">
        <ele>145</ele>
        <time>2015-10-06T14:12:37Z</time>
      </trkpt>
      <trkpt lat="45.28036" lon="0.34747">
        <ele>145</ele>
        <time>2015-10-06T14:12:42Z</time>
      </trkpt>
      <trkpt lat="45.28033" lon="0.34752">
        <ele>145</ele>
        <time>2015-10-06T14:12:46Z</time>
      </trkpt>
      <trkpt lat="45.2803" lon="0.34756">
        <ele>146</ele>
        <time>2015-10-06T14:12:50Z</time>
      </trkpt>
      <trkpt lat="45.28025" lon="0.34761">
        <ele>149</ele>
        <time>2015-10-06T14:12:55Z</time>
      </trkpt>
      <trkpt lat="45.28022" lon="0.34765">
        <ele>150</ele>
        <time>2015-10-06T14:13:00Z</time>
      </trkpt>
      <trkpt lat="45.28019" lon="0.34769">
        <ele>150</ele>
        <time>2015-10-06T14:13:04Z</time>
      </trkpt>
      <trkpt lat="45.28016" lon="0.34775">
        <ele>150</ele>
        <time>2015-10-06T14:13:09Z</time>
      </trkpt>
      <trkpt lat="45.28013" lon="0.3478">
        <ele>150</ele>
        <time>2015-10-06T14:13:13Z</time>
      </trkpt>
      <trkpt lat="45.28009" lon="0.34784">
        <ele>151</ele>
        <time>2015-10-06T14:13:18Z</time>
      </trkpt>
      <trkpt lat="45.28006" lon="0.34788">
        <ele>151</ele>
        <time>2015-10-06T14:13:23Z</time>
      </trkpt>
      <trkpt lat="45.28003" lon="0.34792">
        <ele>150</ele>
        <time>2015-10-06T14:13:32Z</time>
      </trkpt>
      <trkpt lat="45.28" lon="0.34796">
        <ele>147</ele>
        <time>2015-10-06T14:13:54Z</time>
      </trkpt>
      <trkpt lat="45.27996" lon="0.348">
        <ele>146</ele>
        <time>2015-10-06T14:13:59Z</time>
      </trkpt>
      <trkpt lat="45.27992" lon="0.34804">
        <ele>146</ele>
        <time>2015-10-06T14:14:04Z</time>
      </trkpt>
      <trkpt lat="45.2799" lon="0.34809">
        <ele>146</ele>
        <time>2015-10-06T14:14:13Z</time>
      </trkpt>
      <trkpt lat="45.27986" lon="0.34813">
        <ele>145</ele>
        <time>2015-10-06T14:14:17Z</time>
      </trkpt>
      <trkpt lat="45.27983" lon="0.34817">
        <ele>145</ele>
        <time>2015-10-06T14:14:21Z</time>
      </trkpt>
      <trkpt lat="45.27981" lon="0.3482">
        <ele>145</ele>
        <time>2015-10-06T14:14:25Z</time>
      </trkpt>
      <trkpt lat="45.27977" lon="0.34823">
        <ele>146</ele>
        <time>2015-10-06T14:14:30Z</time>
      </trkpt>
      <trkpt lat="45.27973" lon="0.34826">
        <ele>146</ele>
        <time>2015-10-06T14:14:35Z</time>
      </trkpt>
      <trkpt lat="45.27969" lon="0.34827">
        <ele>147</ele>
        <time>2015-10-06T14:14:49Z</time>
      </trkpt>
      <trkpt lat="45.27965" lon="0.34831">
        <ele>146</ele>
        <time>2015-10-06T14:14:54Z</time>
      </trkpt>
      <trkpt lat="45.27961" lon="0.34835">
        <ele>145</ele>
        <time>2015-10-06T14:15:00Z</time>
      </trkpt>
      <trkpt lat="45.27958" lon="0.34838">
        <ele>145</ele>
        <time>2015-10-06T14:15:05Z</time>
      </trkpt>
      <trkpt lat="45.27954" lon="0.3484">
        <ele>146</ele>
        <time>2015-10-06T14:15:12Z</time>
      </trkpt>
      <trkpt lat="45.2795" lon="0.34842">
        <ele>145</ele>
        <time>2015-10-06T14:15:20Z</time>
      </trkpt>
      <trkpt lat="45.27946" lon="0.34844">
        <ele>145</ele>
        <time>2015-10-06T14:15:27Z</time>
      </trkpt>
      <trkpt lat="45.27941" lon="0.34847">
        <ele>143</ele>
        <time>2015-10-06T14:15:32Z</time>
      </trkpt>
      <trkpt lat="45.27938" lon="0.34848">
        <ele>142</ele>
        <time>2015-10-06T14:15:37Z</time>
      </trkpt>
      <trkpt lat="45.27932" lon="0.34849">
        <ele>142</ele>
        <time>2015-10-06T14:15:41Z</time>
      </trkpt>
      <trkpt lat="45.27927" lon="0.3485">
        <ele>143</ele>
        <time>2015-10-06T14:15:45Z</time>
      </trkpt>
      <trkpt lat="45.27924" lon="0.34852">
        <ele>142</ele>
        <time>2015-10-06T14:15:49Z</time>
      </trkpt>
      <trkpt lat="45.2792" lon="0.34854">
        <ele>142</ele>
        <time>2015-10-06T14:15:53Z</time>
      </trkpt>
      <trkpt lat="45.27917" lon="0.34857">
        <ele>143</ele>
        <time>2015-10-06T14:15:59Z</time>
      </trkpt>
      <trkpt lat="45.27912" lon="0.34858">
        <ele>142</ele>
        <time>2015-10-06T14:16:03Z</time>
      </trkpt>
      <trkpt lat="45.27908" lon="0.34862">
        <ele>143</ele>
        <time>2015-10-06T14:16:08Z</time>
      </trkpt>
      <trkpt lat="45.27905" lon="0.34865">
        <ele>144</ele>
        <time>2015-10-06T14:16:12Z</time>
      </trkpt>
      <trkpt lat="45.27901" lon="0.34868">
        <ele>144</ele>
        <time>2015-10-06T14:16:17Z</time>
      </trkpt>
      <trkpt lat="45.27896" lon="0.34873">
        <ele>145</ele>
        <time>2015-10-06T14:16:22Z</time>
      </trkpt>
      <trkpt lat="45.27891" lon="0.34878">
        <ele>144</ele>
        <time>2015-10-06T14:16:27Z</time>
      </trkpt>
      <trkpt lat="45.27886" lon="0.34882">
        <ele>143</ele>
        <time>2015-10-06T14:16:31Z</time>
      </trkpt>
      <trkpt lat="45.27882" lon="0.34886">
        <ele>143</ele>
        <time>2015-10-06T14:16:35Z</time>
      </trkpt>
      <trkpt lat="45.27879" lon="0.34892">
        <ele>143</ele>
        <time>2015-10-06T14:16:40Z</time>
      </trkpt>
      <trkpt lat="45.27876" lon="0.34897">
        <ele>143</ele>
        <time>2015-10-06T14:16:45Z</time>
      </trkpt>
      <trkpt lat="45.27873" lon="0.34901">
        <ele>142</ele>
        <time>2015-10-06T14:16:53Z</time>
      </trkpt>
      <trkpt lat="45.27865" lon="0.34911">
        <ele>143</ele>
        <time>2015-10-06T14:16:58Z</time>
      </trkpt>
      <trkpt lat="45.27862" lon="0.34914">
        <ele>143</ele>
        <time>2015-10-06T14:17:01Z</time>
      </trkpt>
      <trkpt lat="45.27858" lon="0.34918">
        <ele>141</ele>
        <time>2015-10-06T14:17:06Z</time>
      </trkpt>
      <trkpt lat="45.27855" lon="0.34922">
        <ele>142</ele>
        <time>2015-10-06T14:17:10Z</time>
      </trkpt>
      <trkpt lat="45.27852" lon="0.34927">
        <ele>143</ele>
        <time>2015-10-06T14:17:15Z</time>
      </trkpt>
      <trkpt lat="45.27848" lon="0.3493">
        <ele>143</ele>
        <time>2015-10-06T14:17:19Z</time>
      </trkpt>
      <trkpt lat="45.27845" lon="0.34933">
        <ele>142</ele>
        <time>2015-10-06T14:17:22Z</time>
      </trkpt>
      <trkpt lat="45.27841" lon="0.34936">
        <ele>142</ele>
        <time>2015-10-06T14:17:27Z</time>
      </trkpt>
      <trkpt lat="45.27836" lon="0.34939">
        <ele>141</ele>
        <time>2015-10-06T14:17:31Z</time>
      </trkpt>
      <trkpt lat="45.27832" lon="0.34941">
        <ele>140</ele>
        <time>2015-10-06T14:17:35Z</time>
      </trkpt>
      <trkpt lat="45.27827" lon="0.34944">
        <ele>141</ele>
        <time>2015-10-06T14:17:40Z</time>
      </trkpt>
      <trkpt lat="45.27822" lon="0.34946">
        <ele>142</ele>
        <time>2015-10-06T14:17:45Z</time>
      </trkpt>
      <trkpt lat="45.27817" lon="0.34946">
        <ele>143</ele>
        <time>2015-10-06T14:17:50Z</time>
      </trkpt>
      <trkpt lat="45.27813" lon="0.34943">
        <ele>145</ele>
        <time>2015-10-06T14:17:55Z</time>
      </trkpt>
      <trkpt lat="45.2781" lon="0.34941">
        <ele>147</ele>
        <time>2015-10-06T14:18:01Z</time>
      </trkpt>
      <trkpt lat="45.27807" lon="0.34935">
        <ele>147</ele>
        <time>2015-10-06T14:18:06Z</time>
      </trkpt>
      <trkpt lat="45.27805" lon="0.34928">
        <ele>146</ele>
        <time>2015-10-06T14:18:11Z</time>
      </trkpt>
      <trkpt lat="45.27802" lon="0.34922">
        <ele>144</ele>
        <time>2015-10-06T14:18:15Z</time>
      </trkpt>
      <trkpt lat="45.27799" lon="0.34915">
        <ele>146</ele>
        <time>2015-10-06T14:18:19Z</time>
      </trkpt>
      <trkpt lat="45.27793" lon="0.34915">
        <ele>146</ele>
        <time>2015-10-06T14:18:24Z</time>
      </trkpt>
      <trkpt lat="45.27787" lon="0.3492">
        <ele>145</ele>
        <time>2015-10-06T14:18:28Z</time>
      </trkpt>
      <trkpt lat="45.27784" lon="0.34925">
        <ele>145</ele>
        <time>2015-10-06T14:18:32Z</time>
      </trkpt>
      <trkpt lat="45.27779" lon="0.34928">
        <ele>144</ele>
        <time>2015-10-06T14:18:37Z</time>
      </trkpt>
      <trkpt lat="45.27772" lon="0.34935">
        <ele>142</ele>
        <time>2015-10-06T14:18:42Z</time>
      </trkpt>
      <trkpt lat="45.27768" lon="0.34937">
        <ele>143</ele>
        <time>2015-10-06T14:18:45Z</time>
      </trkpt>
      <trkpt lat="45.27763" lon="0.34942">
        <ele>143</ele>
        <time>2015-10-06T14:18:49Z</time>
      </trkpt>
      <trkpt lat="45.2776" lon="0.34946">
        <ele>142</ele>
        <time>2015-10-06T14:18:53Z</time>
      </trkpt>
      <trkpt lat="45.27757" lon="0.34951">
        <ele>142</ele>
        <time>2015-10-06T14:18:57Z</time>
      </trkpt>
      <trkpt lat="45.27752" lon="0.34955">
        <ele>142</ele>
        <time>2015-10-06T14:19:02Z</time>
      </trkpt>
      <trkpt lat="45.27747" lon="0.3496">
        <ele>141</ele>
        <time>2015-10-06T14:19:06Z</time>
      </trkpt>
      <trkpt lat="45.27742" lon="0.34964">
        <ele>141</ele>
        <time>2015-10-06T14:19:11Z</time>
      </trkpt>
      <trkpt lat="45.27737" lon="0.34968">
        <ele>141</ele>
        <time>2015-10-06T14:19:15Z</time>
      </trkpt>
      <trkpt lat="45.27731" lon="0.34972">
        <ele>140</ele>
        <time>2015-10-06T14:19:20Z</time>
      </trkpt>
      <trkpt lat="45.27726" lon="0.34976">
        <ele>139</ele>
        <time>2015-10-06T14:19:25Z</time>
      </trkpt>
      <trkpt lat="45.2772" lon="0.3498">
        <ele>138</ele>
        <time>2015-10-06T14:19:30Z</time>
      </trkpt>
      <trkpt lat="45.27713" lon="0.34984">
        <ele>135</ele>
        <time>2015-10-06T14:19:34Z</time>
      </trkpt>
      <trkpt lat="45.27711" lon="0.34986">
        <ele>135</ele>
        <time>2015-10-06T14:19:38Z</time>
      </trkpt>
      <trkpt lat="45.27703" lon="0.3499">
        <ele>135</ele>
        <time>2015-10-06T14:19:43Z</time>
      </trkpt>
      <trkpt lat="45.27699" lon="0.34991">
        <ele>135</ele>
        <time>2015-10-06T14:19:49Z</time>
      </trkpt>
      <trkpt lat="45.27694" lon="0.34994">
        <ele>135</ele>
        <time>2015-10-06T14:19:54Z</time>
      </trkpt>
      <trkpt lat="45.27691" lon="0.34999">
        <ele>134</ele>
        <time>2015-10-06T14:19:59Z</time>
      </trkpt>
      <trkpt lat="45.27689" lon="0.35004">
        <ele>135</ele>
        <time>2015-10-06T14:20:03Z</time>
      </trkpt>
      <trkpt lat="45.27689" lon="0.35011">
        <ele>135</ele>
        <time>2015-10-06T14:20:07Z</time>
      </trkpt>
      <trkpt lat="45.27688" lon="0.35019">
        <ele>134</ele>
        <time>2015-10-06T14:20:12Z</time>
      </trkpt>
      <trkpt lat="45.27689" lon="0.35027">
        <ele>133</ele>
        <time>2015-10-06T14:20:16Z</time>
      </trkpt>
      <trkpt lat="45.27687" lon="0.35037">
        <ele>134</ele>
        <time>2015-10-06T14:20:21Z</time>
      </trkpt>
      <trkpt lat="45.27686" lon="0.35048">
        <ele>134</ele>
        <time>2015-10-06T14:20:26Z</time>
      </trkpt>
      <trkpt lat="45.27685" lon="0.3506">
        <ele>134</ele>
        <time>2015-10-06T14:20:31Z</time>
      </trkpt>
      <trkpt lat="45.27685" lon="0.35066">
        <ele>133</ele>
        <time>2015-10-06T14:20:34Z</time>
      </trkpt>
      <trkpt lat="45.27685" lon="0.35076">
        <ele>132</ele>
        <time>2015-10-06T14:20:39Z</time>
      </trkpt>
      <trkpt lat="45.27687" lon="0.35083">
        <ele>130</ele>
        <time>2015-10-06T14:20:42Z</time>
      </trkpt>
      <trkpt lat="45.2769" lon="0.35093">
        <ele>128</ele>
        <time>2015-10-06T14:20:47Z</time>
      </trkpt>
      <trkpt lat="45.27693" lon="0.351">
        <ele>126</ele>
        <time>2015-10-06T14:20:51Z</time>
      </trkpt>
      <trkpt lat="45.27694" lon="0.35107">
        <ele>126</ele>
        <time>2015-10-06T14:20:55Z</time>
      </trkpt>
      <trkpt lat="45.27693" lon="0.35114">
        <ele>125</ele>
        <time>2015-10-06T14:21:00Z</time>
      </trkpt>
      <trkpt lat="45.27693" lon="0.3512">
        <ele>126</ele>
        <time>2015-10-06T14:21:04Z</time>
      </trkpt>
      <trkpt lat="45.27692" lon="0.35128">
        <ele>126</ele>
        <time>2015-10-06T14:21:09Z</time>
      </trkpt>
      <trkpt lat="45.2769" lon="0.35136">
        <ele>127</ele>
        <time>2015-10-06T14:21:14Z</time>
      </trkpt>
      <trkpt lat="45.2769" lon="0.35143">
        <ele>127</ele>
        <time>2015-10-06T14:21:18Z</time>
      </trkpt>
      <trkpt lat="45.27691" lon="0.35151">
        <ele>126</ele>
        <time>2015-10-06T14:21:22Z</time>
      </trkpt>
      <trkpt lat="45.27692" lon="0.35159">
        <ele>125</ele>
        <time>2015-10-06T14:21:27Z</time>
      </trkpt>
      <trkpt lat="45.27691" lon="0.35169">
        <ele>124</ele>
        <time>2015-10-06T14:21:32Z</time>
      </trkpt>
      <trkpt lat="45.27691" lon="0.35176">
        <ele>125</ele>
        <time>2015-10-06T14:21:36Z</time>
      </trkpt>
      <trkpt lat="45.27692" lon="0.35185">
        <ele>125</ele>
        <time>2015-10-06T14:21:41Z</time>
      </trkpt>
      <trkpt lat="45.2769" lon="0.35193">
        <ele>124</ele>
        <time>2015-10-06T14:21:46Z</time>
      </trkpt>
      <trkpt lat="45.27689" lon="0.35199">
        <ele>125</ele>
        <time>2015-10-06T14:21:51Z</time>
      </trkpt>
      <trkpt lat="45.27689" lon="0.35206">
        <ele>122</ele>
        <time>2015-10-06T14:21:56Z</time>
      </trkpt>
      <trkpt lat="45.27687" lon="0.35211">
        <ele>123</ele>
        <time>2015-10-06T14:22:00Z</time>
      </trkpt>
      <trkpt lat="45.27684" lon="0.35214">
        <ele>122</ele>
        <time>2015-10-06T14:22:05Z</time>
      </trkpt>
      <trkpt lat="45.27678" lon="0.35219">
        <ele>122</ele>
        <time>2015-10-06T14:22:09Z</time>
      </trkpt>
      <trkpt lat="45.27675" lon="0.35223">
        <ele>125</ele>
        <time>2015-10-06T14:22:16Z</time>
      </trkpt>
      <trkpt lat="45.27667" lon="0.35225">
        <ele>123</ele>
        <time>2015-10-06T14:22:21Z</time>
      </trkpt>
      <trkpt lat="45.27662" lon="0.3523">
        <ele>121</ele>
        <time>2015-10-06T14:22:25Z</time>
      </trkpt>
      <trkpt lat="45.27656" lon="0.35229">
        <ele>123</ele>
        <time>2015-10-06T14:22:30Z</time>
      </trkpt>
      <trkpt lat="45.27652" lon="0.3523">
        <ele>121</ele>
        <time>2015-10-06T14:22:35Z</time>
      </trkpt>
      <trkpt lat="45.27644" lon="0.35235">
        <ele>122</ele>
        <time>2015-10-06T14:22:40Z</time>
      </trkpt>
      <trkpt lat="45.27639" lon="0.35237">
        <ele>122</ele>
        <time>2015-10-06T14:22:45Z</time>
      </trkpt>
      <trkpt lat="45.27635" lon="0.3524">
        <ele>123</ele>
        <time>2015-10-06T14:22:49Z</time>
      </trkpt>
      <trkpt lat="45.27631" lon="0.35245">
        <ele>121</ele>
        <time>2015-10-06T14:22:54Z</time>
      </trkpt>
      <trkpt lat="45.27626" lon="0.35253">
        <ele>122</ele>
        <time>2015-10-06T14:22:58Z</time>
      </trkpt>
      <trkpt lat="45.27623" lon="0.3526">
        <ele>121</ele>
        <time>2015-10-06T14:23:02Z</time>
      </trkpt>
      <trkpt lat="45.27621" lon="0.35265">
        <ele>123</ele>
        <time>2015-10-06T14:23:06Z</time>
      </trkpt>
      <trkpt lat="45.27618" lon="0.35271">
        <ele>123</ele>
        <time>2015-10-06T14:23:10Z</time>
      </trkpt>
      <trkpt lat="45.27618" lon="0.3528">
        <ele>121</ele>
        <time>2015-10-06T14:23:15Z</time>
      </trkpt>
      <trkpt lat="45.27618" lon="0.35289">
        <ele>120</ele>
        <time>2015-10-06T14:23:20Z</time>
      </trkpt>
      <trkpt lat="45.27619" lon="0.35297">
        <ele>119</ele>
        <time>2015-10-06T14:23:24Z</time>
      </trkpt>
      <trkpt lat="45.27619" lon="0.35302">
        <ele>119</ele>
        <time>2015-10-06T14:23:27Z</time>
      </trkpt>
      <trkpt lat="45.27619" lon="0.35309">
        <ele>119</ele>
        <time>2015-10-06T14:23:31Z</time>
      </trkpt>
      <trkpt lat="45.2762" lon="0.35318">
        <ele>119</ele>
        <time>2015-10-06T14:23:36Z</time>
      </trkpt>
      <trkpt lat="45.27621" lon="0.35326">
        <ele>119</ele>
        <time>2015-10-06T14:23:41Z</time>
      </trkpt>
      <trkpt lat="45.27622" lon="0.35335">
        <ele>119</ele>
        <time>2015-10-06T14:23:46Z</time>
      </trkpt>
      <trkpt lat="45.27624" lon="0.35342">
        <ele>118</ele>
        <time>2015-10-06T14:23:50Z</time>
      </trkpt>
      <trkpt lat="45.27625" lon="0.35349">
        <ele>118</ele>
        <time>2015-10-06T14:23:54Z</time>
      </trkpt>
      <trkpt lat="45.27627" lon="0.35357">
        <ele>118</ele>
        <time>2015-10-06T14:23:59Z</time>
      </trkpt>
      <trkpt lat="45.27628" lon="0.35364">
        <ele>118</ele>
        <time>2015-10-06T14:24:03Z</time>
      </trkpt>
      <trkpt lat="45.27629" lon="0.35371">
        <ele>117</ele>
        <time>2015-10-06T14:24:08Z</time>
      </trkpt>
      <trkpt lat="45.27631" lon="0.35378">
        <ele>117</ele>
        <time>2015-10-06T14:24:12Z</time>
      </trkpt>
      <trkpt lat="45.27632" lon="0.35385">
        <ele>117</ele>
        <time>2015-10-06T14:24:16Z</time>
      </trkpt>
      <trkpt lat="45.27632" lon="0.3539">
        <ele>117</ele>
        <time>2015-10-06T14:24:19Z</time>
      </trkpt>
      <trkpt lat="45.27634" lon="0.35397">
        <ele>117</ele>
        <time>2015-10-06T14:24:23Z</time>
      </trkpt>
      <trkpt lat="45.27636" lon="0.35406">
        <ele>116</ele>
        <time>2015-10-06T14:24:28Z</time>
      </trkpt>
      <trkpt lat="45.27638" lon="0.35414">
        <ele>116</ele>
        <time>2015-10-06T14:24:33Z</time>
      </trkpt>
      <trkpt lat="45.27639" lon="0.35421">
        <ele>116</ele>
        <time>2015-10-06T14:24:37Z</time>
      </trkpt>
      <trkpt lat="45.2764" lon="0.35428">
        <ele>116</ele>
        <time>2015-10-06T14:24:42Z</time>
      </trkpt>
      <trkpt lat="45.27641" lon="0.35437">
        <ele>115</ele>
        <time>2015-10-06T14:24:47Z</time>
      </trkpt>
      <trkpt lat="45.27643" lon="0.35443">
        <ele>115</ele>
        <time>2015-10-06T14:24:51Z</time>
      </trkpt>
      <trkpt lat="45.27643" lon="0.35449">
        <ele>115</ele>
        <time>2015-10-06T14:24:56Z</time>
      </trkpt>
      <trkpt lat="45.27643" lon="0.35458">
        <ele>115</ele>
        <time>2015-10-06T14:25:00Z</time>
      </trkpt>
      <trkpt lat="45.27645" lon="0.35464">
        <ele>114</ele>
        <time>2015-10-06T14:25:04Z</time>
      </trkpt>
      <trkpt lat="45.27645" lon="0.35471">
        <ele>114</ele>
        <time>2015-10-06T14:25:08Z</time>
      </trkpt>
      <trkpt lat="45.27647" lon="0.35477">
        <ele>112</ele>
        <time>2015-10-06T14:25:12Z</time>
      </trkpt>
      <trkpt lat="45.27647" lon="0.35484">
        <ele>111</ele>
        <time>2015-10-06T14:25:16Z</time>
      </trkpt>
      <trkpt lat="45.27648" lon="0.35492">
        <ele>111</ele>
        <time>2015-10-06T14:25:20Z</time>
      </trkpt>
      <trkpt lat="45.27648" lon="0.355">
        <ele>111</ele>
        <time>2015-10-06T14:25:24Z</time>
      </trkpt>
      <trkpt lat="45.27648" lon="0.35509">
        <ele>110</ele>
        <time>2015-10-06T14:25:29Z</time>
      </trkpt>
      <trkpt lat="45.27649" lon="0.35518">
        <ele>108</ele>
        <time>2015-10-06T14:25:34Z</time>
      </trkpt>
      <trkpt lat="45.27649" lon="0.35523">
        <ele>108</ele>
        <time>2015-10-06T14:25:37Z</time>
      </trkpt>
      <trkpt lat="45.27647" lon="0.35528">
        <ele>108</ele>
        <time>2015-10-06T14:25:41Z</time>
      </trkpt>
      <trkpt lat="45.27646" lon="0.35536">
        <ele>108</ele>
        <time>2015-10-06T14:25:45Z</time>
      </trkpt>
      <trkpt lat="45.27645" lon="0.35543">
        <ele>108</ele>
        <time>2015-10-06T14:25:50Z</time>
      </trkpt>
      <trkpt lat="45.27644" lon="0.35549">
        <ele>107</ele>
        <time>2015-10-06T14:25:54Z</time>
      </trkpt>
      <trkpt lat="45.27642" lon="0.35557">
        <ele>107</ele>
        <time>2015-10-06T14:25:59Z</time>
      </trkpt>
      <trkpt lat="45.27642" lon="0.35562">
        <ele>107</ele>
        <time>2015-10-06T14:26:05Z</time>
      </trkpt>
      <trkpt lat="45.27639" lon="0.35573">
        <ele>107</ele>
        <time>2015-10-06T14:26:09Z</time>
      </trkpt>
      <trkpt lat="45.27638" lon="0.3558">
        <ele>107</ele>
        <time>2015-10-06T14:26:14Z</time>
      </trkpt>
      <trkpt lat="45.27637" lon="0.35587">
        <ele>107</ele>
        <time>2015-10-06T14:26:18Z</time>
      </trkpt>
      <trkpt lat="45.27636" lon="0.35596">
        <ele>107</ele>
        <time>2015-10-06T14:26:23Z</time>
      </trkpt>
      <trkpt lat="45.27635" lon="0.35605">
        <ele>106</ele>
        <time>2015-10-06T14:26:28Z</time>
      </trkpt>
      <trkpt lat="45.27633" lon="0.35613">
        <ele>106</ele>
        <time>2015-10-06T14:26:33Z</time>
      </trkpt>
      <trkpt lat="45.27632" lon="0.3562">
        <ele>106</ele>
        <time>2015-10-06T14:26:37Z</time>
      </trkpt>
      <trkpt lat="45.2763" lon="0.35626">
        <ele>105</ele>
        <time>2015-10-06T14:26:42Z</time>
      </trkpt>
      <trkpt lat="45.2763" lon="0.35637">
        <ele>103</ele>
        <time>2015-10-06T14:26:47Z</time>
      </trkpt>
      <trkpt lat="45.2763" lon="0.35644">
        <ele>102</ele>
        <time>2015-10-06T14:26:51Z</time>
      </trkpt>
      <trkpt lat="45.27628" lon="0.35653">
        <ele>103</ele>
        <time>2015-10-06T14:26:56Z</time>
      </trkpt>
      <trkpt lat="45.27626" lon="0.35658">
        <ele>102</ele>
        <time>2015-10-06T14:27:00Z</time>
      </trkpt>
      <trkpt lat="45.27621" lon="0.3566">
        <ele>102</ele>
        <time>2015-10-06T14:27:04Z</time>
      </trkpt>
      <trkpt lat="45.27617" lon="0.3566">
        <ele>101</ele>
        <time>2015-10-06T14:27:09Z</time>
      </trkpt>
      <trkpt lat="45.27614" lon="0.35656">
        <ele>104</ele>
        <time>2015-10-06T14:27:15Z</time>
      </trkpt>
      <trkpt lat="45.2761" lon="0.35655">
        <ele>106</ele>
        <time>2015-10-06T14:27:19Z</time>
      </trkpt>
      <trkpt lat="45.27605" lon="0.35652">
        <ele>107</ele>
        <time>2015-10-06T14:27:24Z</time>
      </trkpt>
      <trkpt lat="45.276" lon="0.35649">
        <ele>108</ele>
        <time>2015-10-06T14:27:28Z</time>
      </trkpt>
      <trkpt lat="45.27596" lon="0.35648">
        <ele>110</ele>
        <time>2015-10-06T14:27:33Z</time>
      </trkpt>
      <trkpt lat="45.27591" lon="0.35648">
        <ele>110</ele>
        <time>2015-10-06T14:27:37Z</time>
      </trkpt>
      <trkpt lat="45.27583" lon="0.35651">
        <ele>106</ele>
        <time>2015-10-06T14:27:41Z</time>
      </trkpt>
      <trkpt lat="45.27577" lon="0.35653">
        <ele>106</ele>
        <time>2015-10-06T14:27:46Z</time>
      </trkpt>
      <trkpt lat="45.27571" lon="0.35655">
        <ele>105</ele>
        <time>2015-10-06T14:27:50Z</time>
      </trkpt>
      <trkpt lat="45.27567" lon="0.35655">
        <ele>106</ele>
        <time>2015-10-06T14:27:54Z</time>
      </trkpt>
      <trkpt lat="45.27561" lon="0.35656">
        <ele>107</ele>
        <time>2015-10-06T14:27:59Z</time>
      </trkpt>
      <trkpt lat="45.27557" lon="0.35657">
        <ele>106</ele>
        <time>2015-10-06T14:28:03Z</time>
      </trkpt>
      <trkpt lat="45.27553" lon="0.35658">
        <ele>108</ele>
        <time>2015-10-06T14:28:07Z</time>
      </trkpt>
      <trkpt lat="45.27547" lon="0.35659">
        <ele>106</ele>
        <time>2015-10-06T14:28:12Z</time>
      </trkpt>
      <trkpt lat="45.27542" lon="0.3566">
        <ele>106</ele>
        <time>2015-10-06T14:28:16Z</time>
      </trkpt>
      <trkpt lat="45.27537" lon="0.35659">
        <ele>107</ele>
        <time>2015-10-06T14:28:20Z</time>
      </trkpt>
      <trkpt lat="45.27532" lon="0.3566">
        <ele>107</ele>
        <time>2015-10-06T14:28:24Z</time>
      </trkpt>
      <trkpt lat="45.27527" lon="0.35661">
        <ele>106</ele>
        <time>2015-10-06T14:28:29Z</time>
      </trkpt>
      <trkpt lat="45.27521" lon="0.35662">
        <ele>104</ele>
        <time>2015-10-06T14:28:33Z</time>
      </trkpt>
      <trkpt lat="45.27515" lon="0.35662">
        <ele>103</ele>
        <time>2015-10-06T14:28:38Z</time>
      </trkpt>
      <trkpt lat="45.2751" lon="0.35662">
        <ele>102</ele>
        <time>2015-10-06T14:28:42Z</time>
      </trkpt>
      <trkpt lat="45.27504" lon="0.35663">
        <ele>102</ele>
        <time>2015-10-06T14:28:47Z</time>
      </trkpt>
      <trkpt lat="45.27499" lon="0.35664">
        <ele>101</ele>
        <time>2015-10-06T14:28:52Z</time>
      </trkpt>
      <trkpt lat="45.27494" lon="0.35664">
        <ele>100</ele>
        <time>2015-10-06T14:28:56Z</time>
      </trkpt>
      <trkpt lat="45.27491" lon="0.35664">
        <ele>101</ele>
        <time>2015-10-06T14:29:00Z</time>
      </trkpt>
      <trkpt lat="45.27488" lon="0.35667">
        <ele>102</ele>
        <time>2015-10-06T14:29:05Z</time>
      </trkpt>
      <trkpt lat="45.27483" lon="0.35665">
        <ele>106</ele>
        <time>2015-10-06T14:29:11Z</time>
      </trkpt>
      <trkpt lat="45.27476" lon="0.35665">
        <ele>107</ele>
        <time>2015-10-06T14:29:15Z</time>
      </trkpt>
      <trkpt lat="45.27469" lon="0.35667">
        <ele>105</ele>
        <time>2015-10-06T14:29:20Z</time>
      </trkpt>
      <trkpt lat="45.27465" lon="0.35668">
        <ele>104</ele>
        <time>2015-10-06T14:29:24Z</time>
      </trkpt>
      <trkpt lat="45.27458" lon="0.35667">
        <ele>105</ele>
        <time>2015-10-06T14:29:29Z</time>
      </trkpt>
      <trkpt lat="45.27453" lon="0.35666">
        <ele>105</ele>
        <time>2015-10-06T14:29:33Z</time>
      </trkpt>
      <trkpt lat="45.27447" lon="0.35664">
        <ele>106</ele>
        <time>2015-10-06T14:29:37Z</time>
      </trkpt>
      <trkpt lat="45.27443" lon="0.35662">
        <ele>106</ele>
        <time>2015-10-06T14:29:41Z</time>
      </trkpt>
      <trkpt lat="45.27436" lon="0.35661">
        <ele>107</ele>
        <time>2015-10-06T14:29:45Z</time>
      </trkpt>
      <trkpt lat="45.27429" lon="0.35658">
        <ele>106</ele>
        <time>2015-10-06T14:29:50Z</time>
      </trkpt>
      <trkpt lat="45.27425" lon="0.35659">
        <ele>106</ele>
        <time>2015-10-06T14:29:54Z</time>
      </trkpt>
      <trkpt lat="45.2742" lon="0.35657">
        <ele>105</ele>
        <time>2015-10-06T14:29:58Z</time>
      </trkpt>
      <trkpt lat="45.27412" lon="0.35656">
        <ele>102</ele>
        <time>2015-10-06T14:30:03Z</time>
      </trkpt>
      <trkpt lat="45.27406" lon="0.35658">
        <ele>101</ele>
        <time>2015-10-06T14:30:07Z</time>
      </trkpt>
      <trkpt lat="45.27402" lon="0.35658">
        <ele>101</ele>
        <time>2015-10-06T14:30:10Z</time>
      </trkpt>
      <trkpt lat="45.27396" lon="0.35663">
        <ele>100</ele>
        <time>2015-10-06T14:30:15Z</time>
      </trkpt>
      <trkpt lat="45.27393" lon="0.35666">
        <ele>100</ele>
        <time>2015-10-06T14:30:19Z</time>
      </trkpt>
      <trkpt lat="45.27389" lon="0.3567">
        <ele>99</ele>
        <time>2015-10-06T14:30:23Z</time>
      </trkpt>
      <trkpt lat="45.27385" lon="0.35674">
        <ele>98</ele>
        <time>2015-10-06T14:30:27Z</time>
      </trkpt>
      <trkpt lat="45.2738" lon="0.35677">
        <ele>96</ele>
        <time>2015-10-06T14:30:31Z</time>
      </trkpt>
      <trkpt lat="45.27375" lon="0.35674">
        <ele>98</ele>
        <time>2015-10-06T14:30:35Z</time>
      </trkpt>
      <trkpt lat="45.27372" lon="0.3567">
        <ele>99</ele>
        <time>2015-10-06T14:30:39Z</time>
      </trkpt>
      <trkpt lat="45.27369" lon="0.35664">
        <ele>99</ele>
        <time>2015-10-06T14:30:44Z</time>
      </trkpt>
      <trkpt lat="45.27369" lon="0.35658">
        <ele>99</ele>
        <time>2015-10-06T14:30:48Z</time>
      </trkpt>
      <trkpt lat="45.27368" lon="0.3565">
        <ele>98</ele>
        <time>2015-10-06T14:30:53Z</time>
      </trkpt>
      <trkpt lat="45.27366" lon="0.35644">
        <ele>97</ele>
        <time>2015-10-06T14:30:57Z</time>
      </trkpt>
      <trkpt lat="45.27365" lon="0.35638">
        <ele>97</ele>
        <time>2015-10-06T14:31:01Z</time>
      </trkpt>
      <trkpt lat="45.27363" lon="0.35628">
        <ele>97</ele>
        <time>2015-10-06T14:31:06Z</time>
      </trkpt>
      <trkpt lat="45.27361" lon="0.35624">
        <ele>97</ele>
        <time>2015-10-06T14:31:13Z</time>
      </trkpt>
      <trkpt lat="45.27353" lon="0.35621">
        <ele>96</ele>
        <time>2015-10-06T14:31:18Z</time>
      </trkpt>
      <trkpt lat="45.27344" lon="0.3562">
        <ele>96</ele>
        <time>2015-10-06T14:31:23Z</time>
      </trkpt>
      <trkpt lat="45.27337" lon="0.35619">
        <ele>96</ele>
        <time>2015-10-06T14:31:28Z</time>
      </trkpt>
      <trkpt lat="45.2733" lon="0.35618">
        <ele>97</ele>
        <time>2015-10-06T14:31:33Z</time>
      </trkpt>
      <trkpt lat="45.27324" lon="0.35617">
        <ele>96</ele>
        <time>2015-10-06T14:31:37Z</time>
      </trkpt>
      <trkpt lat="45.2732" lon="0.35611">
        <ele>97</ele>
        <time>2015-10-06T14:31:41Z</time>
      </trkpt>
      <trkpt lat="45.27317" lon="0.35605">
        <ele>95</ele>
        <time>2015-10-06T14:31:45Z</time>
      </trkpt>
      <trkpt lat="45.27317" lon="0.356">
        <ele>92</ele>
        <time>2015-10-06T14:31:49Z</time>
      </trkpt>
      <trkpt lat="45.27319" lon="0.35592">
        <ele>93</ele>
        <time>2015-10-06T14:31:54Z</time>
      </trkpt>
      <trkpt lat="45.27319" lon="0.35584">
        <ele>94</ele>
        <time>2015-10-06T14:31:58Z</time>
      </trkpt>
      <trkpt lat="45.27321" lon="0.3558">
        <ele>96</ele>
        <time>2015-10-06T14:32:02Z</time>
      </trkpt>
      <trkpt lat="45.27321" lon="0.35572">
        <ele>95</ele>
        <time>2015-10-06T14:32:06Z</time>
      </trkpt>
      <trkpt lat="45.27321" lon="0.35563">
        <ele>95</ele>
        <time>2015-10-06T14:32:11Z</time>
      </trkpt>
      <trkpt lat="45.27321" lon="0.35555">
        <ele>94</ele>
        <time>2015-10-06T14:32:15Z</time>
      </trkpt>
      <trkpt lat="45.27319" lon="0.3555">
        <ele>94</ele>
        <time>2015-10-06T14:32:22Z</time>
      </trkpt>
      <trkpt lat="45.27315" lon="0.35545">
        <ele>93</ele>
        <time>2015-10-06T14:32:26Z</time>
      </trkpt>
      <trkpt lat="45.27314" lon="0.35543">
        <ele>95</ele>
        <time>2015-10-06T14:32:33Z</time>
      </trkpt>
      <trkpt lat="45.27306" lon="0.35539">
        <ele>96</ele>
        <time>2015-10-06T14:32:37Z</time>
      </trkpt>
      <trkpt lat="45.27302" lon="0.35541">
        <ele>97</ele>
        <time>2015-10-06T14:32:42Z</time>
      </trkpt>
      <trkpt lat="45.27298" lon="0.35537">
        <ele>101</ele>
        <time>2015-10-06T14:32:46Z</time>
      </trkpt>
      <trkpt lat="45.27294" lon="0.35534">
        <ele>105</ele>
        <time>2015-10-06T14:32:51Z</time>
      </trkpt>
      <trkpt lat="45.27287" lon="0.35535">
        <ele>101</ele>
        <time>2015-10-06T14:32:55Z</time>
      </trkpt>
      <trkpt lat="45.27284" lon="0.35533">
        <ele>103</ele>
        <time>2015-10-06T14:32:59Z</time>
      </trkpt>
      <trkpt lat="45.2728" lon="0.35536">
        <ele>104</ele>
        <time>2015-10-06T14:33:07Z</time>
      </trkpt>
      <trkpt lat="45.27273" lon="0.35532">
        <ele>104</ele>
        <time>2015-10-06T14:33:11Z</time>
      </trkpt>
      <trkpt lat="45.27268" lon="0.35529">
        <ele>103</ele>
        <time>2015-10-06T14:33:15Z</time>
      </trkpt>
      <trkpt lat="45.27265" lon="0.35526">
        <ele>110</ele>
        <time>2015-10-06T14:33:25Z</time>
      </trkpt>
      <trkpt lat="45.27258" lon="0.3552">
        <ele>111</ele>
        <time>2015-10-06T14:33:30Z</time>
      </trkpt>
      <trkpt lat="45.27253" lon="0.35517">
        <ele>114</ele>
        <time>2015-10-06T14:33:34Z</time>
      </trkpt>
      <trkpt lat="45.27247" lon="0.35517">
        <ele>114</ele>
        <time>2015-10-06T14:33:39Z</time>
      </trkpt>
      <trkpt lat="45.27242" lon="0.35521">
        <ele>110</ele>
        <time>2015-10-06T14:33:44Z</time>
      </trkpt>
      <trkpt lat="45.27238" lon="0.35522">
        <ele>110</ele>
        <time>2015-10-06T14:33:55Z</time>
      </trkpt>
      <trkpt lat="45.27233" lon="0.35521">
        <ele>110</ele>
        <time>2015-10-06T14:34:00Z</time>
      </trkpt>
      <trkpt lat="45.27228" lon="0.35519">
        <ele>112</ele>
        <time>2015-10-06T14:34:04Z</time>
      </trkpt>
      <trkpt lat="45.27221" lon="0.3552">
        <ele>113</ele>
        <time>2015-10-06T14:34:08Z</time>
      </trkpt>
      <trkpt lat="45.27215" lon="0.35521">
        <ele>112</ele>
        <time>2015-10-06T14:34:12Z</time>
      </trkpt>
      <trkpt lat="45.27209" lon="0.35522">
        <ele>110</ele>
        <time>2015-10-06T14:34:16Z</time>
      </trkpt>
      <trkpt lat="45.27204" lon="0.35522">
        <ele>110</ele>
        <time>2015-10-06T14:34:20Z</time>
      </trkpt>
      <trkpt lat="45.27197" lon="0.35521">
        <ele>110</ele>
        <time>2015-10-06T14:34:25Z</time>
      </trkpt>
      <trkpt lat="45.27193" lon="0.35521">
        <ele>110</ele>
        <time>2015-10-06T14:34:29Z</time>
      </trkpt>
      <trkpt lat="45.27188" lon="0.35522">
        <ele>110</ele>
        <time>2015-10-06T14:34:34Z</time>
      </trkpt>
      <trkpt lat="45.27182" lon="0.35521">
        <ele>110</ele>
        <time>2015-10-06T14:34:39Z</time>
      </trkpt>
      <trkpt lat="45.27179" lon="0.35519">
        <ele>114</ele>
        <time>2015-10-06T14:34:43Z</time>
      </trkpt>
      <trkpt lat="45.27174" lon="0.35519">
        <ele>115</ele>
        <time>2015-10-06T14:34:48Z</time>
      </trkpt>
      <trkpt lat="45.27172" lon="0.35527">
        <ele>107</ele>
        <time>2015-10-06T14:34:52Z</time>
      </trkpt>
      <trkpt lat="45.2717" lon="0.35529">
        <ele>105</ele>
        <time>2015-10-06T14:34:56Z</time>
      </trkpt>
      <trkpt lat="45.27164" lon="0.3553">
        <ele>106</ele>
        <time>2015-10-06T14:35:00Z</time>
      </trkpt>
      <trkpt lat="45.27156" lon="0.3553">
        <ele>107</ele>
        <time>2015-10-06T14:35:05Z</time>
      </trkpt>
      <trkpt lat="45.27149" lon="0.35529">
        <ele>106</ele>
        <time>2015-10-06T14:35:09Z</time>
      </trkpt>
      <trkpt lat="45.27143" lon="0.3553">
        <ele>105</ele>
        <time>2015-10-06T14:35:13Z</time>
      </trkpt>
      <trkpt lat="45.27138" lon="0.35528">
        <ele>105</ele>
        <time>2015-10-06T14:35:17Z</time>
      </trkpt>
      <trkpt lat="45.27133" lon="0.35525">
        <ele>107</ele>
        <time>2015-10-06T14:35:22Z</time>
      </trkpt>
      <trkpt lat="45.27127" lon="0.35524">
        <ele>107</ele>
        <time>2015-10-06T14:35:26Z</time>
      </trkpt>
      <trkpt lat="45.2712" lon="0.35518">
        <ele>108</ele>
        <time>2015-10-06T14:35:31Z</time>
      </trkpt>
      <trkpt lat="45.27115" lon="0.35516">
        <ele>108</ele>
        <time>2015-10-06T14:35:35Z</time>
      </trkpt>
      <trkpt lat="45.27109" lon="0.35515">
        <ele>107</ele>
        <time>2015-10-06T14:35:39Z</time>
      </trkpt>
      <trkpt lat="45.27103" lon="0.35514">
        <ele>108</ele>
        <time>2015-10-06T14:35:43Z</time>
      </trkpt>
      <trkpt lat="45.27098" lon="0.35514">
        <ele>107</ele>
        <time>2015-10-06T14:35:47Z</time>
      </trkpt>
      <trkpt lat="45.27091" lon="0.35513">
        <ele>107</ele>
        <time>2015-10-06T14:35:52Z</time>
      </trkpt>
      <trkpt lat="45.27085" lon="0.3551">
        <ele>107</ele>
        <time>2015-10-06T14:35:56Z</time>
      </trkpt>
      <trkpt lat="45.27079" lon="0.35508">
        <ele>106</ele>
        <time>2015-10-06T14:36:00Z</time>
      </trkpt>
      <trkpt lat="45.27073" lon="0.35506">
        <ele>107</ele>
        <time>2015-10-06T14:36:04Z</time>
      </trkpt>
      <trkpt lat="45.27066" lon="0.35504">
        <ele>106</ele>
        <time>2015-10-06T14:36:09Z</time>
      </trkpt>
      <trkpt lat="45.27061" lon="0.35502">
        <ele>106</ele>
        <time>2015-10-06T14:36:13Z</time>
      </trkpt>
      <trkpt lat="45.27056" lon="0.355">
        <ele>105</ele>
        <time>2015-10-06T14:36:17Z</time>
      </trkpt>
      <trkpt lat="45.27048" lon="0.35498">
        <ele>106</ele>
        <time>2015-10-06T14:36:22Z</time>
      </trkpt>
      <trkpt lat="45.27044" lon="0.35495">
        <ele>107</ele>
        <time>2015-10-06T14:36:26Z</time>
      </trkpt>
      <trkpt lat="45.27037" lon="0.35493">
        <ele>105</ele>
        <time>2015-10-06T14:36:31Z</time>
      </trkpt>
      <trkpt lat="45.2703" lon="0.3549">
        <ele>106</ele>
        <time>2015-10-06T14:36:36Z</time>
      </trkpt>
      <trkpt lat="45.27026" lon="0.35487">
        <ele>107</ele>
        <time>2015-10-06T14:36:40Z</time>
      </trkpt>
      <trkpt lat="45.27022" lon="0.35485">
        <ele>108</ele>
        <time>2015-10-06T14:36:44Z</time>
      </trkpt>
      <trkpt lat="45.27016" lon="0.35481">
        <ele>108</ele>
        <time>2015-10-06T14:36:49Z</time>
      </trkpt>
      <trkpt lat="45.27012" lon="0.3548">
        <ele>108</ele>
        <time>2015-10-06T14:36:53Z</time>
      </trkpt>
      <trkpt lat="45.27005" lon="0.35478">
        <ele>108</ele>
        <time>2015-10-06T14:36:57Z</time>
      </trkpt>
      <trkpt lat="45.26999" lon="0.35476">
        <ele>108</ele>
        <time>2015-10-06T14:37:02Z</time>
      </trkpt>
      <trkpt lat="45.26992" lon="0.35475">
        <ele>108</ele>
        <time>2015-10-06T14:37:07Z</time>
      </trkpt>
      <trkpt lat="45.26988" lon="0.35477">
        <ele>108</ele>
        <time>2015-10-06T14:37:11Z</time>
      </trkpt>
      <trkpt lat="45.26985" lon="0.35485">
        <ele>109</ele>
        <time>2015-10-06T14:37:16Z</time>
      </trkpt>
      <trkpt lat="45.26983" lon="0.3549">
        <ele>109</ele>
        <time>2015-10-06T14:37:22Z</time>
      </trkpt>
      <trkpt lat="45.26981" lon="0.35496">
        <ele>109</ele>
        <time>2015-10-06T14:37:26Z</time>
      </trkpt>
      <trkpt lat="45.26978" lon="0.35501">
        <ele>110</ele>
        <time>2015-10-06T14:37:30Z</time>
      </trkpt>
      <trkpt lat="45.26975" lon="0.35506">
        <ele>107</ele>
        <time>2015-10-06T14:37:35Z</time>
      </trkpt>
      <trkpt lat="45.26972" lon="0.3551">
        <ele>111</ele>
        <time>2015-10-06T14:37:41Z</time>
      </trkpt>
      <trkpt lat="45.26972" lon="0.35519">
        <ele>108</ele>
        <time>2015-10-06T14:37:45Z</time>
      </trkpt>
      <trkpt lat="45.26973" lon="0.35528">
        <ele>107</ele>
        <time>2015-10-06T14:37:50Z</time>
      </trkpt>
      <trkpt lat="45.26971" lon="0.35536">
        <ele>106</ele>
        <time>2015-10-06T14:37:54Z</time>
      </trkpt>
      <trkpt lat="45.26969" lon="0.35545">
        <ele>104</ele>
        <time>2015-10-06T14:37:59Z</time>
      </trkpt>
      <trkpt lat="45.26968" lon="0.35551">
        <ele>102</ele>
        <time>2015-10-06T14:38:06Z</time>
      </trkpt>
      <trkpt lat="45.26966" lon="0.35557">
        <ele>102</ele>
        <time>2015-10-06T14:38:10Z</time>
      </trkpt>
      <trkpt lat="45.26964" lon="0.35564">
        <ele>102</ele>
        <time>2015-10-06T14:38:14Z</time>
      </trkpt>
      <trkpt lat="45.26962" lon="0.35573">
        <ele>105</ele>
        <time>2015-10-06T14:38:19Z</time>
      </trkpt>
      <trkpt lat="45.2696" lon="0.35577">
        <ele>103</ele>
        <time>2015-10-06T14:38:24Z</time>
      </trkpt>
      <trkpt lat="45.26956" lon="0.35585">
        <ele>102</ele>
        <time>2015-10-06T14:38:28Z</time>
      </trkpt>
      <trkpt lat="45.26954" lon="0.35592">
        <ele>100</ele>
        <time>2015-10-06T14:38:32Z</time>
      </trkpt>
      <trkpt lat="45.26951" lon="0.35595">
        <ele>99</ele>
        <time>2015-10-06T14:38:36Z</time>
      </trkpt>
      <trkpt lat="45.26949" lon="0.356">
        <ele>101</ele>
        <time>2015-10-06T14:38:40Z</time>
      </trkpt>
      <trkpt lat="45.26946" lon="0.35605">
        <ele>101</ele>
        <time>2015-10-06T14:38:44Z</time>
      </trkpt>
      <trkpt lat="45.26941" lon="0.35611">
        <ele>97</ele>
        <time>2015-10-06T14:38:49Z</time>
      </trkpt>
      <trkpt lat="45.26938" lon="0.35615">
        <ele>97</ele>
        <time>2015-10-06T14:38:53Z</time>
      </trkpt>
      <trkpt lat="45.26934" lon="0.35621">
        <ele>94</ele>
        <time>2015-10-06T14:38:57Z</time>
      </trkpt>
      <trkpt lat="45.26929" lon="0.35627">
        <ele>94</ele>
        <time>2015-10-06T14:39:02Z</time>
      </trkpt>
      <trkpt lat="45.26926" lon="0.35631">
        <ele>95</ele>
        <time>2015-10-06T14:39:06Z</time>
      </trkpt>
      <trkpt lat="45.26925" lon="0.35636">
        <ele>94</ele>
        <time>2015-10-06T14:39:10Z</time>
      </trkpt>
      <trkpt lat="45.26921" lon="0.35641">
        <ele>94</ele>
        <time>2015-10-06T14:39:14Z</time>
      </trkpt>
      <trkpt lat="45.26919" lon="0.35649">
        <ele>96</ele>
        <time>2015-10-06T14:39:19Z</time>
      </trkpt>
      <trkpt lat="45.26917" lon="0.35653">
        <ele>96</ele>
        <time>2015-10-06T14:39:24Z</time>
      </trkpt>
      <trkpt lat="45.26913" lon="0.3566">
        <ele>95</ele>
        <time>2015-10-06T14:39:29Z</time>
      </trkpt>
      <trkpt lat="45.26911" lon="0.35666">
        <ele>93</ele>
        <time>2015-10-06T14:39:33Z</time>
      </trkpt>
      <trkpt lat="45.26909" lon="0.3567">
        <ele>95</ele>
        <time>2015-10-06T14:39:37Z</time>
      </trkpt>
      <trkpt lat="45.26906" lon="0.35674">
        <ele>100</ele>
        <time>2015-10-06T14:39:42Z</time>
      </trkpt>
      <trkpt lat="45.26903" lon="0.3568">
        <ele>99</ele>
        <time>2015-10-06T14:39:46Z</time>
      </trkpt>
      <trkpt lat="45.269" lon="0.3569">
        <ele>96</ele>
        <time>2015-10-06T14:39:50Z</time>
      </trkpt>
      <trkpt lat="45.26896" lon="0.35697">
        <ele>93</ele>
        <time>2015-10-06T14:39:55Z</time>
      </trkpt>
      <trkpt lat="45.26892" lon="0.35702">
        <ele>90</ele>
        <time>2015-10-06T14:39:59Z</time>
      </trkpt>
      <trkpt lat="45.26886" lon="0.35706">
        <ele>87</ele>
        <time>2015-10-06T14:40:03Z</time>
      </trkpt>
      <trkpt lat="45.26883" lon="0.35709">
        <ele>88</ele>
        <time>2015-10-06T14:40:07Z</time>
      </trkpt>
      <trkpt lat="45.26878" lon="0.35713">
        <ele>86</ele>
        <time>2015-10-06T14:40:11Z</time>
      </trkpt>
      <trkpt lat="45.26874" lon="0.3572">
        <ele>84</ele>
        <time>2015-10-06T14:40:16Z</time>
      </trkpt>
      <trkpt lat="45.26868" lon="0.35724">
        <ele>83</ele>
        <time>2015-10-06T14:40:21Z</time>
      </trkpt>
      <trkpt lat="45.26864" lon="0.35729">
        <ele>84</ele>
        <time>2015-10-06T14:40:26Z</time>
      </trkpt>
      <trkpt lat="45.2686" lon="0.35732">
        <ele>85</ele>
        <time>2015-10-06T14:40:30Z</time>
      </trkpt>
      <trkpt lat="45.26859" lon="0.35737">
        <ele>86</ele>
        <time>2015-10-06T14:40:36Z</time>
      </trkpt>
      <trkpt lat="45.26856" lon="0.35742">
        <ele>84</ele>
        <time>2015-10-06T14:40:40Z</time>
      </trkpt>
      <trkpt lat="45.26851" lon="0.35745">
        <ele>83</ele>
        <time>2015-10-06T14:40:44Z</time>
      </trkpt>
      <trkpt lat="45.26846" lon="0.35748">
        <ele>83</ele>
        <time>2015-10-06T14:40:48Z</time>
      </trkpt>
      <trkpt lat="45.2684" lon="0.35751">
        <ele>85</ele>
        <time>2015-10-06T14:40:52Z</time>
      </trkpt>
      <trkpt lat="45.26836" lon="0.35762">
        <ele>83</ele>
        <time>2015-10-06T14:40:57Z</time>
      </trkpt>
      <trkpt lat="45.26834" lon="0.35768">
        <ele>81</ele>
        <time>2015-10-06T14:41:01Z</time>
      </trkpt>
      <trkpt lat="45.26834" lon="0.35773">
        <ele>84</ele>
        <time>2015-10-06T14:41:06Z</time>
      </trkpt>
      <trkpt lat="45.26834" lon="0.35779">
        <ele>81</ele>
        <time>2015-10-06T14:41:10Z</time>
      </trkpt>
      <trkpt lat="45.26835" lon="0.35787">
        <ele>83</ele>
        <time>2015-10-06T14:41:15Z</time>
      </trkpt>
      <trkpt lat="45.26835" lon="0.35796">
        <ele>83</ele>
        <time>2015-10-06T14:41:19Z</time>
      </trkpt>
      <trkpt lat="45.26833" lon="0.35803">
        <ele>82</ele>
        <time>2015-10-06T14:41:23Z</time>
      </trkpt>
      <trkpt lat="45.26834" lon="0.35809">
        <ele>83</ele>
        <time>2015-10-06T14:41:27Z</time>
      </trkpt>
      <trkpt lat="45.26833" lon="0.35816">
        <ele>82</ele>
        <time>2015-10-06T14:41:31Z</time>
      </trkpt>
      <trkpt lat="45.26835" lon="0.35821">
        <ele>81</ele>
        <time>2015-10-06T14:41:35Z</time>
      </trkpt>
      <trkpt lat="45.26834" lon="0.35826">
        <ele>81</ele>
        <time>2015-10-06T14:41:39Z</time>
      </trkpt>
      <trkpt lat="45.26833" lon="0.35832">
        <ele>82</ele>
        <time>2015-10-06T14:41:43Z</time>
      </trkpt>
      <trkpt lat="45.26834" lon="0.3584">
        <ele>83</ele>
        <time>2015-10-06T14:41:48Z</time>
      </trkpt>
      <trkpt lat="45.26833" lon="0.35849">
        <ele>83</ele>
        <time>2015-10-06T14:41:52Z</time>
      </trkpt>
      <trkpt lat="45.26832" lon="0.35857">
        <ele>85</ele>
        <time>2015-10-06T14:41:56Z</time>
      </trkpt>
      <trkpt lat="45.2683" lon="0.35863">
        <ele>84</ele>
        <time>2015-10-06T14:42:01Z</time>
      </trkpt>
      <trkpt lat="45.2683" lon="0.35869">
        <ele>84</ele>
        <time>2015-10-06T14:42:06Z</time>
      </trkpt>
      <trkpt lat="45.26828" lon="0.35875">
        <ele>88</ele>
        <time>2015-10-06T14:42:10Z</time>
      </trkpt>
      <trkpt lat="45.26825" lon="0.35881">
        <ele>86</ele>
        <time>2015-10-06T14:42:14Z</time>
      </trkpt>
      <trkpt lat="45.26828" lon="0.35887">
        <ele>81</ele>
        <time>2015-10-06T14:42:26Z</time>
      </trkpt>
      <trkpt lat="45.26826" lon="0.35892">
        <ele>80</ele>
        <time>2015-10-06T14:42:36Z</time>
      </trkpt>
      <trkpt lat="45.26826" lon="0.35898">
        <ele>82</ele>
        <time>2015-10-06T14:43:25Z</time>
      </trkpt>
      <trkpt lat="45.26828" lon="0.35903">
        <ele>81</ele>
        <time>2015-10-06T14:43:48Z</time>
      </trkpt>
      <trkpt lat="45.26827" lon="0.35909">
        <ele>79</ele>
        <time>2015-10-06T14:44:05Z</time>
      </trkpt>
      <trkpt lat="45.26824" lon="0.35912">
        <ele>79</ele>
        <time>2015-10-06T14:44:10Z</time>
      </trkpt>
      <trkpt lat="45.26821" lon="0.35914">
        <ele>78</ele>
        <time>2015-10-06T14:44:14Z</time>
      </trkpt>
      <trkpt lat="45.26817" lon="0.35915">
        <ele>78</ele>
        <time>2015-10-06T14:44:19Z</time>
      </trkpt>
      <trkpt lat="45.26811" lon="0.35914">
        <ele>78</ele>
        <time>2015-10-06T14:44:24Z</time>
      </trkpt>
      <trkpt lat="45.26806" lon="0.35915">
        <ele>77</ele>
        <time>2015-10-06T14:44:28Z</time>
      </trkpt>
      <trkpt lat="45.268" lon="0.35916">
        <ele>77</ele>
        <time>2015-10-06T14:44:33Z</time>
      </trkpt>
      <trkpt lat="45.26794" lon="0.35916">
        <ele>76</ele>
        <time>2015-10-06T14:44:38Z</time>
      </trkpt>
      <trkpt lat="45.2679" lon="0.35916">
        <ele>76</ele>
        <time>2015-10-06T14:44:42Z</time>
      </trkpt>
      <trkpt lat="45.26786" lon="0.35918">
        <ele>76</ele>
        <time>2015-10-06T14:44:47Z</time>
      </trkpt>
      <trkpt lat="45.26782" lon="0.35918">
        <ele>77</ele>
        <time>2015-10-06T14:44:51Z</time>
      </trkpt>
      <trkpt lat="45.26778" lon="0.35917">
        <ele>78</ele>
        <time>2015-10-06T14:44:55Z</time>
      </trkpt>
      <trkpt lat="45.26774" lon="0.35919">
        <ele>79</ele>
        <time>2015-10-06T14:45:00Z</time>
      </trkpt>
      <trkpt lat="45.2677" lon="0.35919">
        <ele>81</ele>
        <time>2015-10-06T14:45:05Z</time>
      </trkpt>
      <trkpt lat="45.26763" lon="0.35918">
        <ele>80</ele>
        <time>2015-10-06T14:45:10Z</time>
      </trkpt>
      <trkpt lat="45.26759" lon="0.35918">
        <ele>80</ele>
        <time>2015-10-06T14:45:15Z</time>
      </trkpt>
      <trkpt lat="45.26754" lon="0.35917">
        <ele>78</ele>
        <time>2015-10-06T14:45:19Z</time>
      </trkpt>
      <trkpt lat="45.26749" lon="0.35921">
        <ele>78</ele>
        <time>2015-10-06T14:45:24Z</time>
      </trkpt>
      <trkpt lat="45.26741" lon="0.35928">
        <ele>72</ele>
        <time>2015-10-06T14:45:28Z</time>
      </trkpt>
      <trkpt lat="45.26736" lon="0.35932">
        <ele>69</ele>
        <time>2015-10-06T14:45:33Z</time>
      </trkpt>
      <trkpt lat="45.26732" lon="0.35932">
        <ele>70</ele>
        <time>2015-10-06T14:45:37Z</time>
      </trkpt>
      <trkpt lat="45.26726" lon="0.35931">
        <ele>71</ele>
        <time>2015-10-06T14:45:41Z</time>
      </trkpt>
      <trkpt lat="45.2672" lon="0.35929">
        <ele>73</ele>
        <time>2015-10-06T14:45:45Z</time>
      </trkpt>
      <trkpt lat="45.26717" lon="0.35928">
        <ele>73</ele>
        <time>2015-10-06T14:45:49Z</time>
      </trkpt>
      <trkpt lat="45.26713" lon="0.35934">
        <ele>72</ele>
        <time>2015-10-06T14:45:53Z</time>
      </trkpt>
      <trkpt lat="45.26709" lon="0.35934">
        <ele>73</ele>
        <time>2015-10-06T14:45:58Z</time>
      </trkpt>
      <trkpt lat="45.26704" lon="0.35933">
        <ele>76</ele>
        <time>2015-10-06T14:46:02Z</time>
      </trkpt>
      <trkpt lat="45.26696" lon="0.3594">
        <ele>73</ele>
        <time>2015-10-06T14:46:06Z</time>
      </trkpt>
      <trkpt lat="45.26692" lon="0.35941">
        <ele>74</ele>
        <time>2015-10-06T14:46:10Z</time>
      </trkpt>
      <trkpt lat="45.26686" lon="0.35941">
        <ele>77</ele>
        <time>2015-10-06T14:46:14Z</time>
      </trkpt>
      <trkpt lat="45.26681" lon="0.35946">
        <ele>76</ele>
        <time>2015-10-06T14:46:19Z</time>
      </trkpt>
      <trkpt lat="45.26676" lon="0.35949">
        <ele>77</ele>
        <time>2015-10-06T14:46:24Z</time>
      </trkpt>
      <trkpt lat="45.26671" lon="0.35951">
        <ele>79</ele>
        <time>2015-10-06T14:46:29Z</time>
      </trkpt>
      <trkpt lat="45.26668" lon="0.35955">
        <ele>80</ele>
        <time>2015-10-06T14:46:33Z</time>
      </trkpt>
      <trkpt lat="45.26662" lon="0.3596">
        <ele>79</ele>
        <time>2015-10-06T14:46:37Z</time>
      </trkpt>
      <trkpt lat="45.26656" lon="0.35965">
        <ele>79</ele>
        <time>2015-10-06T14:46:42Z</time>
      </trkpt>
      <trkpt lat="45.26651" lon="0.35968">
        <ele>80</ele>
        <time>2015-10-06T14:46:47Z</time>
      </trkpt>
      <trkpt lat="45.26648" lon="0.35971">
        <ele>83</ele>
        <time>2015-10-06T14:46:51Z</time>
      </trkpt>
      <trkpt lat="45.26644" lon="0.35975">
        <ele>82</ele>
        <time>2015-10-06T14:46:55Z</time>
      </trkpt>
      <trkpt lat="45.26641" lon="0.35979">
        <ele>82</ele>
        <time>2015-10-06T14:46:59Z</time>
      </trkpt>
      <trkpt lat="45.26637" lon="0.35983">
        <ele>82</ele>
        <time>2015-10-06T14:47:04Z</time>
      </trkpt>
      <trkpt lat="45.26634" lon="0.35987">
        <ele>83</ele>
        <time>2015-10-06T14:47:09Z</time>
      </trkpt>
      <trkpt lat="45.26629" lon="0.35989">
        <ele>82</ele>
        <time>2015-10-06T14:47:14Z</time>
      </trkpt>
      <trkpt lat="45.26621" lon="0.35996">
        <ele>78</ele>
        <time>2015-10-06T14:47:19Z</time>
      </trkpt>
      <trkpt lat="45.26618" lon="0.36">
        <ele>78</ele>
        <time>2015-10-06T14:47:23Z</time>
      </trkpt>
      <trkpt lat="45.26613" lon="0.36007">
        <ele>79</ele>
        <time>2015-10-06T14:47:28Z</time>
      </trkpt>
      <trkpt lat="45.26608" lon="0.36013">
        <ele>77</ele>
        <time>2015-10-06T14:47:32Z</time>
      </trkpt>
      <trkpt lat="45.26602" lon="0.36018">
        <ele>74</ele>
        <time>2015-10-06T14:47:36Z</time>
      </trkpt>
      <trkpt lat="45.26597" lon="0.3602">
        <ele>75</ele>
        <time>2015-10-06T14:47:41Z</time>
      </trkpt>
      <trkpt lat="45.26593" lon="0.36024">
        <ele>77</ele>
        <time>2015-10-06T14:47:46Z</time>
      </trkpt>
      <trkpt lat="45.26588" lon="0.36027">
        <ele>77</ele>
        <time>2015-10-06T14:47:50Z</time>
      </trkpt>
      <trkpt lat="45.26585" lon="0.36031">
        <ele>78</ele>
        <time>2015-10-06T14:47:54Z</time>
      </trkpt>
      <trkpt lat="45.26582" lon="0.36038">
        <ele>75</ele>
        <time>2015-10-06T14:47:58Z</time>
      </trkpt>
      <trkpt lat="45.26578" lon="0.36042">
        <ele>79</ele>
        <time>2015-10-06T14:48:04Z</time>
      </trkpt>
      <trkpt lat="45.26573" lon="0.36052">
        <ele>77</ele>
        <time>2015-10-06T14:48:09Z</time>
      </trkpt>
      <trkpt lat="45.26569" lon="0.36059">
        <ele>74</ele>
        <time>2015-10-06T14:48:13Z</time>
      </trkpt>
      <trkpt lat="45.26565" lon="0.36064">
        <ele>77</ele>
        <time>2015-10-06T14:48:18Z</time>
      </trkpt>
      <trkpt lat="45.26561" lon="0.36068">
        <ele>78</ele>
        <time>2015-10-06T14:48:22Z</time>
      </trkpt>
      <trkpt lat="45.26557" lon="0.36072">
        <ele>77</ele>
        <time>2015-10-06T14:48:26Z</time>
      </trkpt>
      <trkpt lat="45.26552" lon="0.36081">
        <ele>76</ele>
        <time>2015-10-06T14:48:31Z</time>
      </trkpt>
      <trkpt lat="45.26548" lon="0.36086">
        <ele>76</ele>
        <time>2015-10-06T14:48:35Z</time>
      </trkpt>
      <trkpt lat="45.26546" lon="0.3609">
        <ele>75</ele>
        <time>2015-10-06T14:48:39Z</time>
      </trkpt>
      <trkpt lat="45.26541" lon="0.36098">
        <ele>75</ele>
        <time>2015-10-06T14:48:44Z</time>
      </trkpt>
      <trkpt lat="45.26537" lon="0.36103">
        <ele>75</ele>
        <time>2015-10-06T14:48:49Z</time>
      </trkpt>
      <trkpt lat="45.26533" lon="0.36106">
        <ele>76</ele>
        <time>2015-10-06T14:48:53Z</time>
      </trkpt>
      <trkpt lat="45.26528" lon="0.36112">
        <ele>75</ele>
        <time>2015-10-06T14:48:57Z</time>
      </trkpt>
      <trkpt lat="45.26524" lon="0.36117">
        <ele>73</ele>
        <time>2015-10-06T14:49:01Z</time>
      </trkpt>
      <trkpt lat="45.2652" lon="0.3612">
        <ele>75</ele>
        <time>2015-10-06T14:49:05Z</time>
      </trkpt>
      <trkpt lat="45.26516" lon="0.36123">
        <ele>76</ele>
        <time>2015-10-06T14:49:09Z</time>
      </trkpt>
      <trkpt lat="45.26513" lon="0.36125">
        <ele>78</ele>
        <time>2015-10-06T14:49:13Z</time>
      </trkpt>
      <trkpt lat="45.26509" lon="0.36128">
        <ele>77</ele>
        <time>2015-10-06T14:49:17Z</time>
      </trkpt>
      <trkpt lat="45.26504" lon="0.36132">
        <ele>76</ele>
        <time>2015-10-06T14:49:22Z</time>
      </trkpt>
      <trkpt lat="45.26499" lon="0.36136">
        <ele>77</ele>
        <time>2015-10-06T14:49:27Z</time>
      </trkpt>
      <trkpt lat="45.26493" lon="0.36141">
        <ele>75</ele>
        <time>2015-10-06T14:49:31Z</time>
      </trkpt>
      <trkpt lat="45.26487" lon="0.36148">
        <ele>73</ele>
        <time>2015-10-06T14:49:36Z</time>
      </trkpt>
      <trkpt lat="45.26482" lon="0.36151">
        <ele>72</ele>
        <time>2015-10-06T14:49:40Z</time>
      </trkpt>
      <trkpt lat="45.26477" lon="0.36154">
        <ele>72</ele>
        <time>2015-10-06T14:49:44Z</time>
      </trkpt>
      <trkpt lat="45.26472" lon="0.36157">
        <ele>71</ele>
        <time>2015-10-06T14:49:48Z</time>
      </trkpt>
      <trkpt lat="45.26468" lon="0.36161">
        <ele>69</ele>
        <time>2015-10-06T14:49:53Z</time>
      </trkpt>
      <trkpt lat="45.26464" lon="0.36166">
        <ele>70</ele>
        <time>2015-10-06T14:49:57Z</time>
      </trkpt>
      <trkpt lat="45.26461" lon="0.36169">
        <ele>69</ele>
        <time>2015-10-06T14:50:01Z</time>
      </trkpt>
      <trkpt lat="45.26454" lon="0.3617">
        <ele>70</ele>
        <time>2015-10-06T14:50:06Z</time>
      </trkpt>
      <trkpt lat="45.26449" lon="0.36173">
        <ele>71</ele>
        <time>2015-10-06T14:50:11Z</time>
      </trkpt>
      <trkpt lat="45.26444" lon="0.36174">
        <ele>73</ele>
        <time>2015-10-06T14:50:15Z</time>
      </trkpt>
      <trkpt lat="45.26439" lon="0.36176">
        <ele>74</ele>
        <time>2015-10-06T14:50:19Z</time>
      </trkpt>
      <trkpt lat="45.26435" lon="0.3618">
        <ele>73</ele>
        <time>2015-10-06T14:50:23Z</time>
      </trkpt>
      <trkpt lat="45.2643" lon="0.36183">
        <ele>74</ele>
        <time>2015-10-06T14:50:27Z</time>
      </trkpt>
      <trkpt lat="45.26423" lon="0.36182">
        <ele>75</ele>
        <time>2015-10-06T14:50:31Z</time>
      </trkpt>
      <trkpt lat="45.26418" lon="0.36184">
        <ele>75</ele>
        <time>2015-10-06T14:50:36Z</time>
      </trkpt>
      <trkpt lat="45.26413" lon="0.36187">
        <ele>72</ele>
        <time>2015-10-06T14:50:40Z</time>
      </trkpt>
      <trkpt lat="45.26408" lon="0.36188">
        <ele>73</ele>
        <time>2015-10-06T14:50:44Z</time>
      </trkpt>
      <trkpt lat="45.26402" lon="0.36187">
        <ele>74</ele>
        <time>2015-10-06T14:50:48Z</time>
      </trkpt>
      <trkpt lat="45.26398" lon="0.36194">
        <ele>74</ele>
        <time>2015-10-06T14:50:53Z</time>
      </trkpt>
      <trkpt lat="45.26394" lon="0.36198">
        <ele>76</ele>
        <time>2015-10-06T14:50:57Z</time>
      </trkpt>
      <trkpt lat="45.2639" lon="0.36199">
        <ele>80</ele>
        <time>2015-10-06T14:51:03Z</time>
      </trkpt>
      <trkpt lat="45.26386" lon="0.36202">
        <ele>83</ele>
        <time>2015-10-06T14:51:09Z</time>
      </trkpt>
      <trkpt lat="45.26382" lon="0.36205">
        <ele>83</ele>
        <time>2015-10-06T14:51:14Z</time>
      </trkpt>
      <trkpt lat="45.26376" lon="0.36212">
        <ele>82</ele>
        <time>2015-10-06T14:51:19Z</time>
      </trkpt>
      <trkpt lat="45.26372" lon="0.36218">
        <ele>79</ele>
        <time>2015-10-06T14:51:23Z</time>
      </trkpt>
      <trkpt lat="45.26366" lon="0.36219">
        <ele>79</ele>
        <time>2015-10-06T14:51:28Z</time>
      </trkpt>
      <trkpt lat="45.26362" lon="0.36217">
        <ele>79</ele>
        <time>2015-10-06T14:51:32Z</time>
      </trkpt>
      <trkpt lat="45.26361" lon="0.36211">
        <ele>86</ele>
        <time>2015-10-06T14:51:36Z</time>
      </trkpt>
      <trkpt lat="45.26359" lon="0.36216">
        <ele>87</ele>
        <time>2015-10-06T14:51:49Z</time>
      </trkpt>
      <trkpt lat="45.26356" lon="0.36219">
        <ele>86</ele>
        <time>2015-10-06T14:51:55Z</time>
      </trkpt>
      <trkpt lat="45.26346" lon="0.36223">
        <ele>81</ele>
        <time>2015-10-06T14:52:00Z</time>
      </trkpt>
      <trkpt lat="45.26335" lon="0.36224">
        <ele>82</ele>
        <time>2015-10-06T14:52:05Z</time>
      </trkpt>
      <trkpt lat="45.26329" lon="0.36219">
        <ele>86</ele>
        <time>2015-10-06T14:52:09Z</time>
      </trkpt>
      <trkpt lat="45.26323" lon="0.36219">
        <ele>86</ele>
        <time>2015-10-06T14:52:14Z</time>
      </trkpt>
      <trkpt lat="45.2632" lon="0.36222">
        <ele>84</ele>
        <time>2015-10-06T14:52:18Z</time>
      </trkpt>
      <trkpt lat="45.26313" lon="0.36226">
        <ele>80</ele>
        <time>2015-10-06T14:52:23Z</time>
      </trkpt>
      <trkpt lat="45.26308" lon="0.36226">
        <ele>79</ele>
        <time>2015-10-06T14:52:27Z</time>
      </trkpt>
      <trkpt lat="45.26305" lon="0.36229">
        <ele>78</ele>
        <time>2015-10-06T14:52:39Z</time>
      </trkpt>
      <trkpt lat="45.26302" lon="0.36234">
        <ele>74</ele>
        <time>2015-10-06T14:52:44Z</time>
      </trkpt>
      <trkpt lat="45.26298" lon="0.36237">
        <ele>76</ele>
        <time>2015-10-06T14:52:49Z</time>
      </trkpt>
      <trkpt lat="45.26293" lon="0.36236">
        <ele>76</ele>
        <time>2015-10-06T14:52:53Z</time>
      </trkpt>
      <trkpt lat="45.26288" lon="0.36237">
        <ele>76</ele>
        <time>2015-10-06T14:52:57Z</time>
      </trkpt>
      <trkpt lat="45.26285" lon="0.36235">
        <ele>75</ele>
        <time>2015-10-06T14:53:03Z</time>
      </trkpt>
      <trkpt lat="45.26283" lon="0.36227">
        <ele>77</ele>
        <time>2015-10-06T14:53:08Z</time>
      </trkpt>
      <trkpt lat="45.26281" lon="0.3622">
        <ele>77</ele>
        <time>2015-10-06T14:53:12Z</time>
      </trkpt>
      <trkpt lat="45.26277" lon="0.36214">
        <ele>77</ele>
        <time>2015-10-06T14:53:16Z</time>
      </trkpt>
      <trkpt lat="45.26275" lon="0.36209">
        <ele>75</ele>
        <time>2015-10-06T14:53:20Z</time>
      </trkpt>
      <trkpt lat="45.26272" lon="0.36204">
        <ele>75</ele>
        <time>2015-10-06T14:53:24Z</time>
      </trkpt>
      <trkpt lat="45.2627" lon="0.36199">
        <ele>75</ele>
        <time>2015-10-06T14:53:29Z</time>
      </trkpt>
      <trkpt lat="45.26269" lon="0.36188">
        <ele>75</ele>
        <time>2015-10-06T14:53:34Z</time>
      </trkpt>
      <trkpt lat="45.26264" lon="0.36182">
        <ele>72</ele>
        <time>2015-10-06T14:53:38Z</time>
      </trkpt>
      <trkpt lat="45.26262" lon="0.36175">
        <ele>71</ele>
        <time>2015-10-06T14:53:43Z</time>
      </trkpt>
      <trkpt lat="45.2626" lon="0.36168">
        <ele>71</ele>
        <time>2015-10-06T14:53:48Z</time>
      </trkpt>
      <trkpt lat="45.26256" lon="0.36164">
        <ele>71</ele>
        <time>2015-10-06T14:53:53Z</time>
      </trkpt>
      <trkpt lat="45.26252" lon="0.36159">
        <ele>69</ele>
        <time>2015-10-06T14:53:57Z</time>
      </trkpt>
      <trkpt lat="45.2625" lon="0.36155">
        <ele>69</ele>
        <time>2015-10-06T14:54:01Z</time>
      </trkpt>
      <trkpt lat="45.26247" lon="0.36152">
        <ele>68</ele>
        <time>2015-10-06T14:54:05Z</time>
      </trkpt>
      <trkpt lat="45.26243" lon="0.36147">
        <ele>68</ele>
        <time>2015-10-06T14:54:09Z</time>
      </trkpt>
      <trkpt lat="45.26239" lon="0.36141">
        <ele>66</ele>
        <time>2015-10-06T14:54:13Z</time>
      </trkpt>
      <trkpt lat="45.26235" lon="0.36136">
        <ele>66</ele>
        <time>2015-10-06T14:54:17Z</time>
      </trkpt>
      <trkpt lat="45.26233" lon="0.36132">
        <ele>67</ele>
        <time>2015-10-06T14:54:21Z</time>
      </trkpt>
      <trkpt lat="45.2623" lon="0.36127">
        <ele>68</ele>
        <time>2015-10-06T14:54:25Z</time>
      </trkpt>
      <trkpt lat="45.26228" lon="0.36119">
        <ele>69</ele>
        <time>2015-10-06T14:54:30Z</time>
      </trkpt>
      <trkpt lat="45.26222" lon="0.36112">
        <ele>69</ele>
        <time>2015-10-06T14:54:35Z</time>
      </trkpt>
      <trkpt lat="45.26218" lon="0.36103">
        <ele>68</ele>
        <time>2015-10-06T14:54:40Z</time>
      </trkpt>
      <trkpt lat="45.26215" lon="0.36096">
        <ele>65</ele>
        <time>2015-10-06T14:54:45Z</time>
      </trkpt>
      <trkpt lat="45.26213" lon="0.36091">
        <ele>64</ele>
        <time>2015-10-06T14:54:49Z</time>
      </trkpt>
      <trkpt lat="45.26211" lon="0.36086">
        <ele>63</ele>
        <time>2015-10-06T14:54:57Z</time>
      </trkpt>
      <trkpt lat="45.26209" lon="0.36077">
        <ele>63</ele>
        <time>2015-10-06T14:55:01Z</time>
      </trkpt>
      <trkpt lat="45.26207" lon="0.3607">
        <ele>63</ele>
        <time>2015-10-06T14:55:05Z</time>
      </trkpt>
      <trkpt lat="45.26205" lon="0.36062">
        <ele>62</ele>
        <time>2015-10-06T14:55:09Z</time>
      </trkpt>
      <trkpt lat="45.26203" lon="0.36056">
        <ele>62</ele>
        <time>2015-10-06T14:55:13Z</time>
      </trkpt>
      <trkpt lat="45.26203" lon="0.36049">
        <ele>63</ele>
        <time>2015-10-06T14:55:17Z</time>
      </trkpt>
      <trkpt lat="45.26201" lon="0.36042">
        <ele>62</ele>
        <time>2015-10-06T14:55:21Z</time>
      </trkpt>
      <trkpt lat="45.262" lon="0.36036">
        <ele>63</ele>
        <time>2015-10-06T14:55:25Z</time>
      </trkpt>
      <trkpt lat="45.26198" lon="0.36031">
        <ele>64</ele>
        <time>2015-10-06T14:55:29Z</time>
      </trkpt>
      <trkpt lat="45.26195" lon="0.36026">
        <ele>64</ele>
        <time>2015-10-06T14:55:33Z</time>
      </trkpt>
      <trkpt lat="45.2619" lon="0.36023">
        <ele>64</ele>
        <time>2015-10-06T14:55:37Z</time>
      </trkpt>
      <trkpt lat="45.26184" lon="0.3602">
        <ele>63</ele>
        <time>2015-10-06T14:55:42Z</time>
      </trkpt>
      <trkpt lat="45.26181" lon="0.36016">
        <ele>64</ele>
        <time>2015-10-06T14:55:47Z</time>
      </trkpt>
      <trkpt lat="45.26177" lon="0.36012">
        <ele>65</ele>
        <time>2015-10-06T14:55:51Z</time>
      </trkpt>
      <trkpt lat="45.26173" lon="0.36008">
        <ele>65</ele>
        <time>2015-10-06T14:55:56Z</time>
      </trkpt>
      <trkpt lat="45.26168" lon="0.36005">
        <ele>65</ele>
        <time>2015-10-06T14:56:01Z</time>
      </trkpt>
      <trkpt lat="45.26164" lon="0.36005">
        <ele>65</ele>
        <time>2015-10-06T14:56:09Z</time>
      </trkpt>
      <trkpt lat="45.26159" lon="0.35999">
        <ele>64</ele>
        <time>2015-10-06T14:56:14Z</time>
      </trkpt>
      <trkpt lat="45.26156" lon="0.35995">
        <ele>64</ele>
        <time>2015-10-06T14:56:18Z</time>
      </trkpt>
      <trkpt lat="45.26153" lon="0.35991">
        <ele>64</ele>
        <time>2015-10-06T14:56:22Z</time>
      </trkpt>
      <trkpt lat="45.26149" lon="0.35985">
        <ele>64</ele>
        <time>2015-10-06T14:56:26Z</time>
      </trkpt>
      <trkpt lat="45.26147" lon="0.3598">
        <ele>65</ele>
        <time>2015-10-06T14:56:30Z</time>
      </trkpt>
      <trkpt lat="45.26143" lon="0.35973">
        <ele>64</ele>
        <time>2015-10-06T14:56:35Z</time>
      </trkpt>
      <trkpt lat="45.26138" lon="0.35967">
        <ele>64</ele>
        <time>2015-10-06T14:56:40Z</time>
      </trkpt>
      <trkpt lat="45.26134" lon="0.35961">
        <ele>63</ele>
        <time>2015-10-06T14:56:44Z</time>
      </trkpt>
      <trkpt lat="45.26132" lon="0.35957">
        <ele>64</ele>
        <time>2015-10-06T14:56:48Z</time>
      </trkpt>
      <trkpt lat="45.26127" lon="0.35952">
        <ele>64</ele>
        <time>2015-10-06T14:56:52Z</time>
      </trkpt>
      <trkpt lat="45.26122" lon="0.35947">
        <ele>63</ele>
        <time>2015-10-06T14:56:57Z</time>
      </trkpt>
      <trkpt lat="45.26118" lon="0.35942">
        <ele>63</ele>
        <time>2015-10-06T14:57:01Z</time>
      </trkpt>
      <trkpt lat="45.26117" lon="0.35937">
        <ele>62</ele>
        <time>2015-10-06T14:57:05Z</time>
      </trkpt>
      <trkpt lat="45.26113" lon="0.35933">
        <ele>62</ele>
        <time>2015-10-06T14:57:21Z</time>
      </trkpt>
      <trkpt lat="45.26109" lon="0.35932">
        <ele>62</ele>
        <time>2015-10-06T14:57:41Z</time>
      </trkpt>
      <trkpt lat="45.26108" lon="0.35927">
        <ele>61</ele>
        <time>2015-10-06T14:58:17Z</time>
      </trkpt>
      <trkpt lat="45.26106" lon="0.35921">
        <ele>59</ele>
        <time>2015-10-06T14:59:08Z</time>
      </trkpt>
      <trkpt lat="45.26107" lon="0.35923">
        <ele>59</ele>
        <time>2015-10-06T14:59:32Z</time>
      </trkpt>
      <trkpt lat="45.26107" lon="0.35923">
        <ele>59</ele>
        <time>2015-10-06T14:59:33Z</time>
      </trkpt>
    </trkseg>
  </trk>
</gpx>